<?xml version="1.0" encoding="UTF-8" standalone="no" ?>
<gpx xmlns="http://www.topografix.com/GPX/1/1" xmlns:xsi="http://www.w3.org/2001/XMLSchema-instance" xsi:schemaLocation="http://www.topografix.com/GPX/1/1 http://www.topografix.com/GPX/1/1/gpx.xsd" version="1.1" creator="VisuGPX - https://www.visugpx.com">
  <metadata>
    <name>Axe majeur laser</name>
  </metadata>
  <trk>
    <name><![CDATA[Axe majeur laser_1]]></name>
    <trkseg>
      <trkpt lat="49.01419" lon="2.0581">
        <ele>25.1</ele>
        <time>2022-03-04T16:40:15Z</time>
      </trkpt>
      <trkpt lat="49.01415" lon="2.058">
        <ele>25.4</ele>
        <time>2022-03-04T16:40:21Z</time>
      </trkpt>
      <trkpt lat="49.01411" lon="2.05796">
        <ele>25.5</ele>
        <time>2022-03-04T16:40:26Z</time>
      </trkpt>
      <trkpt lat="49.01409" lon="2.0579">
        <ele>25.7</ele>
        <time>2022-03-04T16:40:31Z</time>
      </trkpt>
      <trkpt lat="49.01407" lon="2.0578">
        <ele>25.9</ele>
        <time>2022-03-04T16:40:37Z</time>
      </trkpt>
      <trkpt lat="49.01405" lon="2.05773">
        <ele>25.9</ele>
        <time>2022-03-04T16:40:43Z</time>
      </trkpt>
      <trkpt lat="49.01404" lon="2.05766">
        <ele>25.9</ele>
        <time>2022-03-04T16:40:49Z</time>
      </trkpt>
      <trkpt lat="49.01405" lon="2.05758">
        <ele>26.2</ele>
        <time>2022-03-04T16:40:54Z</time>
      </trkpt>
      <trkpt lat="49.01407" lon="2.05752">
        <ele>26.8</ele>
        <time>2022-03-04T16:41:00Z</time>
      </trkpt>
      <trkpt lat="49.01408" lon="2.05748">
        <ele>27</ele>
        <time>2022-03-04T16:41:06Z</time>
      </trkpt>
      <trkpt lat="49.01408" lon="2.05742">
        <ele>26.4</ele>
        <time>2022-03-04T16:41:11Z</time>
      </trkpt>
      <trkpt lat="49.01401" lon="2.05733">
        <ele>24</ele>
        <time>2022-03-04T16:41:17Z</time>
      </trkpt>
      <trkpt lat="49.01398" lon="2.05725">
        <ele>22.8</ele>
        <time>2022-03-04T16:41:22Z</time>
      </trkpt>
      <trkpt lat="49.01394" lon="2.05718">
        <ele>21.8</ele>
        <time>2022-03-04T16:41:28Z</time>
      </trkpt>
      <trkpt lat="49.01387" lon="2.05707">
        <ele>21</ele>
        <time>2022-03-04T16:41:34Z</time>
      </trkpt>
      <trkpt lat="49.01384" lon="2.05701">
        <ele>21</ele>
        <time>2022-03-04T16:41:39Z</time>
      </trkpt>
      <trkpt lat="49.0138" lon="2.05693">
        <ele>21</ele>
        <time>2022-03-04T16:41:45Z</time>
      </trkpt>
      <trkpt lat="49.01377" lon="2.05687">
        <ele>21</ele>
        <time>2022-03-04T16:41:50Z</time>
      </trkpt>
      <trkpt lat="49.01373" lon="2.05681">
        <ele>21</ele>
        <time>2022-03-04T16:41:55Z</time>
      </trkpt>
      <trkpt lat="49.01369" lon="2.05674">
        <ele>21</ele>
        <time>2022-03-04T16:42:00Z</time>
      </trkpt>
      <trkpt lat="49.01365" lon="2.05667">
        <ele>21</ele>
        <time>2022-03-04T16:42:06Z</time>
      </trkpt>
      <trkpt lat="49.01362" lon="2.0566">
        <ele>21</ele>
        <time>2022-03-04T16:42:11Z</time>
      </trkpt>
      <trkpt lat="49.01358" lon="2.0565">
        <ele>21.3</ele>
        <time>2022-03-04T16:42:17Z</time>
      </trkpt>
      <trkpt lat="49.01356" lon="2.05642">
        <ele>21.5</ele>
        <time>2022-03-04T16:42:22Z</time>
      </trkpt>
      <trkpt lat="49.01354" lon="2.05636">
        <ele>22.2</ele>
        <time>2022-03-04T16:42:28Z</time>
      </trkpt>
      <trkpt lat="49.01351" lon="2.05632">
        <ele>23</ele>
        <time>2022-03-04T16:42:34Z</time>
      </trkpt>
      <trkpt lat="49.01348" lon="2.05626">
        <ele>24.1</ele>
        <time>2022-03-04T16:42:39Z</time>
      </trkpt>
      <trkpt lat="49.01344" lon="2.05619">
        <ele>25.5</ele>
        <time>2022-03-04T16:42:44Z</time>
      </trkpt>
      <trkpt lat="49.01339" lon="2.05616">
        <ele>26.5</ele>
        <time>2022-03-04T16:42:50Z</time>
      </trkpt>
      <trkpt lat="49.01338" lon="2.05616">
        <ele>26.6</ele>
        <time>2022-03-04T16:42:56Z</time>
      </trkpt>
      <trkpt lat="49.01337" lon="2.05621">
        <ele>26.1</ele>
        <time>2022-03-04T16:43:02Z</time>
      </trkpt>
      <trkpt lat="49.01336" lon="2.05627">
        <ele>25.3</ele>
        <time>2022-03-04T16:43:08Z</time>
      </trkpt>
      <trkpt lat="49.01335" lon="2.05634">
        <ele>24.5</ele>
        <time>2022-03-04T16:43:13Z</time>
      </trkpt>
      <trkpt lat="49.01335" lon="2.05641">
        <ele>23.7</ele>
        <time>2022-03-04T16:43:19Z</time>
      </trkpt>
      <trkpt lat="49.01336" lon="2.05646">
        <ele>23.3</ele>
        <time>2022-03-04T16:43:24Z</time>
      </trkpt>
      <trkpt lat="49.0134" lon="2.05648">
        <ele>22.8</ele>
        <time>2022-03-04T16:43:30Z</time>
      </trkpt>
      <trkpt lat="49.01347" lon="2.05647">
        <ele>22.2</ele>
        <time>2022-03-04T16:43:35Z</time>
      </trkpt>
      <trkpt lat="49.01351" lon="2.05643">
        <ele>22</ele>
        <time>2022-03-04T16:43:41Z</time>
      </trkpt>
      <trkpt lat="49.01353" lon="2.05636">
        <ele>22.2</ele>
        <time>2022-03-04T16:43:47Z</time>
      </trkpt>
      <trkpt lat="49.01359" lon="2.05626">
        <ele>22.7</ele>
        <time>2022-03-04T16:43:53Z</time>
      </trkpt>
      <trkpt lat="49.01364" lon="2.05617">
        <ele>23.2</ele>
        <time>2022-03-04T16:43:58Z</time>
      </trkpt>
      <trkpt lat="49.01369" lon="2.05607">
        <ele>23.1</ele>
        <time>2022-03-04T16:44:03Z</time>
      </trkpt>
      <trkpt lat="49.01376" lon="2.05596">
        <ele>22.4</ele>
        <time>2022-03-04T16:44:09Z</time>
      </trkpt>
      <trkpt lat="49.01383" lon="2.05586">
        <ele>22.1</ele>
        <time>2022-03-04T16:44:15Z</time>
      </trkpt>
      <trkpt lat="49.01389" lon="2.05578">
        <ele>22.2</ele>
        <time>2022-03-04T16:44:20Z</time>
      </trkpt>
      <trkpt lat="49.01395" lon="2.05569">
        <ele>22.2</ele>
        <time>2022-03-04T16:44:25Z</time>
      </trkpt>
      <trkpt lat="49.01402" lon="2.05558">
        <ele>22</ele>
        <time>2022-03-04T16:44:31Z</time>
      </trkpt>
      <trkpt lat="49.01409" lon="2.05547">
        <ele>21.8</ele>
        <time>2022-03-04T16:44:36Z</time>
      </trkpt>
      <trkpt lat="49.01414" lon="2.05536">
        <ele>21.8</ele>
        <time>2022-03-04T16:44:42Z</time>
      </trkpt>
      <trkpt lat="49.01417" lon="2.05528">
        <ele>22</ele>
        <time>2022-03-04T16:44:47Z</time>
      </trkpt>
      <trkpt lat="49.01423" lon="2.05524">
        <ele>21.9</ele>
        <time>2022-03-04T16:44:53Z</time>
      </trkpt>
      <trkpt lat="49.01427" lon="2.05517">
        <ele>21.9</ele>
        <time>2022-03-04T16:44:58Z</time>
      </trkpt>
      <trkpt lat="49.01432" lon="2.05505">
        <ele>21.8</ele>
        <time>2022-03-04T16:45:04Z</time>
      </trkpt>
      <trkpt lat="49.01438" lon="2.05495">
        <ele>21.7</ele>
        <time>2022-03-04T16:45:09Z</time>
      </trkpt>
      <trkpt lat="49.01444" lon="2.05482">
        <ele>22.3</ele>
        <time>2022-03-04T16:45:15Z</time>
      </trkpt>
      <trkpt lat="49.01446" lon="2.05473">
        <ele>22.8</ele>
        <time>2022-03-04T16:45:20Z</time>
      </trkpt>
      <trkpt lat="49.01448" lon="2.05463">
        <ele>22.8</ele>
        <time>2022-03-04T16:45:26Z</time>
      </trkpt>
      <trkpt lat="49.01452" lon="2.05454">
        <ele>22.5</ele>
        <time>2022-03-04T16:45:31Z</time>
      </trkpt>
      <trkpt lat="49.01457" lon="2.05442">
        <ele>22.1</ele>
        <time>2022-03-04T16:45:37Z</time>
      </trkpt>
      <trkpt lat="49.01461" lon="2.05431">
        <ele>21.8</ele>
        <time>2022-03-04T16:45:42Z</time>
      </trkpt>
      <trkpt lat="49.01461" lon="2.05421">
        <ele>21.8</ele>
        <time>2022-03-04T16:45:48Z</time>
      </trkpt>
      <trkpt lat="49.01461" lon="2.05415">
        <ele>21.9</ele>
        <time>2022-03-04T16:45:53Z</time>
      </trkpt>
      <trkpt lat="49.01465" lon="2.05406">
        <ele>22.1</ele>
        <time>2022-03-04T16:45:59Z</time>
      </trkpt>
      <trkpt lat="49.0147" lon="2.05398">
        <ele>22.4</ele>
        <time>2022-03-04T16:46:04Z</time>
      </trkpt>
      <trkpt lat="49.01475" lon="2.05388">
        <ele>22.8</ele>
        <time>2022-03-04T16:46:10Z</time>
      </trkpt>
      <trkpt lat="49.0148" lon="2.05379">
        <ele>22.4</ele>
        <time>2022-03-04T16:46:16Z</time>
      </trkpt>
      <trkpt lat="49.01484" lon="2.05372">
        <ele>22.1</ele>
        <time>2022-03-04T16:46:22Z</time>
      </trkpt>
      <trkpt lat="49.01486" lon="2.05366">
        <ele>22</ele>
        <time>2022-03-04T16:46:28Z</time>
      </trkpt>
      <trkpt lat="49.01487" lon="2.05358">
        <ele>22</ele>
        <time>2022-03-04T16:46:34Z</time>
      </trkpt>
      <trkpt lat="49.01491" lon="2.0535">
        <ele>22.2</ele>
        <time>2022-03-04T16:46:39Z</time>
      </trkpt>
      <trkpt lat="49.015" lon="2.05339">
        <ele>22.6</ele>
        <time>2022-03-04T16:46:45Z</time>
      </trkpt>
      <trkpt lat="49.0151" lon="2.05325">
        <ele>22.4</ele>
        <time>2022-03-04T16:46:51Z</time>
      </trkpt>
      <trkpt lat="49.01516" lon="2.05314">
        <ele>22.2</ele>
        <time>2022-03-04T16:46:56Z</time>
      </trkpt>
      <trkpt lat="49.01521" lon="2.05302">
        <ele>22.3</ele>
        <time>2022-03-04T16:47:02Z</time>
      </trkpt>
      <trkpt lat="49.01525" lon="2.05293">
        <ele>22.5</ele>
        <time>2022-03-04T16:47:07Z</time>
      </trkpt>
      <trkpt lat="49.0153" lon="2.05284">
        <ele>22.6</ele>
        <time>2022-03-04T16:47:13Z</time>
      </trkpt>
      <trkpt lat="49.01537" lon="2.05274">
        <ele>22.5</ele>
        <time>2022-03-04T16:47:19Z</time>
      </trkpt>
      <trkpt lat="49.01545" lon="2.0526">
        <ele>22.6</ele>
        <time>2022-03-04T16:47:25Z</time>
      </trkpt>
      <trkpt lat="49.0155" lon="2.05253">
        <ele>22.8</ele>
        <time>2022-03-04T16:47:30Z</time>
      </trkpt>
      <trkpt lat="49.01558" lon="2.05245">
        <ele>22.8</ele>
        <time>2022-03-04T16:47:36Z</time>
      </trkpt>
      <trkpt lat="49.01564" lon="2.05239">
        <ele>22.5</ele>
        <time>2022-03-04T16:47:41Z</time>
      </trkpt>
      <trkpt lat="49.01568" lon="2.05232">
        <ele>22.4</ele>
        <time>2022-03-04T16:47:47Z</time>
      </trkpt>
      <trkpt lat="49.01572" lon="2.05223">
        <ele>22.4</ele>
        <time>2022-03-04T16:47:52Z</time>
      </trkpt>
      <trkpt lat="49.0158" lon="2.05215">
        <ele>22.3</ele>
        <time>2022-03-04T16:47:58Z</time>
      </trkpt>
      <trkpt lat="49.01587" lon="2.05204">
        <ele>22.5</ele>
        <time>2022-03-04T16:48:04Z</time>
      </trkpt>
      <trkpt lat="49.01591" lon="2.05197">
        <ele>22.4</ele>
        <time>2022-03-04T16:48:09Z</time>
      </trkpt>
      <trkpt lat="49.01598" lon="2.05187">
        <ele>22.2</ele>
        <time>2022-03-04T16:48:15Z</time>
      </trkpt>
      <trkpt lat="49.01602" lon="2.05179">
        <ele>22.4</ele>
        <time>2022-03-04T16:48:20Z</time>
      </trkpt>
      <trkpt lat="49.01605" lon="2.05171">
        <ele>22.8</ele>
        <time>2022-03-04T16:48:26Z</time>
      </trkpt>
      <trkpt lat="49.01612" lon="2.05161">
        <ele>23</ele>
        <time>2022-03-04T16:48:32Z</time>
      </trkpt>
      <trkpt lat="49.01617" lon="2.05152">
        <ele>22.7</ele>
        <time>2022-03-04T16:48:38Z</time>
      </trkpt>
      <trkpt lat="49.01622" lon="2.05147">
        <ele>22.5</ele>
        <time>2022-03-04T16:48:44Z</time>
      </trkpt>
      <trkpt lat="49.01629" lon="2.05136">
        <ele>22.4</ele>
        <time>2022-03-04T16:48:50Z</time>
      </trkpt>
      <trkpt lat="49.01633" lon="2.05128">
        <ele>22.5</ele>
        <time>2022-03-04T16:48:55Z</time>
      </trkpt>
      <trkpt lat="49.01638" lon="2.05118">
        <ele>22.8</ele>
        <time>2022-03-04T16:49:00Z</time>
      </trkpt>
      <trkpt lat="49.01642" lon="2.05106">
        <ele>22.8</ele>
        <time>2022-03-04T16:49:06Z</time>
      </trkpt>
      <trkpt lat="49.01644" lon="2.051">
        <ele>22.8</ele>
        <time>2022-03-04T16:49:11Z</time>
      </trkpt>
      <trkpt lat="49.01642" lon="2.05094">
        <ele>22.9</ele>
        <time>2022-03-04T16:49:16Z</time>
      </trkpt>
      <trkpt lat="49.01638" lon="2.05085">
        <ele>23</ele>
        <time>2022-03-04T16:49:22Z</time>
      </trkpt>
      <trkpt lat="49.01631" lon="2.05079">
        <ele>23</ele>
        <time>2022-03-04T16:49:28Z</time>
      </trkpt>
      <trkpt lat="49.01626" lon="2.05072">
        <ele>22.8</ele>
        <time>2022-03-04T16:49:33Z</time>
      </trkpt>
      <trkpt lat="49.0162" lon="2.05064">
        <ele>22.5</ele>
        <time>2022-03-04T16:49:39Z</time>
      </trkpt>
      <trkpt lat="49.01615" lon="2.05056">
        <ele>22.1</ele>
        <time>2022-03-04T16:49:45Z</time>
      </trkpt>
      <trkpt lat="49.0161" lon="2.05047">
        <ele>22.3</ele>
        <time>2022-03-04T16:49:50Z</time>
      </trkpt>
      <trkpt lat="49.01605" lon="2.05037">
        <ele>22.7</ele>
        <time>2022-03-04T16:49:56Z</time>
      </trkpt>
      <trkpt lat="49.016" lon="2.05025">
        <ele>23</ele>
        <time>2022-03-04T16:50:02Z</time>
      </trkpt>
      <trkpt lat="49.01598" lon="2.05019">
        <ele>23</ele>
        <time>2022-03-04T16:50:07Z</time>
      </trkpt>
      <trkpt lat="49.01593" lon="2.05012">
        <ele>23</ele>
        <time>2022-03-04T16:50:12Z</time>
      </trkpt>
      <trkpt lat="49.01591" lon="2.05006">
        <ele>23</ele>
        <time>2022-03-04T16:50:17Z</time>
      </trkpt>
      <trkpt lat="49.01596" lon="2.04994">
        <ele>23</ele>
        <time>2022-03-04T16:50:23Z</time>
      </trkpt>
      <trkpt lat="49.016" lon="2.04986">
        <ele>23</ele>
        <time>2022-03-04T16:50:28Z</time>
      </trkpt>
      <trkpt lat="49.01604" lon="2.04977">
        <ele>23</ele>
        <time>2022-03-04T16:50:33Z</time>
      </trkpt>
      <trkpt lat="49.01604" lon="2.04968">
        <ele>23</ele>
        <time>2022-03-04T16:50:39Z</time>
      </trkpt>
      <trkpt lat="49.01603" lon="2.04959">
        <ele>23.1</ele>
        <time>2022-03-04T16:50:44Z</time>
      </trkpt>
      <trkpt lat="49.01602" lon="2.04947">
        <ele>23.3</ele>
        <time>2022-03-04T16:50:50Z</time>
      </trkpt>
      <trkpt lat="49.01599" lon="2.0494">
        <ele>23.6</ele>
        <time>2022-03-04T16:50:55Z</time>
      </trkpt>
      <trkpt lat="49.01593" lon="2.04932">
        <ele>24.1</ele>
        <time>2022-03-04T16:51:01Z</time>
      </trkpt>
      <trkpt lat="49.0159" lon="2.04923">
        <ele>24.5</ele>
        <time>2022-03-04T16:51:06Z</time>
      </trkpt>
      <trkpt lat="49.0159" lon="2.04913">
        <ele>25</ele>
        <time>2022-03-04T16:51:12Z</time>
      </trkpt>
      <trkpt lat="49.01589" lon="2.0491">
        <ele>25.2</ele>
        <time>2022-03-04T16:51:17Z</time>
      </trkpt>
      <trkpt lat="49.01589" lon="2.0491">
        <ele>25.1</ele>
        <time>2022-03-04T16:51:22Z</time>
      </trkpt>
      <trkpt lat="49.0159" lon="2.0491">
        <ele>25.1</ele>
        <time>2022-03-04T16:51:27Z</time>
      </trkpt>
      <trkpt lat="49.01592" lon="2.0491">
        <ele>25</ele>
        <time>2022-03-04T16:51:33Z</time>
      </trkpt>
      <trkpt lat="49.01593" lon="2.04912">
        <ele>24.9</ele>
        <time>2022-03-04T16:51:38Z</time>
      </trkpt>
      <trkpt lat="49.01594" lon="2.04913">
        <ele>24.8</ele>
        <time>2022-03-04T16:51:44Z</time>
      </trkpt>
      <trkpt lat="49.01594" lon="2.04913">
        <ele>24.8</ele>
        <time>2022-03-04T16:51:50Z</time>
      </trkpt>
      <trkpt lat="49.01594" lon="2.04913">
        <ele>24.8</ele>
        <time>2022-03-04T16:51:55Z</time>
      </trkpt>
      <trkpt lat="49.01594" lon="2.04912">
        <ele>24.8</ele>
        <time>2022-03-04T16:52:01Z</time>
      </trkpt>
      <trkpt lat="49.01593" lon="2.0491">
        <ele>24.9</ele>
        <time>2022-03-04T16:52:07Z</time>
      </trkpt>
      <trkpt lat="49.01593" lon="2.0491">
        <ele>25</ele>
        <time>2022-03-04T16:52:12Z</time>
      </trkpt>
      <trkpt lat="49.01593" lon="2.0491">
        <ele>25</ele>
        <time>2022-03-04T16:52:18Z</time>
      </trkpt>
      <trkpt lat="49.01592" lon="2.0491">
        <ele>25</ele>
        <time>2022-03-04T16:52:24Z</time>
      </trkpt>
      <trkpt lat="49.01592" lon="2.04911">
        <ele>25</ele>
        <time>2022-03-04T16:52:30Z</time>
      </trkpt>
      <trkpt lat="49.01592" lon="2.04911">
        <ele>25</ele>
        <time>2022-03-04T16:52:35Z</time>
      </trkpt>
      <trkpt lat="49.01592" lon="2.04905">
        <ele>25.3</ele>
        <time>2022-03-04T16:52:41Z</time>
      </trkpt>
      <trkpt lat="49.01595" lon="2.04897">
        <ele>25.4</ele>
        <time>2022-03-04T16:52:47Z</time>
      </trkpt>
      <trkpt lat="49.016" lon="2.04891">
        <ele>25.2</ele>
        <time>2022-03-04T16:52:52Z</time>
      </trkpt>
      <trkpt lat="49.01607" lon="2.0488">
        <ele>25.3</ele>
        <time>2022-03-04T16:52:58Z</time>
      </trkpt>
      <trkpt lat="49.01611" lon="2.04875">
        <ele>25.6</ele>
        <time>2022-03-04T16:53:03Z</time>
      </trkpt>
      <trkpt lat="49.01613" lon="2.04872">
        <ele>25.7</ele>
        <time>2022-03-04T16:53:08Z</time>
      </trkpt>
      <trkpt lat="49.0162" lon="2.04867">
        <ele>25.8</ele>
        <time>2022-03-04T16:53:14Z</time>
      </trkpt>
      <trkpt lat="49.01626" lon="2.04862">
        <ele>25.8</ele>
        <time>2022-03-04T16:53:19Z</time>
      </trkpt>
      <trkpt lat="49.0163" lon="2.04858">
        <ele>25.7</ele>
        <time>2022-03-04T16:53:24Z</time>
      </trkpt>
      <trkpt lat="49.01633" lon="2.04856">
        <ele>25.6</ele>
        <time>2022-03-04T16:53:30Z</time>
      </trkpt>
      <trkpt lat="49.01632" lon="2.04857">
        <ele>25.6</ele>
        <time>2022-03-04T16:53:35Z</time>
      </trkpt>
      <trkpt lat="49.01632" lon="2.04858">
        <ele>25.6</ele>
        <time>2022-03-04T16:53:41Z</time>
      </trkpt>
      <trkpt lat="49.01632" lon="2.04859">
        <ele>25.6</ele>
        <time>2022-03-04T16:53:47Z</time>
      </trkpt>
      <trkpt lat="49.01632" lon="2.0486">
        <ele>25.5</ele>
        <time>2022-03-04T16:53:53Z</time>
      </trkpt>
      <trkpt lat="49.01633" lon="2.0486">
        <ele>25.5</ele>
        <time>2022-03-04T16:53:59Z</time>
      </trkpt>
      <trkpt lat="49.01634" lon="2.04859">
        <ele>25.4</ele>
        <time>2022-03-04T16:54:05Z</time>
      </trkpt>
      <trkpt lat="49.01635" lon="2.04859">
        <ele>25.3</ele>
        <time>2022-03-04T16:54:10Z</time>
      </trkpt>
      <trkpt lat="49.01637" lon="2.04858">
        <ele>25.3</ele>
        <time>2022-03-04T16:54:15Z</time>
      </trkpt>
      <trkpt lat="49.01639" lon="2.04852">
        <ele>25.3</ele>
        <time>2022-03-04T16:54:21Z</time>
      </trkpt>
      <trkpt lat="49.01639" lon="2.04846">
        <ele>25.6</ele>
        <time>2022-03-04T16:54:26Z</time>
      </trkpt>
      <trkpt lat="49.0164" lon="2.04841">
        <ele>25.7</ele>
        <time>2022-03-04T16:54:31Z</time>
      </trkpt>
      <trkpt lat="49.01641" lon="2.0483">
        <ele>25.9</ele>
        <time>2022-03-04T16:54:37Z</time>
      </trkpt>
      <trkpt lat="49.01645" lon="2.04825">
        <ele>25.9</ele>
        <time>2022-03-04T16:54:43Z</time>
      </trkpt>
      <trkpt lat="49.0165" lon="2.04818">
        <ele>25.7</ele>
        <time>2022-03-04T16:54:49Z</time>
      </trkpt>
      <trkpt lat="49.01656" lon="2.04808">
        <ele>25.7</ele>
        <time>2022-03-04T16:54:55Z</time>
      </trkpt>
      <trkpt lat="49.01659" lon="2.04799">
        <ele>25.9</ele>
        <time>2022-03-04T16:55:00Z</time>
      </trkpt>
      <trkpt lat="49.01661" lon="2.04786">
        <ele>26.2</ele>
        <time>2022-03-04T16:55:06Z</time>
      </trkpt>
      <trkpt lat="49.01663" lon="2.04769">
        <ele>26.6</ele>
        <time>2022-03-04T16:55:12Z</time>
      </trkpt>
      <trkpt lat="49.01664" lon="2.04756">
        <ele>27</ele>
        <time>2022-03-04T16:55:17Z</time>
      </trkpt>
      <trkpt lat="49.01663" lon="2.0474">
        <ele>27.6</ele>
        <time>2022-03-04T16:55:23Z</time>
      </trkpt>
      <trkpt lat="49.01663" lon="2.04729">
        <ele>28</ele>
        <time>2022-03-04T16:55:28Z</time>
      </trkpt>
      <trkpt lat="49.01663" lon="2.04716">
        <ele>28.3</ele>
        <time>2022-03-04T16:55:34Z</time>
      </trkpt>
      <trkpt lat="49.01661" lon="2.04709">
        <ele>28.6</ele>
        <time>2022-03-04T16:55:39Z</time>
      </trkpt>
      <trkpt lat="49.01657" lon="2.04702">
        <ele>29.3</ele>
        <time>2022-03-04T16:55:45Z</time>
      </trkpt>
      <trkpt lat="49.01654" lon="2.04699">
        <ele>29.7</ele>
        <time>2022-03-04T16:55:50Z</time>
      </trkpt>
      <trkpt lat="49.0165" lon="2.04695">
        <ele>30.4</ele>
        <time>2022-03-04T16:55:56Z</time>
      </trkpt>
      <trkpt lat="49.01645" lon="2.04689">
        <ele>31.4</ele>
        <time>2022-03-04T16:56:02Z</time>
      </trkpt>
      <trkpt lat="49.01641" lon="2.04684">
        <ele>32.1</ele>
        <time>2022-03-04T16:56:07Z</time>
      </trkpt>
      <trkpt lat="49.01637" lon="2.04681">
        <ele>32.8</ele>
        <time>2022-03-04T16:56:13Z</time>
      </trkpt>
      <trkpt lat="49.01635" lon="2.0468">
        <ele>33.1</ele>
        <time>2022-03-04T16:56:19Z</time>
      </trkpt>
      <trkpt lat="49.01635" lon="2.04676">
        <ele>33.4</ele>
        <time>2022-03-04T16:56:24Z</time>
      </trkpt>
      <trkpt lat="49.01634" lon="2.04668">
        <ele>33.9</ele>
        <time>2022-03-04T16:56:30Z</time>
      </trkpt>
      <trkpt lat="49.01633" lon="2.0466">
        <ele>34.4</ele>
        <time>2022-03-04T16:56:35Z</time>
      </trkpt>
      <trkpt lat="49.01633" lon="2.04649">
        <ele>34.7</ele>
        <time>2022-03-04T16:56:41Z</time>
      </trkpt>
      <trkpt lat="49.01632" lon="2.04644">
        <ele>35.2</ele>
        <time>2022-03-04T16:56:47Z</time>
      </trkpt>
      <trkpt lat="49.0163" lon="2.04644">
        <ele>35.6</ele>
        <time>2022-03-04T16:56:52Z</time>
      </trkpt>
      <trkpt lat="49.01627" lon="2.04645">
        <ele>36.3</ele>
        <time>2022-03-04T16:56:58Z</time>
      </trkpt>
      <trkpt lat="49.0162" lon="2.04648">
        <ele>37.5</ele>
        <time>2022-03-04T16:57:04Z</time>
      </trkpt>
      <trkpt lat="49.01614" lon="2.04649">
        <ele>38.7</ele>
        <time>2022-03-04T16:57:09Z</time>
      </trkpt>
      <trkpt lat="49.01607" lon="2.0465">
        <ele>39.7</ele>
        <time>2022-03-04T16:57:15Z</time>
      </trkpt>
      <trkpt lat="49.016" lon="2.04652">
        <ele>40.3</ele>
        <time>2022-03-04T16:57:21Z</time>
      </trkpt>
      <trkpt lat="49.01596" lon="2.04654">
        <ele>40.5</ele>
        <time>2022-03-04T16:57:26Z</time>
      </trkpt>
      <trkpt lat="49.01593" lon="2.04655">
        <ele>40.8</ele>
        <time>2022-03-04T16:57:32Z</time>
      </trkpt>
      <trkpt lat="49.0159" lon="2.04654">
        <ele>41.2</ele>
        <time>2022-03-04T16:57:38Z</time>
      </trkpt>
      <trkpt lat="49.01587" lon="2.04653">
        <ele>41.6</ele>
        <time>2022-03-04T16:57:43Z</time>
      </trkpt>
      <trkpt lat="49.01582" lon="2.04652">
        <ele>42.2</ele>
        <time>2022-03-04T16:57:49Z</time>
      </trkpt>
      <trkpt lat="49.01576" lon="2.04647">
        <ele>42.8</ele>
        <time>2022-03-04T16:57:55Z</time>
      </trkpt>
      <trkpt lat="49.0157" lon="2.0464">
        <ele>43.4</ele>
        <time>2022-03-04T16:58:01Z</time>
      </trkpt>
      <trkpt lat="49.01565" lon="2.04633">
        <ele>44.1</ele>
        <time>2022-03-04T16:58:06Z</time>
      </trkpt>
      <trkpt lat="49.01561" lon="2.04628">
        <ele>44.8</ele>
        <time>2022-03-04T16:58:11Z</time>
      </trkpt>
      <trkpt lat="49.01557" lon="2.04623">
        <ele>45.5</ele>
        <time>2022-03-04T16:58:17Z</time>
      </trkpt>
      <trkpt lat="49.01555" lon="2.04615">
        <ele>46.7</ele>
        <time>2022-03-04T16:58:23Z</time>
      </trkpt>
      <trkpt lat="49.01555" lon="2.04606">
        <ele>47.6</ele>
        <time>2022-03-04T16:58:29Z</time>
      </trkpt>
      <trkpt lat="49.01556" lon="2.04598">
        <ele>47.9</ele>
        <time>2022-03-04T16:58:34Z</time>
      </trkpt>
      <trkpt lat="49.01556" lon="2.04589">
        <ele>48.6</ele>
        <time>2022-03-04T16:58:39Z</time>
      </trkpt>
      <trkpt lat="49.01557" lon="2.04578">
        <ele>49.4</ele>
        <time>2022-03-04T16:58:45Z</time>
      </trkpt>
      <trkpt lat="49.01558" lon="2.04567">
        <ele>50.3</ele>
        <time>2022-03-04T16:58:51Z</time>
      </trkpt>
      <trkpt lat="49.0156" lon="2.04559">
        <ele>50.9</ele>
        <time>2022-03-04T16:58:56Z</time>
      </trkpt>
      <trkpt lat="49.01562" lon="2.04553">
        <ele>51.2</ele>
        <time>2022-03-04T16:59:01Z</time>
      </trkpt>
      <trkpt lat="49.01565" lon="2.04545">
        <ele>51.6</ele>
        <time>2022-03-04T16:59:07Z</time>
      </trkpt>
      <trkpt lat="49.01569" lon="2.04538">
        <ele>51.8</ele>
        <time>2022-03-04T16:59:12Z</time>
      </trkpt>
      <trkpt lat="49.01574" lon="2.04529">
        <ele>51.8</ele>
        <time>2022-03-04T16:59:18Z</time>
      </trkpt>
      <trkpt lat="49.0158" lon="2.04521">
        <ele>51.4</ele>
        <time>2022-03-04T16:59:23Z</time>
      </trkpt>
      <trkpt lat="49.01588" lon="2.04512">
        <ele>51.1</ele>
        <time>2022-03-04T16:59:29Z</time>
      </trkpt>
      <trkpt lat="49.01595" lon="2.04504">
        <ele>51</ele>
        <time>2022-03-04T16:59:34Z</time>
      </trkpt>
      <trkpt lat="49.01602" lon="2.04494">
        <ele>50.5</ele>
        <time>2022-03-04T16:59:40Z</time>
      </trkpt>
      <trkpt lat="49.01609" lon="2.04486">
        <ele>49.9</ele>
        <time>2022-03-04T16:59:45Z</time>
      </trkpt>
      <trkpt lat="49.01616" lon="2.04477">
        <ele>49.2</ele>
        <time>2022-03-04T16:59:51Z</time>
      </trkpt>
      <trkpt lat="49.01622" lon="2.04469">
        <ele>49</ele>
        <time>2022-03-04T16:59:56Z</time>
      </trkpt>
      <trkpt lat="49.01629" lon="2.04459">
        <ele>48.8</ele>
        <time>2022-03-04T17:00:02Z</time>
      </trkpt>
      <trkpt lat="49.01635" lon="2.04449">
        <ele>48.4</ele>
        <time>2022-03-04T17:00:08Z</time>
      </trkpt>
      <trkpt lat="49.01641" lon="2.0444">
        <ele>48.3</ele>
        <time>2022-03-04T17:00:14Z</time>
      </trkpt>
      <trkpt lat="49.01647" lon="2.04431">
        <ele>48.4</ele>
        <time>2022-03-04T17:00:20Z</time>
      </trkpt>
      <trkpt lat="49.01654" lon="2.04423">
        <ele>48.3</ele>
        <time>2022-03-04T17:00:26Z</time>
      </trkpt>
      <trkpt lat="49.01661" lon="2.04414">
        <ele>48.1</ele>
        <time>2022-03-04T17:00:32Z</time>
      </trkpt>
      <trkpt lat="49.01669" lon="2.04404">
        <ele>48.2</ele>
        <time>2022-03-04T17:00:38Z</time>
      </trkpt>
      <trkpt lat="49.01676" lon="2.04395">
        <ele>48.2</ele>
        <time>2022-03-04T17:00:44Z</time>
      </trkpt>
      <trkpt lat="49.01683" lon="2.04387">
        <ele>47.8</ele>
        <time>2022-03-04T17:00:50Z</time>
      </trkpt>
      <trkpt lat="49.01688" lon="2.0438">
        <ele>47.8</ele>
        <time>2022-03-04T17:00:55Z</time>
      </trkpt>
      <trkpt lat="49.01694" lon="2.04375">
        <ele>47.6</ele>
        <time>2022-03-04T17:01:01Z</time>
      </trkpt>
      <trkpt lat="49.01696" lon="2.04373">
        <ele>47.6</ele>
        <time>2022-03-04T17:01:06Z</time>
      </trkpt>
      <trkpt lat="49.01699" lon="2.04369">
        <ele>47.8</ele>
        <time>2022-03-04T17:01:12Z</time>
      </trkpt>
      <trkpt lat="49.01702" lon="2.04363">
        <ele>48</ele>
        <time>2022-03-04T17:01:17Z</time>
      </trkpt>
      <trkpt lat="49.01707" lon="2.04355">
        <ele>48.2</ele>
        <time>2022-03-04T17:01:23Z</time>
      </trkpt>
      <trkpt lat="49.01712" lon="2.04348">
        <ele>48.2</ele>
        <time>2022-03-04T17:01:29Z</time>
      </trkpt>
      <trkpt lat="49.01717" lon="2.04343">
        <ele>48</ele>
        <time>2022-03-04T17:01:34Z</time>
      </trkpt>
      <trkpt lat="49.01724" lon="2.04336">
        <ele>47.7</ele>
        <time>2022-03-04T17:01:39Z</time>
      </trkpt>
      <trkpt lat="49.01732" lon="2.04328">
        <ele>47.7</ele>
        <time>2022-03-04T17:01:45Z</time>
      </trkpt>
      <trkpt lat="49.01738" lon="2.04321">
        <ele>47.4</ele>
        <time>2022-03-04T17:01:50Z</time>
      </trkpt>
      <trkpt lat="49.01745" lon="2.04314">
        <ele>46.8</ele>
        <time>2022-03-04T17:01:55Z</time>
      </trkpt>
      <trkpt lat="49.01751" lon="2.04306">
        <ele>45.9</ele>
        <time>2022-03-04T17:02:01Z</time>
      </trkpt>
      <trkpt lat="49.01756" lon="2.04301">
        <ele>46.1</ele>
        <time>2022-03-04T17:02:06Z</time>
      </trkpt>
      <trkpt lat="49.01763" lon="2.04293">
        <ele>46.2</ele>
        <time>2022-03-04T17:02:12Z</time>
      </trkpt>
      <trkpt lat="49.0177" lon="2.04286">
        <ele>45.9</ele>
        <time>2022-03-04T17:02:17Z</time>
      </trkpt>
      <trkpt lat="49.01777" lon="2.04278">
        <ele>45.2</ele>
        <time>2022-03-04T17:02:23Z</time>
      </trkpt>
      <trkpt lat="49.01781" lon="2.04271">
        <ele>45.9</ele>
        <time>2022-03-04T17:02:28Z</time>
      </trkpt>
      <trkpt lat="49.01787" lon="2.04263">
        <ele>46.5</ele>
        <time>2022-03-04T17:02:34Z</time>
      </trkpt>
      <trkpt lat="49.01793" lon="2.04254">
        <ele>46.7</ele>
        <time>2022-03-04T17:02:40Z</time>
      </trkpt>
      <trkpt lat="49.01799" lon="2.04248">
        <ele>46.4</ele>
        <time>2022-03-04T17:02:45Z</time>
      </trkpt>
      <trkpt lat="49.01806" lon="2.04243">
        <ele>45.7</ele>
        <time>2022-03-04T17:02:51Z</time>
      </trkpt>
      <trkpt lat="49.01814" lon="2.04237">
        <ele>45.2</ele>
        <time>2022-03-04T17:02:57Z</time>
      </trkpt>
      <trkpt lat="49.01822" lon="2.04232">
        <ele>44.4</ele>
        <time>2022-03-04T17:03:02Z</time>
      </trkpt>
      <trkpt lat="49.01833" lon="2.04224">
        <ele>43.1</ele>
        <time>2022-03-04T17:03:08Z</time>
      </trkpt>
      <trkpt lat="49.0184" lon="2.04218">
        <ele>42.3</ele>
        <time>2022-03-04T17:03:13Z</time>
      </trkpt>
      <trkpt lat="49.01849" lon="2.04211">
        <ele>41.4</ele>
        <time>2022-03-04T17:03:19Z</time>
      </trkpt>
      <trkpt lat="49.01856" lon="2.04204">
        <ele>40.6</ele>
        <time>2022-03-04T17:03:24Z</time>
      </trkpt>
      <trkpt lat="49.01864" lon="2.04196">
        <ele>39.7</ele>
        <time>2022-03-04T17:03:30Z</time>
      </trkpt>
      <trkpt lat="49.01871" lon="2.04187">
        <ele>39.1</ele>
        <time>2022-03-04T17:03:36Z</time>
      </trkpt>
      <trkpt lat="49.01876" lon="2.0418">
        <ele>38.6</ele>
        <time>2022-03-04T17:03:42Z</time>
      </trkpt>
      <trkpt lat="49.01881" lon="2.04174">
        <ele>38.4</ele>
        <time>2022-03-04T17:03:47Z</time>
      </trkpt>
      <trkpt lat="49.01887" lon="2.04167">
        <ele>38.1</ele>
        <time>2022-03-04T17:03:53Z</time>
      </trkpt>
      <trkpt lat="49.01892" lon="2.04162">
        <ele>37.4</ele>
        <time>2022-03-04T17:03:58Z</time>
      </trkpt>
      <trkpt lat="49.01899" lon="2.04156">
        <ele>36.6</ele>
        <time>2022-03-04T17:04:04Z</time>
      </trkpt>
      <trkpt lat="49.01907" lon="2.04149">
        <ele>36</ele>
        <time>2022-03-04T17:04:10Z</time>
      </trkpt>
      <trkpt lat="49.01913" lon="2.04144">
        <ele>35.9</ele>
        <time>2022-03-04T17:04:15Z</time>
      </trkpt>
      <trkpt lat="49.01917" lon="2.04139">
        <ele>35.8</ele>
        <time>2022-03-04T17:04:20Z</time>
      </trkpt>
      <trkpt lat="49.01924" lon="2.04133">
        <ele>33.6</ele>
        <time>2022-03-04T17:04:26Z</time>
      </trkpt>
      <trkpt lat="49.01931" lon="2.04126">
        <ele>32.2</ele>
        <time>2022-03-04T17:04:31Z</time>
      </trkpt>
      <trkpt lat="49.01938" lon="2.04118">
        <ele>32</ele>
        <time>2022-03-04T17:04:37Z</time>
      </trkpt>
      <trkpt lat="49.01945" lon="2.04112">
        <ele>32.8</ele>
        <time>2022-03-04T17:04:42Z</time>
      </trkpt>
      <trkpt lat="49.01953" lon="2.04105">
        <ele>32.7</ele>
        <time>2022-03-04T17:04:48Z</time>
      </trkpt>
      <trkpt lat="49.01961" lon="2.041">
        <ele>33</ele>
        <time>2022-03-04T17:04:54Z</time>
      </trkpt>
      <trkpt lat="49.01968" lon="2.04093">
        <ele>33.8</ele>
        <time>2022-03-04T17:05:00Z</time>
      </trkpt>
      <trkpt lat="49.01971" lon="2.04087">
        <ele>34.5</ele>
        <time>2022-03-04T17:05:05Z</time>
      </trkpt>
      <trkpt lat="49.01976" lon="2.04082">
        <ele>34.9</ele>
        <time>2022-03-04T17:05:10Z</time>
      </trkpt>
      <trkpt lat="49.01986" lon="2.04074">
        <ele>35</ele>
        <time>2022-03-04T17:05:16Z</time>
      </trkpt>
      <trkpt lat="49.01994" lon="2.04068">
        <ele>35.6</ele>
        <time>2022-03-04T17:05:22Z</time>
      </trkpt>
      <trkpt lat="49.02001" lon="2.04059">
        <ele>36.8</ele>
        <time>2022-03-04T17:05:28Z</time>
      </trkpt>
      <trkpt lat="49.02011" lon="2.04053">
        <ele>37.5</ele>
        <time>2022-03-04T17:05:34Z</time>
      </trkpt>
      <trkpt lat="49.02016" lon="2.04048">
        <ele>38</ele>
        <time>2022-03-04T17:05:39Z</time>
      </trkpt>
      <trkpt lat="49.02022" lon="2.04042">
        <ele>38.4</ele>
        <time>2022-03-04T17:05:45Z</time>
      </trkpt>
      <trkpt lat="49.02028" lon="2.04036">
        <ele>38.7</ele>
        <time>2022-03-04T17:05:50Z</time>
      </trkpt>
      <trkpt lat="49.02033" lon="2.04027">
        <ele>39.3</ele>
        <time>2022-03-04T17:05:56Z</time>
      </trkpt>
      <trkpt lat="49.02039" lon="2.04021">
        <ele>40</ele>
        <time>2022-03-04T17:06:01Z</time>
      </trkpt>
      <trkpt lat="49.02046" lon="2.04014">
        <ele>40.5</ele>
        <time>2022-03-04T17:06:07Z</time>
      </trkpt>
      <trkpt lat="49.02049" lon="2.04012">
        <ele>40.6</ele>
        <time>2022-03-04T17:06:12Z</time>
      </trkpt>
      <trkpt lat="49.02048" lon="2.04011">
        <ele>40.7</ele>
        <time>2022-03-04T17:06:18Z</time>
      </trkpt>
      <trkpt lat="49.02048" lon="2.04011">
        <ele>40.7</ele>
        <time>2022-03-04T17:06:24Z</time>
      </trkpt>
      <trkpt lat="49.02051" lon="2.04009">
        <ele>40.8</ele>
        <time>2022-03-04T17:06:29Z</time>
      </trkpt>
      <trkpt lat="49.0206" lon="2.04007">
        <ele>40.7</ele>
        <time>2022-03-04T17:06:35Z</time>
      </trkpt>
      <trkpt lat="49.02069" lon="2.04006">
        <ele>40.7</ele>
        <time>2022-03-04T17:06:41Z</time>
      </trkpt>
      <trkpt lat="49.02076" lon="2.04007">
        <ele>40.6</ele>
        <time>2022-03-04T17:06:46Z</time>
      </trkpt>
      <trkpt lat="49.02081" lon="2.04003">
        <ele>40.8</ele>
        <time>2022-03-04T17:06:52Z</time>
      </trkpt>
      <trkpt lat="49.02084" lon="2.03999">
        <ele>41</ele>
        <time>2022-03-04T17:06:58Z</time>
      </trkpt>
      <trkpt lat="49.0209" lon="2.03993">
        <ele>40.8</ele>
        <time>2022-03-04T17:07:04Z</time>
      </trkpt>
      <trkpt lat="49.02093" lon="2.0399">
        <ele>40.8</ele>
        <time>2022-03-04T17:07:09Z</time>
      </trkpt>
      <trkpt lat="49.02095" lon="2.03984">
        <ele>40.9</ele>
        <time>2022-03-04T17:07:15Z</time>
      </trkpt>
      <trkpt lat="49.02104" lon="2.03978">
        <ele>40.9</ele>
        <time>2022-03-04T17:07:21Z</time>
      </trkpt>
      <trkpt lat="49.0211" lon="2.03973">
        <ele>41</ele>
        <time>2022-03-04T17:07:26Z</time>
      </trkpt>
      <trkpt lat="49.02117" lon="2.03966">
        <ele>40.4</ele>
        <time>2022-03-04T17:07:32Z</time>
      </trkpt>
      <trkpt lat="49.02124" lon="2.03958">
        <ele>40.1</ele>
        <time>2022-03-04T17:07:38Z</time>
      </trkpt>
      <trkpt lat="49.02131" lon="2.03952">
        <ele>40.2</ele>
        <time>2022-03-04T17:07:44Z</time>
      </trkpt>
      <trkpt lat="49.0214" lon="2.03947">
        <ele>40.4</ele>
        <time>2022-03-04T17:07:50Z</time>
      </trkpt>
      <trkpt lat="49.02147" lon="2.03942">
        <ele>39.9</ele>
        <time>2022-03-04T17:07:56Z</time>
      </trkpt>
      <trkpt lat="49.02154" lon="2.03937">
        <ele>39.4</ele>
        <time>2022-03-04T17:08:01Z</time>
      </trkpt>
      <trkpt lat="49.02159" lon="2.03931">
        <ele>39.5</ele>
        <time>2022-03-04T17:08:07Z</time>
      </trkpt>
      <trkpt lat="49.02163" lon="2.03929">
        <ele>39.4</ele>
        <time>2022-03-04T17:08:12Z</time>
      </trkpt>
      <trkpt lat="49.02168" lon="2.03929">
        <ele>39.1</ele>
        <time>2022-03-04T17:08:17Z</time>
      </trkpt>
      <trkpt lat="49.02176" lon="2.03929">
        <ele>38.3</ele>
        <time>2022-03-04T17:08:23Z</time>
      </trkpt>
      <trkpt lat="49.02185" lon="2.03924">
        <ele>38.1</ele>
        <time>2022-03-04T17:08:29Z</time>
      </trkpt>
      <trkpt lat="49.02192" lon="2.03919">
        <ele>37.9</ele>
        <time>2022-03-04T17:08:35Z</time>
      </trkpt>
      <trkpt lat="49.02198" lon="2.03917">
        <ele>37.7</ele>
        <time>2022-03-04T17:08:40Z</time>
      </trkpt>
      <trkpt lat="49.02205" lon="2.0391">
        <ele>38</ele>
        <time>2022-03-04T17:08:45Z</time>
      </trkpt>
      <trkpt lat="49.02212" lon="2.03902">
        <ele>38.3</ele>
        <time>2022-03-04T17:08:51Z</time>
      </trkpt>
      <trkpt lat="49.02218" lon="2.03895">
        <ele>38.7</ele>
        <time>2022-03-04T17:08:57Z</time>
      </trkpt>
      <trkpt lat="49.02222" lon="2.03887">
        <ele>39.2</ele>
        <time>2022-03-04T17:09:03Z</time>
      </trkpt>
      <trkpt lat="49.02224" lon="2.03881">
        <ele>39.6</ele>
        <time>2022-03-04T17:09:08Z</time>
      </trkpt>
      <trkpt lat="49.02227" lon="2.03868">
        <ele>40.6</ele>
        <time>2022-03-04T17:09:14Z</time>
      </trkpt>
      <trkpt lat="49.02231" lon="2.03856">
        <ele>41.3</ele>
        <time>2022-03-04T17:09:20Z</time>
      </trkpt>
      <trkpt lat="49.02233" lon="2.03853">
        <ele>41.5</ele>
        <time>2022-03-04T17:09:25Z</time>
      </trkpt>
      <trkpt lat="49.02235" lon="2.03847">
        <ele>41.9</ele>
        <time>2022-03-04T17:09:30Z</time>
      </trkpt>
      <trkpt lat="49.02239" lon="2.03838">
        <ele>42.6</ele>
        <time>2022-03-04T17:09:36Z</time>
      </trkpt>
      <trkpt lat="49.02243" lon="2.03831">
        <ele>43.1</ele>
        <time>2022-03-04T17:09:41Z</time>
      </trkpt>
      <trkpt lat="49.02247" lon="2.03824">
        <ele>43.7</ele>
        <time>2022-03-04T17:09:47Z</time>
      </trkpt>
      <trkpt lat="49.02251" lon="2.03817">
        <ele>44.2</ele>
        <time>2022-03-04T17:09:52Z</time>
      </trkpt>
      <trkpt lat="49.02257" lon="2.0381">
        <ele>44.6</ele>
        <time>2022-03-04T17:09:57Z</time>
      </trkpt>
      <trkpt lat="49.02264" lon="2.03802">
        <ele>44.9</ele>
        <time>2022-03-04T17:10:03Z</time>
      </trkpt>
      <trkpt lat="49.0227" lon="2.03797">
        <ele>45</ele>
        <time>2022-03-04T17:10:08Z</time>
      </trkpt>
      <trkpt lat="49.02277" lon="2.0379">
        <ele>45.3</ele>
        <time>2022-03-04T17:10:14Z</time>
      </trkpt>
      <trkpt lat="49.02284" lon="2.03785">
        <ele>45.3</ele>
        <time>2022-03-04T17:10:19Z</time>
      </trkpt>
      <trkpt lat="49.02292" lon="2.0378">
        <ele>45.1</ele>
        <time>2022-03-04T17:10:25Z</time>
      </trkpt>
      <trkpt lat="49.02299" lon="2.03776">
        <ele>44.9</ele>
        <time>2022-03-04T17:10:30Z</time>
      </trkpt>
      <trkpt lat="49.02307" lon="2.03769">
        <ele>44.8</ele>
        <time>2022-03-04T17:10:36Z</time>
      </trkpt>
      <trkpt lat="49.02313" lon="2.03762">
        <ele>45.2</ele>
        <time>2022-03-04T17:10:41Z</time>
      </trkpt>
      <trkpt lat="49.02319" lon="2.03753">
        <ele>45.7</ele>
        <time>2022-03-04T17:10:47Z</time>
      </trkpt>
      <trkpt lat="49.02326" lon="2.03745">
        <ele>45.9</ele>
        <time>2022-03-04T17:10:53Z</time>
      </trkpt>
      <trkpt lat="49.02331" lon="2.03738">
        <ele>46</ele>
        <time>2022-03-04T17:10:58Z</time>
      </trkpt>
      <trkpt lat="49.02338" lon="2.0373">
        <ele>46.3</ele>
        <time>2022-03-04T17:11:04Z</time>
      </trkpt>
      <trkpt lat="49.02345" lon="2.03722">
        <ele>46.6</ele>
        <time>2022-03-04T17:11:10Z</time>
      </trkpt>
      <trkpt lat="49.02352" lon="2.03716">
        <ele>46.7</ele>
        <time>2022-03-04T17:11:15Z</time>
      </trkpt>
      <trkpt lat="49.02358" lon="2.03708">
        <ele>46.7</ele>
        <time>2022-03-04T17:11:21Z</time>
      </trkpt>
      <trkpt lat="49.02364" lon="2.03701">
        <ele>46.6</ele>
        <time>2022-03-04T17:11:26Z</time>
      </trkpt>
      <trkpt lat="49.02371" lon="2.03695">
        <ele>46.6</ele>
        <time>2022-03-04T17:11:31Z</time>
      </trkpt>
      <trkpt lat="49.02379" lon="2.03689">
        <ele>46.6</ele>
        <time>2022-03-04T17:11:37Z</time>
      </trkpt>
      <trkpt lat="49.02386" lon="2.03684">
        <ele>46.5</ele>
        <time>2022-03-04T17:11:43Z</time>
      </trkpt>
      <trkpt lat="49.02392" lon="2.03679">
        <ele>46.4</ele>
        <time>2022-03-04T17:11:49Z</time>
      </trkpt>
      <trkpt lat="49.02399" lon="2.03674">
        <ele>46.4</ele>
        <time>2022-03-04T17:11:55Z</time>
      </trkpt>
      <trkpt lat="49.02407" lon="2.03668">
        <ele>46.3</ele>
        <time>2022-03-04T17:12:01Z</time>
      </trkpt>
      <trkpt lat="49.02415" lon="2.03662">
        <ele>46.4</ele>
        <time>2022-03-04T17:12:07Z</time>
      </trkpt>
      <trkpt lat="49.02421" lon="2.03655">
        <ele>46.6</ele>
        <time>2022-03-04T17:12:13Z</time>
      </trkpt>
      <trkpt lat="49.02428" lon="2.03649">
        <ele>46.6</ele>
        <time>2022-03-04T17:12:19Z</time>
      </trkpt>
      <trkpt lat="49.02433" lon="2.03642">
        <ele>46.7</ele>
        <time>2022-03-04T17:12:24Z</time>
      </trkpt>
      <trkpt lat="49.02438" lon="2.03633">
        <ele>46.9</ele>
        <time>2022-03-04T17:12:30Z</time>
      </trkpt>
      <trkpt lat="49.02443" lon="2.03625">
        <ele>47.1</ele>
        <time>2022-03-04T17:12:36Z</time>
      </trkpt>
      <trkpt lat="49.02448" lon="2.03619">
        <ele>47.2</ele>
        <time>2022-03-04T17:12:41Z</time>
      </trkpt>
      <trkpt lat="49.02453" lon="2.03614">
        <ele>47.2</ele>
        <time>2022-03-04T17:12:46Z</time>
      </trkpt>
      <trkpt lat="49.02457" lon="2.03609">
        <ele>47.3</ele>
        <time>2022-03-04T17:12:51Z</time>
      </trkpt>
      <trkpt lat="49.02459" lon="2.03602">
        <ele>47.7</ele>
        <time>2022-03-04T17:12:57Z</time>
      </trkpt>
      <trkpt lat="49.02458" lon="2.03595">
        <ele>48.5</ele>
        <time>2022-03-04T17:13:03Z</time>
      </trkpt>
      <trkpt lat="49.02453" lon="2.03589">
        <ele>49.5</ele>
        <time>2022-03-04T17:13:09Z</time>
      </trkpt>
      <trkpt lat="49.02449" lon="2.03585">
        <ele>50.3</ele>
        <time>2022-03-04T17:13:14Z</time>
      </trkpt>
      <trkpt lat="49.02444" lon="2.03582">
        <ele>51.2</ele>
        <time>2022-03-04T17:13:20Z</time>
      </trkpt>
      <trkpt lat="49.02439" lon="2.03579">
        <ele>51.7</ele>
        <time>2022-03-04T17:13:25Z</time>
      </trkpt>
      <trkpt lat="49.02432" lon="2.03577">
        <ele>52.5</ele>
        <time>2022-03-04T17:13:31Z</time>
      </trkpt>
      <trkpt lat="49.02429" lon="2.03573">
        <ele>53.3</ele>
        <time>2022-03-04T17:13:37Z</time>
      </trkpt>
      <trkpt lat="49.02428" lon="2.03568">
        <ele>53.9</ele>
        <time>2022-03-04T17:13:42Z</time>
      </trkpt>
      <trkpt lat="49.02432" lon="2.03563">
        <ele>54.1</ele>
        <time>2022-03-04T17:13:48Z</time>
      </trkpt>
      <trkpt lat="49.02437" lon="2.03556">
        <ele>54.1</ele>
        <time>2022-03-04T17:13:53Z</time>
      </trkpt>
      <trkpt lat="49.02444" lon="2.03547">
        <ele>54.3</ele>
        <time>2022-03-04T17:13:59Z</time>
      </trkpt>
      <trkpt lat="49.02451" lon="2.03539">
        <ele>54.7</ele>
        <time>2022-03-04T17:14:04Z</time>
      </trkpt>
      <trkpt lat="49.02459" lon="2.03529">
        <ele>54.8</ele>
        <time>2022-03-04T17:14:10Z</time>
      </trkpt>
      <trkpt lat="49.02465" lon="2.03522">
        <ele>54.5</ele>
        <time>2022-03-04T17:14:15Z</time>
      </trkpt>
      <trkpt lat="49.0247" lon="2.03514">
        <ele>54.3</ele>
        <time>2022-03-04T17:14:20Z</time>
      </trkpt>
      <trkpt lat="49.02474" lon="2.03504">
        <ele>54.6</ele>
        <time>2022-03-04T17:14:26Z</time>
      </trkpt>
      <trkpt lat="49.02475" lon="2.03498">
        <ele>54.9</ele>
        <time>2022-03-04T17:14:31Z</time>
      </trkpt>
      <trkpt lat="49.02475" lon="2.03491">
        <ele>55.1</ele>
        <time>2022-03-04T17:14:36Z</time>
      </trkpt>
      <trkpt lat="49.02474" lon="2.03481">
        <ele>55.5</ele>
        <time>2022-03-04T17:14:42Z</time>
      </trkpt>
      <trkpt lat="49.02474" lon="2.03473">
        <ele>55.9</ele>
        <time>2022-03-04T17:14:47Z</time>
      </trkpt>
      <trkpt lat="49.02473" lon="2.0346">
        <ele>56.4</ele>
        <time>2022-03-04T17:14:53Z</time>
      </trkpt>
      <trkpt lat="49.02472" lon="2.03449">
        <ele>56.8</ele>
        <time>2022-03-04T17:14:59Z</time>
      </trkpt>
      <trkpt lat="49.02472" lon="2.03441">
        <ele>57.1</ele>
        <time>2022-03-04T17:15:05Z</time>
      </trkpt>
      <trkpt lat="49.02472" lon="2.03433">
        <ele>57.4</ele>
        <time>2022-03-04T17:15:10Z</time>
      </trkpt>
      <trkpt lat="49.0247" lon="2.03424">
        <ele>57.9</ele>
        <time>2022-03-04T17:15:16Z</time>
      </trkpt>
      <trkpt lat="49.02468" lon="2.03417">
        <ele>58.3</ele>
        <time>2022-03-04T17:15:21Z</time>
      </trkpt>
      <trkpt lat="49.02465" lon="2.03408">
        <ele>58.8</ele>
        <time>2022-03-04T17:15:26Z</time>
      </trkpt>
      <trkpt lat="49.02464" lon="2.03398">
        <ele>59.3</ele>
        <time>2022-03-04T17:15:32Z</time>
      </trkpt>
      <trkpt lat="49.02463" lon="2.03389">
        <ele>59.6</ele>
        <time>2022-03-04T17:15:37Z</time>
      </trkpt>
      <trkpt lat="49.02463" lon="2.03378">
        <ele>60.3</ele>
        <time>2022-03-04T17:15:43Z</time>
      </trkpt>
      <trkpt lat="49.02465" lon="2.0337">
        <ele>60.5</ele>
        <time>2022-03-04T17:15:48Z</time>
      </trkpt>
      <trkpt lat="49.02468" lon="2.03363">
        <ele>60.5</ele>
        <time>2022-03-04T17:15:54Z</time>
      </trkpt>
      <trkpt lat="49.02471" lon="2.03358">
        <ele>60.8</ele>
        <time>2022-03-04T17:15:59Z</time>
      </trkpt>
      <trkpt lat="49.02475" lon="2.03355">
        <ele>61.1</ele>
        <time>2022-03-04T17:16:05Z</time>
      </trkpt>
      <trkpt lat="49.0248" lon="2.03353">
        <ele>60.9</ele>
        <time>2022-03-04T17:16:10Z</time>
      </trkpt>
      <trkpt lat="49.02485" lon="2.03354">
        <ele>60.3</ele>
        <time>2022-03-04T17:16:15Z</time>
      </trkpt>
      <trkpt lat="49.0249" lon="2.03353">
        <ele>59.9</ele>
        <time>2022-03-04T17:16:20Z</time>
      </trkpt>
      <trkpt lat="49.02497" lon="2.03352">
        <ele>59.3</ele>
        <time>2022-03-04T17:16:25Z</time>
      </trkpt>
      <trkpt lat="49.02505" lon="2.03351">
        <ele>58.8</ele>
        <time>2022-03-04T17:16:31Z</time>
      </trkpt>
      <trkpt lat="49.02512" lon="2.0335">
        <ele>58.4</ele>
        <time>2022-03-04T17:16:36Z</time>
      </trkpt>
      <trkpt lat="49.02521" lon="2.03351">
        <ele>57.6</ele>
        <time>2022-03-04T17:16:42Z</time>
      </trkpt>
      <trkpt lat="49.02529" lon="2.03351">
        <ele>57</ele>
        <time>2022-03-04T17:16:47Z</time>
      </trkpt>
      <trkpt lat="49.02537" lon="2.03351">
        <ele>56.7</ele>
        <time>2022-03-04T17:16:53Z</time>
      </trkpt>
      <trkpt lat="49.02541" lon="2.0335">
        <ele>56.5</ele>
        <time>2022-03-04T17:16:58Z</time>
      </trkpt>
      <trkpt lat="49.02546" lon="2.03346">
        <ele>56.6</ele>
        <time>2022-03-04T17:17:03Z</time>
      </trkpt>
      <trkpt lat="49.02551" lon="2.03339">
        <ele>56.9</ele>
        <time>2022-03-04T17:17:08Z</time>
      </trkpt>
      <trkpt lat="49.02556" lon="2.0333">
        <ele>57.4</ele>
        <time>2022-03-04T17:17:14Z</time>
      </trkpt>
      <trkpt lat="49.02564" lon="2.03322">
        <ele>57.9</ele>
        <time>2022-03-04T17:17:20Z</time>
      </trkpt>
      <trkpt lat="49.02569" lon="2.03315">
        <ele>58.2</ele>
        <time>2022-03-04T17:17:25Z</time>
      </trkpt>
      <trkpt lat="49.02576" lon="2.03305">
        <ele>58.5</ele>
        <time>2022-03-04T17:17:31Z</time>
      </trkpt>
      <trkpt lat="49.02582" lon="2.03298">
        <ele>58.9</ele>
        <time>2022-03-04T17:17:36Z</time>
      </trkpt>
      <trkpt lat="49.02588" lon="2.03289">
        <ele>59.7</ele>
        <time>2022-03-04T17:17:42Z</time>
      </trkpt>
      <trkpt lat="49.02593" lon="2.0328">
        <ele>60.4</ele>
        <time>2022-03-04T17:17:47Z</time>
      </trkpt>
      <trkpt lat="49.02599" lon="2.03273">
        <ele>61.1</ele>
        <time>2022-03-04T17:17:53Z</time>
      </trkpt>
      <trkpt lat="49.02605" lon="2.03266">
        <ele>61.7</ele>
        <time>2022-03-04T17:17:59Z</time>
      </trkpt>
      <trkpt lat="49.02609" lon="2.03258">
        <ele>62.3</ele>
        <time>2022-03-04T17:18:05Z</time>
      </trkpt>
      <trkpt lat="49.02613" lon="2.03251">
        <ele>62.8</ele>
        <time>2022-03-04T17:18:10Z</time>
      </trkpt>
      <trkpt lat="49.02618" lon="2.03242">
        <ele>64.2</ele>
        <time>2022-03-04T17:18:16Z</time>
      </trkpt>
      <trkpt lat="49.02622" lon="2.03232">
        <ele>65.5</ele>
        <time>2022-03-04T17:18:22Z</time>
      </trkpt>
      <trkpt lat="49.02625" lon="2.03225">
        <ele>66.2</ele>
        <time>2022-03-04T17:18:27Z</time>
      </trkpt>
      <trkpt lat="49.02628" lon="2.03219">
        <ele>66.7</ele>
        <time>2022-03-04T17:18:33Z</time>
      </trkpt>
      <trkpt lat="49.02632" lon="2.03216">
        <ele>66.8</ele>
        <time>2022-03-04T17:18:38Z</time>
      </trkpt>
      <trkpt lat="49.02638" lon="2.03212">
        <ele>66.5</ele>
        <time>2022-03-04T17:18:44Z</time>
      </trkpt>
      <trkpt lat="49.02644" lon="2.03208">
        <ele>66.5</ele>
        <time>2022-03-04T17:18:49Z</time>
      </trkpt>
      <trkpt lat="49.0265" lon="2.03204">
        <ele>66.3</ele>
        <time>2022-03-04T17:18:54Z</time>
      </trkpt>
      <trkpt lat="49.02657" lon="2.03199">
        <ele>66</ele>
        <time>2022-03-04T17:18:59Z</time>
      </trkpt>
      <trkpt lat="49.02665" lon="2.03194">
        <ele>65.4</ele>
        <time>2022-03-04T17:19:05Z</time>
      </trkpt>
      <trkpt lat="49.02671" lon="2.03191">
        <ele>65.5</ele>
        <time>2022-03-04T17:19:10Z</time>
      </trkpt>
      <trkpt lat="49.02676" lon="2.03189">
        <ele>65.5</ele>
        <time>2022-03-04T17:19:15Z</time>
      </trkpt>
      <trkpt lat="49.02682" lon="2.03186">
        <ele>65.3</ele>
        <time>2022-03-04T17:19:21Z</time>
      </trkpt>
      <trkpt lat="49.02689" lon="2.03184">
        <ele>64.8</ele>
        <time>2022-03-04T17:19:27Z</time>
      </trkpt>
      <trkpt lat="49.02697" lon="2.03181">
        <ele>64.3</ele>
        <time>2022-03-04T17:19:32Z</time>
      </trkpt>
      <trkpt lat="49.02704" lon="2.03177">
        <ele>64</ele>
        <time>2022-03-04T17:19:38Z</time>
      </trkpt>
      <trkpt lat="49.02712" lon="2.03176">
        <ele>63.4</ele>
        <time>2022-03-04T17:19:43Z</time>
      </trkpt>
      <trkpt lat="49.02721" lon="2.03177">
        <ele>62.4</ele>
        <time>2022-03-04T17:19:49Z</time>
      </trkpt>
      <trkpt lat="49.0273" lon="2.03178">
        <ele>62.1</ele>
        <time>2022-03-04T17:19:55Z</time>
      </trkpt>
      <trkpt lat="49.02739" lon="2.0318">
        <ele>61.8</ele>
        <time>2022-03-04T17:20:01Z</time>
      </trkpt>
      <trkpt lat="49.02744" lon="2.03183">
        <ele>61.4</ele>
        <time>2022-03-04T17:20:06Z</time>
      </trkpt>
      <trkpt lat="49.02752" lon="2.03185">
        <ele>60.9</ele>
        <time>2022-03-04T17:20:12Z</time>
      </trkpt>
      <trkpt lat="49.0276" lon="2.03187">
        <ele>60.5</ele>
        <time>2022-03-04T17:20:17Z</time>
      </trkpt>
      <trkpt lat="49.02769" lon="2.03187">
        <ele>60.2</ele>
        <time>2022-03-04T17:20:23Z</time>
      </trkpt>
      <trkpt lat="49.02774" lon="2.03185">
        <ele>60.1</ele>
        <time>2022-03-04T17:20:28Z</time>
      </trkpt>
      <trkpt lat="49.0278" lon="2.03177">
        <ele>60</ele>
        <time>2022-03-04T17:20:34Z</time>
      </trkpt>
      <trkpt lat="49.02786" lon="2.03168">
        <ele>60</ele>
        <time>2022-03-04T17:20:40Z</time>
      </trkpt>
      <trkpt lat="49.02793" lon="2.03162">
        <ele>60.2</ele>
        <time>2022-03-04T17:20:45Z</time>
      </trkpt>
      <trkpt lat="49.02802" lon="2.03158">
        <ele>60.4</ele>
        <time>2022-03-04T17:20:51Z</time>
      </trkpt>
      <trkpt lat="49.02809" lon="2.03155">
        <ele>60.4</ele>
        <time>2022-03-04T17:20:57Z</time>
      </trkpt>
      <trkpt lat="49.02817" lon="2.03151">
        <ele>60.5</ele>
        <time>2022-03-04T17:21:02Z</time>
      </trkpt>
      <trkpt lat="49.02823" lon="2.03148">
        <ele>60.7</ele>
        <time>2022-03-04T17:21:07Z</time>
      </trkpt>
      <trkpt lat="49.02831" lon="2.03143">
        <ele>60.8</ele>
        <time>2022-03-04T17:21:13Z</time>
      </trkpt>
      <trkpt lat="49.02837" lon="2.03141">
        <ele>60.8</ele>
        <time>2022-03-04T17:21:18Z</time>
      </trkpt>
      <trkpt lat="49.02844" lon="2.03136">
        <ele>60.7</ele>
        <time>2022-03-04T17:21:23Z</time>
      </trkpt>
      <trkpt lat="49.0285" lon="2.03132">
        <ele>60.6</ele>
        <time>2022-03-04T17:21:28Z</time>
      </trkpt>
      <trkpt lat="49.02857" lon="2.03127">
        <ele>60.6</ele>
        <time>2022-03-04T17:21:34Z</time>
      </trkpt>
      <trkpt lat="49.02865" lon="2.03122">
        <ele>60.5</ele>
        <time>2022-03-04T17:21:40Z</time>
      </trkpt>
      <trkpt lat="49.02872" lon="2.03116">
        <ele>60.4</ele>
        <time>2022-03-04T17:21:46Z</time>
      </trkpt>
      <trkpt lat="49.0288" lon="2.03114">
        <ele>60.2</ele>
        <time>2022-03-04T17:21:52Z</time>
      </trkpt>
      <trkpt lat="49.02889" lon="2.03111">
        <ele>60</ele>
        <time>2022-03-04T17:21:58Z</time>
      </trkpt>
      <trkpt lat="49.02897" lon="2.03108">
        <ele>60.2</ele>
        <time>2022-03-04T17:22:03Z</time>
      </trkpt>
      <trkpt lat="49.02906" lon="2.03105">
        <ele>60.5</ele>
        <time>2022-03-04T17:22:09Z</time>
      </trkpt>
      <trkpt lat="49.02913" lon="2.03101">
        <ele>60.7</ele>
        <time>2022-03-04T17:22:14Z</time>
      </trkpt>
      <trkpt lat="49.02921" lon="2.03098">
        <ele>60.9</ele>
        <time>2022-03-04T17:22:20Z</time>
      </trkpt>
      <trkpt lat="49.02927" lon="2.03095">
        <ele>61</ele>
        <time>2022-03-04T17:22:25Z</time>
      </trkpt>
      <trkpt lat="49.02932" lon="2.03093">
        <ele>61.1</ele>
        <time>2022-03-04T17:22:30Z</time>
      </trkpt>
      <trkpt lat="49.02938" lon="2.03093">
        <ele>61</ele>
        <time>2022-03-04T17:22:36Z</time>
      </trkpt>
      <trkpt lat="49.02943" lon="2.03092">
        <ele>61</ele>
        <time>2022-03-04T17:22:41Z</time>
      </trkpt>
      <trkpt lat="49.0295" lon="2.03089">
        <ele>61.1</ele>
        <time>2022-03-04T17:22:47Z</time>
      </trkpt>
      <trkpt lat="49.02959" lon="2.03085">
        <ele>61.3</ele>
        <time>2022-03-04T17:22:53Z</time>
      </trkpt>
      <trkpt lat="49.02966" lon="2.03082">
        <ele>61.3</ele>
        <time>2022-03-04T17:22:58Z</time>
      </trkpt>
      <trkpt lat="49.02975" lon="2.03081">
        <ele>61.1</ele>
        <time>2022-03-04T17:23:04Z</time>
      </trkpt>
      <trkpt lat="49.02984" lon="2.0308">
        <ele>60.9</ele>
        <time>2022-03-04T17:23:10Z</time>
      </trkpt>
      <trkpt lat="49.02991" lon="2.03078">
        <ele>60.8</ele>
        <time>2022-03-04T17:23:15Z</time>
      </trkpt>
      <trkpt lat="49.03" lon="2.03078">
        <ele>60.5</ele>
        <time>2022-03-04T17:23:21Z</time>
      </trkpt>
      <trkpt lat="49.03007" lon="2.03077">
        <ele>60.2</ele>
        <time>2022-03-04T17:23:26Z</time>
      </trkpt>
      <trkpt lat="49.03014" lon="2.03073">
        <ele>60.1</ele>
        <time>2022-03-04T17:23:32Z</time>
      </trkpt>
      <trkpt lat="49.03021" lon="2.03071">
        <ele>59.8</ele>
        <time>2022-03-04T17:23:37Z</time>
      </trkpt>
      <trkpt lat="49.03029" lon="2.03068">
        <ele>59.6</ele>
        <time>2022-03-04T17:23:43Z</time>
      </trkpt>
      <trkpt lat="49.03036" lon="2.03065">
        <ele>59.8</ele>
        <time>2022-03-04T17:23:48Z</time>
      </trkpt>
      <trkpt lat="49.03044" lon="2.0306">
        <ele>60</ele>
        <time>2022-03-04T17:23:54Z</time>
      </trkpt>
      <trkpt lat="49.03053" lon="2.03057">
        <ele>60</ele>
        <time>2022-03-04T17:24:00Z</time>
      </trkpt>
      <trkpt lat="49.0306" lon="2.03054">
        <ele>60.2</ele>
        <time>2022-03-04T17:24:05Z</time>
      </trkpt>
      <trkpt lat="49.03069" lon="2.03052">
        <ele>60.4</ele>
        <time>2022-03-04T17:24:11Z</time>
      </trkpt>
      <trkpt lat="49.03078" lon="2.03051">
        <ele>60.5</ele>
        <time>2022-03-04T17:24:17Z</time>
      </trkpt>
      <trkpt lat="49.03085" lon="2.0305">
        <ele>60.6</ele>
        <time>2022-03-04T17:24:22Z</time>
      </trkpt>
      <trkpt lat="49.0309" lon="2.03049">
        <ele>60.7</ele>
        <time>2022-03-04T17:24:28Z</time>
      </trkpt>
      <trkpt lat="49.03096" lon="2.0305">
        <ele>60.6</ele>
        <time>2022-03-04T17:24:33Z</time>
      </trkpt>
      <trkpt lat="49.03107" lon="2.03051">
        <ele>60.5</ele>
        <time>2022-03-04T17:24:39Z</time>
      </trkpt>
      <trkpt lat="49.03116" lon="2.03054">
        <ele>60.2</ele>
        <time>2022-03-04T17:24:45Z</time>
      </trkpt>
      <trkpt lat="49.03125" lon="2.03057">
        <ele>59.9</ele>
        <time>2022-03-04T17:24:51Z</time>
      </trkpt>
      <trkpt lat="49.03134" lon="2.03061">
        <ele>59.5</ele>
        <time>2022-03-04T17:24:56Z</time>
      </trkpt>
      <trkpt lat="49.03143" lon="2.03064">
        <ele>59.1</ele>
        <time>2022-03-04T17:25:02Z</time>
      </trkpt>
      <trkpt lat="49.03146" lon="2.03064">
        <ele>59.1</ele>
        <time>2022-03-04T17:25:07Z</time>
      </trkpt>
      <trkpt lat="49.03144" lon="2.03064">
        <ele>59.2</ele>
        <time>2022-03-04T17:25:13Z</time>
      </trkpt>
      <trkpt lat="49.03139" lon="2.03064">
        <ele>59.1</ele>
        <time>2022-03-04T17:25:19Z</time>
      </trkpt>
      <trkpt lat="49.03136" lon="2.03068">
        <ele>58.7</ele>
        <time>2022-03-04T17:25:24Z</time>
      </trkpt>
      <trkpt lat="49.03135" lon="2.03077">
        <ele>57.7</ele>
        <time>2022-03-04T17:25:30Z</time>
      </trkpt>
      <trkpt lat="49.03134" lon="2.03089">
        <ele>56.7</ele>
        <time>2022-03-04T17:25:36Z</time>
      </trkpt>
      <trkpt lat="49.03133" lon="2.03099">
        <ele>56</ele>
        <time>2022-03-04T17:25:41Z</time>
      </trkpt>
      <trkpt lat="49.03133" lon="2.03111">
        <ele>55</ele>
        <time>2022-03-04T17:25:47Z</time>
      </trkpt>
      <trkpt lat="49.03133" lon="2.03122">
        <ele>54.3</ele>
        <time>2022-03-04T17:25:52Z</time>
      </trkpt>
      <trkpt lat="49.03133" lon="2.03133">
        <ele>53.6</ele>
        <time>2022-03-04T17:25:57Z</time>
      </trkpt>
      <trkpt lat="49.03133" lon="2.03145">
        <ele>53</ele>
        <time>2022-03-04T17:26:03Z</time>
      </trkpt>
      <trkpt lat="49.03133" lon="2.03153">
        <ele>52.6</ele>
        <time>2022-03-04T17:26:08Z</time>
      </trkpt>
      <trkpt lat="49.03131" lon="2.03165">
        <ele>52.1</ele>
        <time>2022-03-04T17:26:14Z</time>
      </trkpt>
      <trkpt lat="49.03132" lon="2.03173">
        <ele>51.6</ele>
        <time>2022-03-04T17:26:19Z</time>
      </trkpt>
      <trkpt lat="49.03135" lon="2.03178">
        <ele>51.2</ele>
        <time>2022-03-04T17:26:24Z</time>
      </trkpt>
      <trkpt lat="49.03141" lon="2.03181">
        <ele>50.9</ele>
        <time>2022-03-04T17:26:30Z</time>
      </trkpt>
      <trkpt lat="49.03147" lon="2.0318">
        <ele>50.9</ele>
        <time>2022-03-04T17:26:35Z</time>
      </trkpt>
      <trkpt lat="49.03157" lon="2.03178">
        <ele>50.8</ele>
        <time>2022-03-04T17:26:41Z</time>
      </trkpt>
      <trkpt lat="49.03165" lon="2.0318">
        <ele>50.5</ele>
        <time>2022-03-04T17:26:46Z</time>
      </trkpt>
      <trkpt lat="49.03175" lon="2.03185">
        <ele>50.3</ele>
        <time>2022-03-04T17:26:52Z</time>
      </trkpt>
      <trkpt lat="49.03183" lon="2.03189">
        <ele>50.2</ele>
        <time>2022-03-04T17:26:57Z</time>
      </trkpt>
      <trkpt lat="49.03192" lon="2.0319">
        <ele>50.2</ele>
        <time>2022-03-04T17:27:03Z</time>
      </trkpt>
      <trkpt lat="49.03199" lon="2.03189">
        <ele>50.2</ele>
        <time>2022-03-04T17:27:08Z</time>
      </trkpt>
      <trkpt lat="49.03209" lon="2.03189">
        <ele>50.2</ele>
        <time>2022-03-04T17:27:14Z</time>
      </trkpt>
      <trkpt lat="49.03217" lon="2.03189">
        <ele>50.2</ele>
        <time>2022-03-04T17:27:20Z</time>
      </trkpt>
      <trkpt lat="49.03226" lon="2.03189">
        <ele>50.2</ele>
        <time>2022-03-04T17:27:26Z</time>
      </trkpt>
      <trkpt lat="49.03234" lon="2.03187">
        <ele>50.3</ele>
        <time>2022-03-04T17:27:32Z</time>
      </trkpt>
      <trkpt lat="49.03241" lon="2.03185">
        <ele>50.3</ele>
        <time>2022-03-04T17:27:37Z</time>
      </trkpt>
      <trkpt lat="49.03248" lon="2.03184">
        <ele>50.4</ele>
        <time>2022-03-04T17:27:42Z</time>
      </trkpt>
      <trkpt lat="49.03257" lon="2.03183">
        <ele>50.5</ele>
        <time>2022-03-04T17:27:48Z</time>
      </trkpt>
      <trkpt lat="49.03265" lon="2.03181">
        <ele>50.8</ele>
        <time>2022-03-04T17:27:53Z</time>
      </trkpt>
      <trkpt lat="49.03272" lon="2.03179">
        <ele>50.9</ele>
        <time>2022-03-04T17:27:59Z</time>
      </trkpt>
      <trkpt lat="49.03277" lon="2.03177">
        <ele>51</ele>
        <time>2022-03-04T17:28:04Z</time>
      </trkpt>
      <trkpt lat="49.03284" lon="2.03174">
        <ele>51.2</ele>
        <time>2022-03-04T17:28:10Z</time>
      </trkpt>
      <trkpt lat="49.03292" lon="2.03171">
        <ele>51.4</ele>
        <time>2022-03-04T17:28:16Z</time>
      </trkpt>
      <trkpt lat="49.03298" lon="2.03169">
        <ele>51.7</ele>
        <time>2022-03-04T17:28:21Z</time>
      </trkpt>
      <trkpt lat="49.03308" lon="2.03168">
        <ele>52</ele>
        <time>2022-03-04T17:28:27Z</time>
      </trkpt>
      <trkpt lat="49.03315" lon="2.03167">
        <ele>52</ele>
        <time>2022-03-04T17:28:32Z</time>
      </trkpt>
      <trkpt lat="49.03324" lon="2.03165">
        <ele>52.1</ele>
        <time>2022-03-04T17:28:38Z</time>
      </trkpt>
      <trkpt lat="49.0333" lon="2.03164">
        <ele>52.3</ele>
        <time>2022-03-04T17:28:43Z</time>
      </trkpt>
      <trkpt lat="49.03336" lon="2.03162">
        <ele>52.4</ele>
        <time>2022-03-04T17:28:49Z</time>
      </trkpt>
      <trkpt lat="49.03341" lon="2.03164">
        <ele>51.8</ele>
        <time>2022-03-04T17:28:54Z</time>
      </trkpt>
      <trkpt lat="49.03351" lon="2.03164">
        <ele>51.1</ele>
        <time>2022-03-04T17:29:00Z</time>
      </trkpt>
      <trkpt lat="49.03358" lon="2.03163">
        <ele>50.7</ele>
        <time>2022-03-04T17:29:05Z</time>
      </trkpt>
      <trkpt lat="49.03362" lon="2.0316">
        <ele>50.7</ele>
        <time>2022-03-04T17:29:10Z</time>
      </trkpt>
      <trkpt lat="49.03364" lon="2.03157">
        <ele>51</ele>
        <time>2022-03-04T17:29:16Z</time>
      </trkpt>
      <trkpt lat="49.03362" lon="2.03156">
        <ele>51.1</ele>
        <time>2022-03-04T17:29:21Z</time>
      </trkpt>
      <trkpt lat="49.0336" lon="2.03155">
        <ele>51.4</ele>
        <time>2022-03-04T17:29:27Z</time>
      </trkpt>
      <trkpt lat="49.03361" lon="2.03153">
        <ele>51.5</ele>
        <time>2022-03-04T17:29:32Z</time>
      </trkpt>
      <trkpt lat="49.03362" lon="2.03151">
        <ele>51.7</ele>
        <time>2022-03-04T17:29:38Z</time>
      </trkpt>
      <trkpt lat="49.03363" lon="2.03148">
        <ele>52</ele>
        <time>2022-03-04T17:29:43Z</time>
      </trkpt>
      <trkpt lat="49.03363" lon="2.03149">
        <ele>51.9</ele>
        <time>2022-03-04T17:29:49Z</time>
      </trkpt>
      <trkpt lat="49.03363" lon="2.03149">
        <ele>51.8</ele>
        <time>2022-03-04T17:29:55Z</time>
      </trkpt>
      <trkpt lat="49.03363" lon="2.03149">
        <ele>51.9</ele>
        <time>2022-03-04T17:30:00Z</time>
      </trkpt>
      <trkpt lat="49.03362" lon="2.0315">
        <ele>51.8</ele>
        <time>2022-03-04T17:30:05Z</time>
      </trkpt>
      <trkpt lat="49.03363" lon="2.03149">
        <ele>51.9</ele>
        <time>2022-03-04T17:30:10Z</time>
      </trkpt>
      <trkpt lat="49.03365" lon="2.03143">
        <ele>52.4</ele>
        <time>2022-03-04T17:30:16Z</time>
      </trkpt>
      <trkpt lat="49.03366" lon="2.03142">
        <ele>52.5</ele>
        <time>2022-03-04T17:30:21Z</time>
      </trkpt>
      <trkpt lat="49.03366" lon="2.03141">
        <ele>52.6</ele>
        <time>2022-03-04T17:30:27Z</time>
      </trkpt>
      <trkpt lat="49.03366" lon="2.03141">
        <ele>52.6</ele>
        <time>2022-03-04T17:30:32Z</time>
      </trkpt>
      <trkpt lat="49.03366" lon="2.03141">
        <ele>52.6</ele>
        <time>2022-03-04T17:30:37Z</time>
      </trkpt>
      <trkpt lat="49.03366" lon="2.03143">
        <ele>52.4</ele>
        <time>2022-03-04T17:30:43Z</time>
      </trkpt>
      <trkpt lat="49.03367" lon="2.03148">
        <ele>51.9</ele>
        <time>2022-03-04T17:30:48Z</time>
      </trkpt>
      <trkpt lat="49.03366" lon="2.03154">
        <ele>51.2</ele>
        <time>2022-03-04T17:30:54Z</time>
      </trkpt>
      <trkpt lat="49.03368" lon="2.03157">
        <ele>51</ele>
        <time>2022-03-04T17:30:59Z</time>
      </trkpt>
      <trkpt lat="49.03375" lon="2.03158">
        <ele>50.7</ele>
        <time>2022-03-04T17:31:05Z</time>
      </trkpt>
      <trkpt lat="49.03381" lon="2.03158">
        <ele>50.7</ele>
        <time>2022-03-04T17:31:10Z</time>
      </trkpt>
      <trkpt lat="49.03388" lon="2.03154">
        <ele>50.9</ele>
        <time>2022-03-04T17:31:16Z</time>
      </trkpt>
      <trkpt lat="49.03396" lon="2.03151">
        <ele>50.6</ele>
        <time>2022-03-04T17:31:21Z</time>
      </trkpt>
      <trkpt lat="49.03403" lon="2.03146">
        <ele>50.3</ele>
        <time>2022-03-04T17:31:26Z</time>
      </trkpt>
      <trkpt lat="49.03411" lon="2.03137">
        <ele>49.7</ele>
        <time>2022-03-04T17:31:32Z</time>
      </trkpt>
      <trkpt lat="49.03418" lon="2.03133">
        <ele>49.2</ele>
        <time>2022-03-04T17:31:38Z</time>
      </trkpt>
      <trkpt lat="49.03424" lon="2.03132">
        <ele>48.7</ele>
        <time>2022-03-04T17:31:43Z</time>
      </trkpt>
      <trkpt lat="49.03432" lon="2.03134">
        <ele>48.1</ele>
        <time>2022-03-04T17:31:49Z</time>
      </trkpt>
      <trkpt lat="49.03439" lon="2.03134">
        <ele>47.6</ele>
        <time>2022-03-04T17:31:54Z</time>
      </trkpt>
      <trkpt lat="49.03445" lon="2.03133">
        <ele>47.1</ele>
        <time>2022-03-04T17:31:59Z</time>
      </trkpt>
      <trkpt lat="49.03451" lon="2.03133">
        <ele>46.3</ele>
        <time>2022-03-04T17:32:04Z</time>
      </trkpt>
      <trkpt lat="49.03456" lon="2.03133">
        <ele>45.7</ele>
        <time>2022-03-04T17:32:09Z</time>
      </trkpt>
      <trkpt lat="49.03462" lon="2.03125">
        <ele>45.2</ele>
        <time>2022-03-04T17:32:15Z</time>
      </trkpt>
      <trkpt lat="49.03469" lon="2.03114">
        <ele>45.2</ele>
        <time>2022-03-04T17:32:21Z</time>
      </trkpt>
      <trkpt lat="49.03475" lon="2.03102">
        <ele>44.9</ele>
        <time>2022-03-04T17:32:27Z</time>
      </trkpt>
      <trkpt lat="49.03479" lon="2.03095">
        <ele>44.7</ele>
        <time>2022-03-04T17:32:32Z</time>
      </trkpt>
      <trkpt lat="49.03483" lon="2.03088">
        <ele>44.5</ele>
        <time>2022-03-04T17:32:38Z</time>
      </trkpt>
      <trkpt lat="49.03488" lon="2.03079">
        <ele>44.8</ele>
        <time>2022-03-04T17:32:44Z</time>
      </trkpt>
      <trkpt lat="49.03491" lon="2.03071">
        <ele>45.3</ele>
        <time>2022-03-04T17:32:49Z</time>
      </trkpt>
      <trkpt lat="49.03496" lon="2.03059">
        <ele>46</ele>
        <time>2022-03-04T17:32:55Z</time>
      </trkpt>
      <trkpt lat="49.03499" lon="2.03049">
        <ele>46.3</ele>
        <time>2022-03-04T17:33:00Z</time>
      </trkpt>
      <trkpt lat="49.035" lon="2.0304">
        <ele>46.6</ele>
        <time>2022-03-04T17:33:06Z</time>
      </trkpt>
      <trkpt lat="49.035" lon="2.03037">
        <ele>46.7</ele>
        <time>2022-03-04T17:33:12Z</time>
      </trkpt>
      <trkpt lat="49.035" lon="2.03038">
        <ele>46.7</ele>
        <time>2022-03-04T17:33:18Z</time>
      </trkpt>
      <trkpt lat="49.035" lon="2.03039">
        <ele>46.6</ele>
        <time>2022-03-04T17:33:24Z</time>
      </trkpt>
      <trkpt lat="49.035" lon="2.0304">
        <ele>46.6</ele>
        <time>2022-03-04T17:33:29Z</time>
      </trkpt>
      <trkpt lat="49.03501" lon="2.03039">
        <ele>46.6</ele>
        <time>2022-03-04T17:33:34Z</time>
      </trkpt>
      <trkpt lat="49.03503" lon="2.03035">
        <ele>46.5</ele>
        <time>2022-03-04T17:33:39Z</time>
      </trkpt>
      <trkpt lat="49.03504" lon="2.03027">
        <ele>46.6</ele>
        <time>2022-03-04T17:33:45Z</time>
      </trkpt>
      <trkpt lat="49.03503" lon="2.03016">
        <ele>47</ele>
        <time>2022-03-04T17:33:51Z</time>
      </trkpt>
      <trkpt lat="49.03501" lon="2.03007">
        <ele>47.5</ele>
        <time>2022-03-04T17:33:56Z</time>
      </trkpt>
      <trkpt lat="49.035" lon="2.02998">
        <ele>48</ele>
        <time>2022-03-04T17:34:02Z</time>
      </trkpt>
      <trkpt lat="49.03498" lon="2.02993">
        <ele>48.3</ele>
        <time>2022-03-04T17:34:07Z</time>
      </trkpt>
      <trkpt lat="49.03496" lon="2.02987">
        <ele>48.6</ele>
        <time>2022-03-04T17:34:13Z</time>
      </trkpt>
      <trkpt lat="49.03493" lon="2.02985">
        <ele>49</ele>
        <time>2022-03-04T17:34:19Z</time>
      </trkpt>
      <trkpt lat="49.03492" lon="2.02986">
        <ele>49.2</ele>
        <time>2022-03-04T17:34:24Z</time>
      </trkpt>
      <trkpt lat="49.03492" lon="2.02987">
        <ele>49.2</ele>
        <time>2022-03-04T17:34:30Z</time>
      </trkpt>
      <trkpt lat="49.03492" lon="2.02988">
        <ele>49.1</ele>
        <time>2022-03-04T17:34:35Z</time>
      </trkpt>
      <trkpt lat="49.03493" lon="2.02988">
        <ele>49</ele>
        <time>2022-03-04T17:34:40Z</time>
      </trkpt>
      <trkpt lat="49.03495" lon="2.02988">
        <ele>48.7</ele>
        <time>2022-03-04T17:34:46Z</time>
      </trkpt>
      <trkpt lat="49.03497" lon="2.02986">
        <ele>48.4</ele>
        <time>2022-03-04T17:34:51Z</time>
      </trkpt>
      <trkpt lat="49.03499" lon="2.02985">
        <ele>48.1</ele>
        <time>2022-03-04T17:34:57Z</time>
      </trkpt>
      <trkpt lat="49.035" lon="2.02985">
        <ele>48</ele>
        <time>2022-03-04T17:35:03Z</time>
      </trkpt>
      <trkpt lat="49.03502" lon="2.02983">
        <ele>47.8</ele>
        <time>2022-03-04T17:35:08Z</time>
      </trkpt>
      <trkpt lat="49.03507" lon="2.02982">
        <ele>47.4</ele>
        <time>2022-03-04T17:35:14Z</time>
      </trkpt>
      <trkpt lat="49.03513" lon="2.02977">
        <ele>47.2</ele>
        <time>2022-03-04T17:35:20Z</time>
      </trkpt>
      <trkpt lat="49.03517" lon="2.02974">
        <ele>47.3</ele>
        <time>2022-03-04T17:35:25Z</time>
      </trkpt>
      <trkpt lat="49.0352" lon="2.02971">
        <ele>47.1</ele>
        <time>2022-03-04T17:35:31Z</time>
      </trkpt>
      <trkpt lat="49.03522" lon="2.02971">
        <ele>47</ele>
        <time>2022-03-04T17:35:36Z</time>
      </trkpt>
      <trkpt lat="49.03524" lon="2.0297">
        <ele>46.6</ele>
        <time>2022-03-04T17:35:42Z</time>
      </trkpt>
      <trkpt lat="49.0353" lon="2.02969">
        <ele>46.1</ele>
        <time>2022-03-04T17:35:48Z</time>
      </trkpt>
      <trkpt lat="49.03539" lon="2.02969">
        <ele>45.5</ele>
        <time>2022-03-04T17:35:53Z</time>
      </trkpt>
      <trkpt lat="49.03549" lon="2.02968">
        <ele>44.7</ele>
        <time>2022-03-04T17:35:58Z</time>
      </trkpt>
      <trkpt lat="49.03562" lon="2.02968">
        <ele>42.7</ele>
        <time>2022-03-04T17:36:04Z</time>
      </trkpt>
      <trkpt lat="49.03573" lon="2.02969">
        <ele>39.7</ele>
        <time>2022-03-04T17:36:10Z</time>
      </trkpt>
      <trkpt lat="49.03585" lon="2.02971">
        <ele>37.4</ele>
        <time>2022-03-04T17:36:16Z</time>
      </trkpt>
      <trkpt lat="49.03592" lon="2.02972">
        <ele>39.6</ele>
        <time>2022-03-04T17:36:21Z</time>
      </trkpt>
      <trkpt lat="49.036" lon="2.02976">
        <ele>41.5</ele>
        <time>2022-03-04T17:36:27Z</time>
      </trkpt>
      <trkpt lat="49.03609" lon="2.0298">
        <ele>43.2</ele>
        <time>2022-03-04T17:36:33Z</time>
      </trkpt>
      <trkpt lat="49.03617" lon="2.02985">
        <ele>43.1</ele>
        <time>2022-03-04T17:36:38Z</time>
      </trkpt>
      <trkpt lat="49.03626" lon="2.02991">
        <ele>43.4</ele>
        <time>2022-03-04T17:36:44Z</time>
      </trkpt>
      <trkpt lat="49.03632" lon="2.02997">
        <ele>44.4</ele>
        <time>2022-03-04T17:36:49Z</time>
      </trkpt>
      <trkpt lat="49.03638" lon="2.03003">
        <ele>45.4</ele>
        <time>2022-03-04T17:36:55Z</time>
      </trkpt>
      <trkpt lat="49.03645" lon="2.03012">
        <ele>45.2</ele>
        <time>2022-03-04T17:37:01Z</time>
      </trkpt>
      <trkpt lat="49.0365" lon="2.0302">
        <ele>45.1</ele>
        <time>2022-03-04T17:37:06Z</time>
      </trkpt>
      <trkpt lat="49.03655" lon="2.03031">
        <ele>45.5</ele>
        <time>2022-03-04T17:37:12Z</time>
      </trkpt>
      <trkpt lat="49.03659" lon="2.03041">
        <ele>46.4</ele>
        <time>2022-03-04T17:37:17Z</time>
      </trkpt>
      <trkpt lat="49.03664" lon="2.03052">
        <ele>47.4</ele>
        <time>2022-03-04T17:37:23Z</time>
      </trkpt>
      <trkpt lat="49.03668" lon="2.0306">
        <ele>48.1</ele>
        <time>2022-03-04T17:37:28Z</time>
      </trkpt>
      <trkpt lat="49.03672" lon="2.03069">
        <ele>48.8</ele>
        <time>2022-03-04T17:37:34Z</time>
      </trkpt>
      <trkpt lat="49.03675" lon="2.03079">
        <ele>49.3</ele>
        <time>2022-03-04T17:37:40Z</time>
      </trkpt>
      <trkpt lat="49.03678" lon="2.03091">
        <ele>50</ele>
        <time>2022-03-04T17:37:46Z</time>
      </trkpt>
      <trkpt lat="49.0368" lon="2.03102">
        <ele>50.8</ele>
        <time>2022-03-04T17:37:51Z</time>
      </trkpt>
      <trkpt lat="49.03683" lon="2.03115">
        <ele>51.4</ele>
        <time>2022-03-04T17:37:57Z</time>
      </trkpt>
      <trkpt lat="49.03685" lon="2.03125">
        <ele>51.7</ele>
        <time>2022-03-04T17:38:02Z</time>
      </trkpt>
      <trkpt lat="49.03687" lon="2.03137">
        <ele>52</ele>
        <time>2022-03-04T17:38:08Z</time>
      </trkpt>
      <trkpt lat="49.03688" lon="2.03147">
        <ele>52.1</ele>
        <time>2022-03-04T17:38:13Z</time>
      </trkpt>
      <trkpt lat="49.03689" lon="2.03158">
        <ele>52.1</ele>
        <time>2022-03-04T17:38:18Z</time>
      </trkpt>
      <trkpt lat="49.03691" lon="2.03168">
        <ele>52.1</ele>
        <time>2022-03-04T17:38:23Z</time>
      </trkpt>
      <trkpt lat="49.03692" lon="2.0318">
        <ele>51.6</ele>
        <time>2022-03-04T17:38:29Z</time>
      </trkpt>
      <trkpt lat="49.03694" lon="2.0319">
        <ele>51.2</ele>
        <time>2022-03-04T17:38:34Z</time>
      </trkpt>
      <trkpt lat="49.03696" lon="2.03202">
        <ele>51.5</ele>
        <time>2022-03-04T17:38:40Z</time>
      </trkpt>
      <trkpt lat="49.03697" lon="2.03213">
        <ele>52</ele>
        <time>2022-03-04T17:38:45Z</time>
      </trkpt>
      <trkpt lat="49.03698" lon="2.03226">
        <ele>52.4</ele>
        <time>2022-03-04T17:38:51Z</time>
      </trkpt>
      <trkpt lat="49.037" lon="2.03241">
        <ele>52.7</ele>
        <time>2022-03-04T17:38:57Z</time>
      </trkpt>
      <trkpt lat="49.03701" lon="2.03254">
        <ele>53.3</ele>
        <time>2022-03-04T17:39:03Z</time>
      </trkpt>
      <trkpt lat="49.03703" lon="2.03268">
        <ele>54.1</ele>
        <time>2022-03-04T17:39:09Z</time>
      </trkpt>
      <trkpt lat="49.03705" lon="2.03282">
        <ele>54.5</ele>
        <time>2022-03-04T17:39:15Z</time>
      </trkpt>
      <trkpt lat="49.03708" lon="2.03295">
        <ele>54.2</ele>
        <time>2022-03-04T17:39:21Z</time>
      </trkpt>
      <trkpt lat="49.03712" lon="2.03308">
        <ele>54.2</ele>
        <time>2022-03-04T17:39:27Z</time>
      </trkpt>
      <trkpt lat="49.03715" lon="2.03318">
        <ele>54.3</ele>
        <time>2022-03-04T17:39:32Z</time>
      </trkpt>
      <trkpt lat="49.03722" lon="2.03334">
        <ele>54</ele>
        <time>2022-03-04T17:39:38Z</time>
      </trkpt>
      <trkpt lat="49.03726" lon="2.03342">
        <ele>54.8</ele>
        <time>2022-03-04T17:39:43Z</time>
      </trkpt>
      <trkpt lat="49.0373" lon="2.0335">
        <ele>55.6</ele>
        <time>2022-03-04T17:39:48Z</time>
      </trkpt>
      <trkpt lat="49.03734" lon="2.03359">
        <ele>56.3</ele>
        <time>2022-03-04T17:39:53Z</time>
      </trkpt>
      <trkpt lat="49.0374" lon="2.03368">
        <ele>56.3</ele>
        <time>2022-03-04T17:39:59Z</time>
      </trkpt>
      <trkpt lat="49.03745" lon="2.03377">
        <ele>56</ele>
        <time>2022-03-04T17:40:05Z</time>
      </trkpt>
      <trkpt lat="49.0375" lon="2.03385">
        <ele>55.6</ele>
        <time>2022-03-04T17:40:10Z</time>
      </trkpt>
      <trkpt lat="49.03757" lon="2.03395">
        <ele>55.6</ele>
        <time>2022-03-04T17:40:16Z</time>
      </trkpt>
      <trkpt lat="49.03762" lon="2.03403">
        <ele>55.7</ele>
        <time>2022-03-04T17:40:21Z</time>
      </trkpt>
      <trkpt lat="49.03768" lon="2.0341">
        <ele>55.8</ele>
        <time>2022-03-04T17:40:27Z</time>
      </trkpt>
      <trkpt lat="49.03773" lon="2.03416">
        <ele>55.7</ele>
        <time>2022-03-04T17:40:32Z</time>
      </trkpt>
      <trkpt lat="49.0378" lon="2.03421">
        <ele>55.9</ele>
        <time>2022-03-04T17:40:38Z</time>
      </trkpt>
      <trkpt lat="49.03787" lon="2.03425">
        <ele>56.3</ele>
        <time>2022-03-04T17:40:44Z</time>
      </trkpt>
      <trkpt lat="49.03793" lon="2.03429">
        <ele>56.6</ele>
        <time>2022-03-04T17:40:49Z</time>
      </trkpt>
      <trkpt lat="49.03801" lon="2.03433">
        <ele>57.1</ele>
        <time>2022-03-04T17:40:55Z</time>
      </trkpt>
      <trkpt lat="49.03811" lon="2.03441">
        <ele>57.3</ele>
        <time>2022-03-04T17:41:01Z</time>
      </trkpt>
      <trkpt lat="49.03818" lon="2.03448">
        <ele>57.5</ele>
        <time>2022-03-04T17:41:06Z</time>
      </trkpt>
      <trkpt lat="49.03825" lon="2.03456">
        <ele>57.6</ele>
        <time>2022-03-04T17:41:12Z</time>
      </trkpt>
      <trkpt lat="49.03832" lon="2.03461">
        <ele>58</ele>
        <time>2022-03-04T17:41:18Z</time>
      </trkpt>
      <trkpt lat="49.03839" lon="2.03466">
        <ele>58.5</ele>
        <time>2022-03-04T17:41:23Z</time>
      </trkpt>
      <trkpt lat="49.03844" lon="2.0347">
        <ele>58.8</ele>
        <time>2022-03-04T17:41:28Z</time>
      </trkpt>
      <trkpt lat="49.03851" lon="2.03476">
        <ele>59</ele>
        <time>2022-03-04T17:41:34Z</time>
      </trkpt>
      <trkpt lat="49.03859" lon="2.03483">
        <ele>58.9</ele>
        <time>2022-03-04T17:41:40Z</time>
      </trkpt>
      <trkpt lat="49.03866" lon="2.03489">
        <ele>58.8</ele>
        <time>2022-03-04T17:41:45Z</time>
      </trkpt>
      <trkpt lat="49.03875" lon="2.03496">
        <ele>58.7</ele>
        <time>2022-03-04T17:41:51Z</time>
      </trkpt>
      <trkpt lat="49.03882" lon="2.03504">
        <ele>58.4</ele>
        <time>2022-03-04T17:41:57Z</time>
      </trkpt>
      <trkpt lat="49.03888" lon="2.03511">
        <ele>58.4</ele>
        <time>2022-03-04T17:42:02Z</time>
      </trkpt>
      <trkpt lat="49.03896" lon="2.03518">
        <ele>58.9</ele>
        <time>2022-03-04T17:42:08Z</time>
      </trkpt>
      <trkpt lat="49.03903" lon="2.03524">
        <ele>59.2</ele>
        <time>2022-03-04T17:42:13Z</time>
      </trkpt>
      <trkpt lat="49.03911" lon="2.03531">
        <ele>59.7</ele>
        <time>2022-03-04T17:42:19Z</time>
      </trkpt>
      <trkpt lat="49.03918" lon="2.03538">
        <ele>60.3</ele>
        <time>2022-03-04T17:42:25Z</time>
      </trkpt>
      <trkpt lat="49.03924" lon="2.03544">
        <ele>61.1</ele>
        <time>2022-03-04T17:42:30Z</time>
      </trkpt>
      <trkpt lat="49.0393" lon="2.03551">
        <ele>61.6</ele>
        <time>2022-03-04T17:42:35Z</time>
      </trkpt>
      <trkpt lat="49.03938" lon="2.0356">
        <ele>61.7</ele>
        <time>2022-03-04T17:42:41Z</time>
      </trkpt>
      <trkpt lat="49.03943" lon="2.03567">
        <ele>61.6</ele>
        <time>2022-03-04T17:42:46Z</time>
      </trkpt>
      <trkpt lat="49.03949" lon="2.03573">
        <ele>61.6</ele>
        <time>2022-03-04T17:42:51Z</time>
      </trkpt>
      <trkpt lat="49.03956" lon="2.03578">
        <ele>61.9</ele>
        <time>2022-03-04T17:42:57Z</time>
      </trkpt>
      <trkpt lat="49.03961" lon="2.03584">
        <ele>61.8</ele>
        <time>2022-03-04T17:43:02Z</time>
      </trkpt>
      <trkpt lat="49.03967" lon="2.03592">
        <ele>61.6</ele>
        <time>2022-03-04T17:43:08Z</time>
      </trkpt>
      <trkpt lat="49.03973" lon="2.03598">
        <ele>61.6</ele>
        <time>2022-03-04T17:43:13Z</time>
      </trkpt>
      <trkpt lat="49.0398" lon="2.03604">
        <ele>62</ele>
        <time>2022-03-04T17:43:18Z</time>
      </trkpt>
      <trkpt lat="49.03986" lon="2.03612">
        <ele>61.9</ele>
        <time>2022-03-04T17:43:24Z</time>
      </trkpt>
      <trkpt lat="49.03991" lon="2.03619">
        <ele>62.1</ele>
        <time>2022-03-04T17:43:29Z</time>
      </trkpt>
      <trkpt lat="49.03999" lon="2.03628">
        <ele>62.3</ele>
        <time>2022-03-04T17:43:35Z</time>
      </trkpt>
      <trkpt lat="49.04007" lon="2.03637">
        <ele>63</ele>
        <time>2022-03-04T17:43:41Z</time>
      </trkpt>
      <trkpt lat="49.04014" lon="2.03646">
        <ele>63.4</ele>
        <time>2022-03-04T17:43:47Z</time>
      </trkpt>
      <trkpt lat="49.0402" lon="2.03652">
        <ele>63.9</ele>
        <time>2022-03-04T17:43:52Z</time>
      </trkpt>
      <trkpt lat="49.04028" lon="2.0366">
        <ele>64.3</ele>
        <time>2022-03-04T17:43:58Z</time>
      </trkpt>
      <trkpt lat="49.04034" lon="2.03667">
        <ele>64.4</ele>
        <time>2022-03-04T17:44:03Z</time>
      </trkpt>
      <trkpt lat="49.04037" lon="2.03672">
        <ele>64.5</ele>
        <time>2022-03-04T17:44:09Z</time>
      </trkpt>
      <trkpt lat="49.04039" lon="2.03676">
        <ele>64.3</ele>
        <time>2022-03-04T17:44:15Z</time>
      </trkpt>
      <trkpt lat="49.04043" lon="2.0368">
        <ele>64.4</ele>
        <time>2022-03-04T17:44:21Z</time>
      </trkpt>
      <trkpt lat="49.0405" lon="2.03685">
        <ele>64.9</ele>
        <time>2022-03-04T17:44:27Z</time>
      </trkpt>
      <trkpt lat="49.04055" lon="2.03689">
        <ele>65.1</ele>
        <time>2022-03-04T17:44:32Z</time>
      </trkpt>
      <trkpt lat="49.0406" lon="2.03694">
        <ele>65</ele>
        <time>2022-03-04T17:44:38Z</time>
      </trkpt>
      <trkpt lat="49.04065" lon="2.03703">
        <ele>64.7</ele>
        <time>2022-03-04T17:44:44Z</time>
      </trkpt>
      <trkpt lat="49.04071" lon="2.03713">
        <ele>64</ele>
        <time>2022-03-04T17:44:50Z</time>
      </trkpt>
      <trkpt lat="49.04077" lon="2.03721">
        <ele>63.8</ele>
        <time>2022-03-04T17:44:55Z</time>
      </trkpt>
      <trkpt lat="49.04082" lon="2.03729">
        <ele>63.9</ele>
        <time>2022-03-04T17:45:00Z</time>
      </trkpt>
      <trkpt lat="49.04087" lon="2.03738">
        <ele>63.7</ele>
        <time>2022-03-04T17:45:06Z</time>
      </trkpt>
      <trkpt lat="49.04092" lon="2.03745">
        <ele>63.3</ele>
        <time>2022-03-04T17:45:11Z</time>
      </trkpt>
      <trkpt lat="49.04098" lon="2.03753">
        <ele>63.1</ele>
        <time>2022-03-04T17:45:17Z</time>
      </trkpt>
      <trkpt lat="49.04104" lon="2.03761">
        <ele>63.7</ele>
        <time>2022-03-04T17:45:22Z</time>
      </trkpt>
      <trkpt lat="49.0411" lon="2.03769">
        <ele>65.1</ele>
        <time>2022-03-04T17:45:28Z</time>
      </trkpt>
      <trkpt lat="49.04116" lon="2.03777">
        <ele>66.2</ele>
        <time>2022-03-04T17:45:33Z</time>
      </trkpt>
      <trkpt lat="49.04122" lon="2.03785">
        <ele>66.3</ele>
        <time>2022-03-04T17:45:39Z</time>
      </trkpt>
      <trkpt lat="49.04129" lon="2.03796">
        <ele>66.8</ele>
        <time>2022-03-04T17:45:45Z</time>
      </trkpt>
      <trkpt lat="49.04134" lon="2.03804">
        <ele>67.9</ele>
        <time>2022-03-04T17:45:50Z</time>
      </trkpt>
      <trkpt lat="49.04137" lon="2.03808">
        <ele>68.9</ele>
        <time>2022-03-04T17:45:56Z</time>
      </trkpt>
      <trkpt lat="49.04137" lon="2.03811">
        <ele>68.3</ele>
        <time>2022-03-04T17:46:02Z</time>
      </trkpt>
      <trkpt lat="49.04135" lon="2.03811">
        <ele>67.6</ele>
        <time>2022-03-04T17:46:08Z</time>
      </trkpt>
      <trkpt lat="49.04134" lon="2.03809">
        <ele>67.3</ele>
        <time>2022-03-04T17:46:14Z</time>
      </trkpt>
      <trkpt lat="49.04133" lon="2.03809">
        <ele>67.1</ele>
        <time>2022-03-04T17:46:20Z</time>
      </trkpt>
      <trkpt lat="49.04133" lon="2.03809">
        <ele>67</ele>
        <time>2022-03-04T17:46:26Z</time>
      </trkpt>
      <trkpt lat="49.04135" lon="2.03812">
        <ele>67.3</ele>
        <time>2022-03-04T17:46:31Z</time>
      </trkpt>
      <trkpt lat="49.04141" lon="2.03821">
        <ele>67.6</ele>
        <time>2022-03-04T17:46:37Z</time>
      </trkpt>
      <trkpt lat="49.04146" lon="2.03829">
        <ele>67.4</ele>
        <time>2022-03-04T17:46:42Z</time>
      </trkpt>
      <trkpt lat="49.04152" lon="2.03838">
        <ele>67.4</ele>
        <time>2022-03-04T17:46:48Z</time>
      </trkpt>
      <trkpt lat="49.04157" lon="2.03846">
        <ele>67.4</ele>
        <time>2022-03-04T17:46:53Z</time>
      </trkpt>
      <trkpt lat="49.04161" lon="2.03853">
        <ele>67.6</ele>
        <time>2022-03-04T17:46:59Z</time>
      </trkpt>
      <trkpt lat="49.04163" lon="2.03854">
        <ele>67.9</ele>
        <time>2022-03-04T17:47:04Z</time>
      </trkpt>
      <trkpt lat="49.04164" lon="2.03855">
        <ele>68</ele>
        <time>2022-03-04T17:47:10Z</time>
      </trkpt>
      <trkpt lat="49.04163" lon="2.03851">
        <ele>68.4</ele>
        <time>2022-03-04T17:47:16Z</time>
      </trkpt>
      <trkpt lat="49.04163" lon="2.03851">
        <ele>68.4</ele>
        <time>2022-03-04T17:47:21Z</time>
      </trkpt>
      <trkpt lat="49.04163" lon="2.03854">
        <ele>67.9</ele>
        <time>2022-03-04T17:47:27Z</time>
      </trkpt>
      <trkpt lat="49.04163" lon="2.03855">
        <ele>67.7</ele>
        <time>2022-03-04T17:47:32Z</time>
      </trkpt>
      <trkpt lat="49.04162" lon="2.03854">
        <ele>67.7</ele>
        <time>2022-03-04T17:47:38Z</time>
      </trkpt>
      <trkpt lat="49.04162" lon="2.03853">
        <ele>67.8</ele>
        <time>2022-03-04T17:47:44Z</time>
      </trkpt>
      <trkpt lat="49.04161" lon="2.03853">
        <ele>67.6</ele>
        <time>2022-03-04T17:47:50Z</time>
      </trkpt>
      <trkpt lat="49.0416" lon="2.03854">
        <ele>67.3</ele>
        <time>2022-03-04T17:47:56Z</time>
      </trkpt>
      <trkpt lat="49.0416" lon="2.03851">
        <ele>67.6</ele>
        <time>2022-03-04T17:48:01Z</time>
      </trkpt>
      <trkpt lat="49.04162" lon="2.03847">
        <ele>68.6</ele>
        <time>2022-03-04T17:48:07Z</time>
      </trkpt>
      <trkpt lat="49.04163" lon="2.03845">
        <ele>69.3</ele>
        <time>2022-03-04T17:48:12Z</time>
      </trkpt>
      <trkpt lat="49.04166" lon="2.03841">
        <ele>70.9</ele>
        <time>2022-03-04T17:48:17Z</time>
      </trkpt>
      <trkpt lat="49.04172" lon="2.03835">
        <ele>73.1</ele>
        <time>2022-03-04T17:48:23Z</time>
      </trkpt>
      <trkpt lat="49.04176" lon="2.0383">
        <ele>74.8</ele>
        <time>2022-03-04T17:48:28Z</time>
      </trkpt>
      <trkpt lat="49.04179" lon="2.03826">
        <ele>76.1</ele>
        <time>2022-03-04T17:48:34Z</time>
      </trkpt>
      <trkpt lat="49.04181" lon="2.03823">
        <ele>77</ele>
        <time>2022-03-04T17:48:39Z</time>
      </trkpt>
      <trkpt lat="49.04183" lon="2.03822">
        <ele>77.6</ele>
        <time>2022-03-04T17:48:45Z</time>
      </trkpt>
      <trkpt lat="49.04184" lon="2.0382">
        <ele>78.2</ele>
        <time>2022-03-04T17:48:50Z</time>
      </trkpt>
      <trkpt lat="49.04186" lon="2.03818">
        <ele>79.2</ele>
        <time>2022-03-04T17:48:56Z</time>
      </trkpt>
      <trkpt lat="49.04188" lon="2.03815">
        <ele>80.4</ele>
        <time>2022-03-04T17:49:02Z</time>
      </trkpt>
      <trkpt lat="49.0419" lon="2.03813">
        <ele>81.2</ele>
        <time>2022-03-04T17:49:07Z</time>
      </trkpt>
      <trkpt lat="49.04194" lon="2.03812">
        <ele>82.7</ele>
        <time>2022-03-04T17:49:12Z</time>
      </trkpt>
      <trkpt lat="49.042" lon="2.03807">
        <ele>85</ele>
        <time>2022-03-04T17:49:18Z</time>
      </trkpt>
      <trkpt lat="49.04208" lon="2.03799">
        <ele>87.1</ele>
        <time>2022-03-04T17:49:24Z</time>
      </trkpt>
      <trkpt lat="49.04212" lon="2.03794">
        <ele>88.3</ele>
        <time>2022-03-04T17:49:29Z</time>
      </trkpt>
      <trkpt lat="49.04215" lon="2.03791">
        <ele>89</ele>
        <time>2022-03-04T17:49:35Z</time>
      </trkpt>
      <trkpt lat="49.04216" lon="2.03789">
        <ele>89.3</ele>
        <time>2022-03-04T17:49:40Z</time>
      </trkpt>
      <trkpt lat="49.04218" lon="2.03787">
        <ele>89.8</ele>
        <time>2022-03-04T17:49:45Z</time>
      </trkpt>
      <trkpt lat="49.0422" lon="2.03786">
        <ele>90.2</ele>
        <time>2022-03-04T17:49:50Z</time>
      </trkpt>
      <trkpt lat="49.04221" lon="2.03786">
        <ele>90.5</ele>
        <time>2022-03-04T17:49:56Z</time>
      </trkpt>
      <trkpt lat="49.04223" lon="2.03786">
        <ele>90.7</ele>
        <time>2022-03-04T17:50:01Z</time>
      </trkpt>
      <trkpt lat="49.04226" lon="2.03785">
        <ele>90.9</ele>
        <time>2022-03-04T17:50:07Z</time>
      </trkpt>
      <trkpt lat="49.04226" lon="2.03785">
        <ele>90.9</ele>
        <time>2022-03-04T17:50:12Z</time>
      </trkpt>
      <trkpt lat="49.04226" lon="2.03786">
        <ele>90.9</ele>
        <time>2022-03-04T17:50:18Z</time>
      </trkpt>
      <trkpt lat="49.04226" lon="2.03786">
        <ele>90.8</ele>
        <time>2022-03-04T17:50:23Z</time>
      </trkpt>
      <trkpt lat="49.04225" lon="2.03786">
        <ele>90.8</ele>
        <time>2022-03-04T17:50:29Z</time>
      </trkpt>
      <trkpt lat="49.04225" lon="2.03785">
        <ele>90.8</ele>
        <time>2022-03-04T17:50:34Z</time>
      </trkpt>
      <trkpt lat="49.04224" lon="2.03785">
        <ele>90.8</ele>
        <time>2022-03-04T17:50:40Z</time>
      </trkpt>
      <trkpt lat="49.04224" lon="2.03785">
        <ele>90.8</ele>
        <time>2022-03-04T17:50:45Z</time>
      </trkpt>
      <trkpt lat="49.04224" lon="2.03785">
        <ele>90.8</ele>
        <time>2022-03-04T17:50:51Z</time>
      </trkpt>
      <trkpt lat="49.04221" lon="2.03786">
        <ele>90.5</ele>
        <time>2022-03-04T17:50:57Z</time>
      </trkpt>
      <trkpt lat="49.0422" lon="2.03785">
        <ele>90.3</ele>
        <time>2022-03-04T17:51:03Z</time>
      </trkpt>
      <trkpt lat="49.0422" lon="2.03785">
        <ele>90.2</ele>
        <time>2022-03-04T17:51:09Z</time>
      </trkpt>
      <trkpt lat="49.0422" lon="2.03786">
        <ele>90.2</ele>
        <time>2022-03-04T17:51:14Z</time>
      </trkpt>
      <trkpt lat="49.04223" lon="2.0378">
        <ele>90.9</ele>
        <time>2022-03-04T17:51:20Z</time>
      </trkpt>
      <trkpt lat="49.04227" lon="2.03772">
        <ele>91.2</ele>
        <time>2022-03-04T17:51:25Z</time>
      </trkpt>
      <trkpt lat="49.04231" lon="2.03763">
        <ele>91.3</ele>
        <time>2022-03-04T17:51:31Z</time>
      </trkpt>
      <trkpt lat="49.04236" lon="2.03756">
        <ele>91.5</ele>
        <time>2022-03-04T17:51:36Z</time>
      </trkpt>
      <trkpt lat="49.04242" lon="2.03747">
        <ele>91.7</ele>
        <time>2022-03-04T17:51:42Z</time>
      </trkpt>
      <trkpt lat="49.04246" lon="2.03743">
        <ele>91.9</ele>
        <time>2022-03-04T17:51:47Z</time>
      </trkpt>
      <trkpt lat="49.04253" lon="2.03737">
        <ele>92.1</ele>
        <time>2022-03-04T17:51:52Z</time>
      </trkpt>
      <trkpt lat="49.0426" lon="2.03732">
        <ele>92.4</ele>
        <time>2022-03-04T17:51:57Z</time>
      </trkpt>
      <trkpt lat="49.04265" lon="2.03725">
        <ele>92.5</ele>
        <time>2022-03-04T17:52:03Z</time>
      </trkpt>
      <trkpt lat="49.04272" lon="2.03718">
        <ele>92.9</ele>
        <time>2022-03-04T17:52:09Z</time>
      </trkpt>
      <trkpt lat="49.04277" lon="2.03712">
        <ele>93.4</ele>
        <time>2022-03-04T17:52:14Z</time>
      </trkpt>
      <trkpt lat="49.04283" lon="2.03704">
        <ele>93.7</ele>
        <time>2022-03-04T17:52:20Z</time>
      </trkpt>
      <trkpt lat="49.04288" lon="2.03698">
        <ele>93.9</ele>
        <time>2022-03-04T17:52:26Z</time>
      </trkpt>
      <trkpt lat="49.04293" lon="2.03692">
        <ele>94.1</ele>
        <time>2022-03-04T17:52:32Z</time>
      </trkpt>
      <trkpt lat="49.04299" lon="2.03685">
        <ele>94.3</ele>
        <time>2022-03-04T17:52:38Z</time>
      </trkpt>
      <trkpt lat="49.04307" lon="2.03679">
        <ele>94.6</ele>
        <time>2022-03-04T17:52:44Z</time>
      </trkpt>
      <trkpt lat="49.04313" lon="2.03672">
        <ele>94.9</ele>
        <time>2022-03-04T17:52:50Z</time>
      </trkpt>
      <trkpt lat="49.04318" lon="2.03666">
        <ele>95</ele>
        <time>2022-03-04T17:52:55Z</time>
      </trkpt>
      <trkpt lat="49.04325" lon="2.03659">
        <ele>95.2</ele>
        <time>2022-03-04T17:53:01Z</time>
      </trkpt>
      <trkpt lat="49.0433" lon="2.03653">
        <ele>95.4</ele>
        <time>2022-03-04T17:53:06Z</time>
      </trkpt>
      <trkpt lat="49.04337" lon="2.03646">
        <ele>95.8</ele>
        <time>2022-03-04T17:53:12Z</time>
      </trkpt>
      <trkpt lat="49.04344" lon="2.03639">
        <ele>96</ele>
        <time>2022-03-04T17:53:18Z</time>
      </trkpt>
      <trkpt lat="49.04348" lon="2.03633">
        <ele>96.1</ele>
        <time>2022-03-04T17:53:23Z</time>
      </trkpt>
      <trkpt lat="49.04352" lon="2.03628">
        <ele>96.3</ele>
        <time>2022-03-04T17:53:29Z</time>
      </trkpt>
      <trkpt lat="49.04357" lon="2.0362">
        <ele>96.6</ele>
        <time>2022-03-04T17:53:34Z</time>
      </trkpt>
      <trkpt lat="49.04364" lon="2.03614">
        <ele>97</ele>
        <time>2022-03-04T17:53:40Z</time>
      </trkpt>
      <trkpt lat="49.04372" lon="2.03609">
        <ele>97.3</ele>
        <time>2022-03-04T17:53:46Z</time>
      </trkpt>
      <trkpt lat="49.04377" lon="2.03601">
        <ele>97.4</ele>
        <time>2022-03-04T17:53:51Z</time>
      </trkpt>
      <trkpt lat="49.04384" lon="2.03594">
        <ele>97.3</ele>
        <time>2022-03-04T17:53:56Z</time>
      </trkpt>
      <trkpt lat="49.04388" lon="2.03587">
        <ele>97.1</ele>
        <time>2022-03-04T17:54:02Z</time>
      </trkpt>
      <trkpt lat="49.04393" lon="2.0358">
        <ele>97.1</ele>
        <time>2022-03-04T17:54:07Z</time>
      </trkpt>
      <trkpt lat="49.04397" lon="2.03571">
        <ele>97.3</ele>
        <time>2022-03-04T17:54:13Z</time>
      </trkpt>
      <trkpt lat="49.04403" lon="2.03562">
        <ele>97.5</ele>
        <time>2022-03-04T17:54:19Z</time>
      </trkpt>
      <trkpt lat="49.04407" lon="2.03555">
        <ele>97.7</ele>
        <time>2022-03-04T17:54:24Z</time>
      </trkpt>
      <trkpt lat="49.04413" lon="2.03549">
        <ele>98.1</ele>
        <time>2022-03-04T17:54:30Z</time>
      </trkpt>
      <trkpt lat="49.04418" lon="2.03542">
        <ele>98.6</ele>
        <time>2022-03-04T17:54:36Z</time>
      </trkpt>
      <trkpt lat="49.04425" lon="2.03535">
        <ele>99.3</ele>
        <time>2022-03-04T17:54:42Z</time>
      </trkpt>
      <trkpt lat="49.04432" lon="2.03529">
        <ele>100.1</ele>
        <time>2022-03-04T17:54:48Z</time>
      </trkpt>
      <trkpt lat="49.04438" lon="2.03524">
        <ele>100.7</ele>
        <time>2022-03-04T17:54:53Z</time>
      </trkpt>
      <trkpt lat="49.04443" lon="2.03523">
        <ele>101.1</ele>
        <time>2022-03-04T17:54:59Z</time>
      </trkpt>
      <trkpt lat="49.04449" lon="2.03519">
        <ele>101.5</ele>
        <time>2022-03-04T17:55:05Z</time>
      </trkpt>
      <trkpt lat="49.04455" lon="2.03512">
        <ele>102</ele>
        <time>2022-03-04T17:55:11Z</time>
      </trkpt>
      <trkpt lat="49.04461" lon="2.03505">
        <ele>102.4</ele>
        <time>2022-03-04T17:55:17Z</time>
      </trkpt>
      <trkpt lat="49.04467" lon="2.03499">
        <ele>102.9</ele>
        <time>2022-03-04T17:55:23Z</time>
      </trkpt>
      <trkpt lat="49.04471" lon="2.0349">
        <ele>103.3</ele>
        <time>2022-03-04T17:55:29Z</time>
      </trkpt>
      <trkpt lat="49.04477" lon="2.03482">
        <ele>103.7</ele>
        <time>2022-03-04T17:55:35Z</time>
      </trkpt>
      <trkpt lat="49.04484" lon="2.03476">
        <ele>103.9</ele>
        <time>2022-03-04T17:55:40Z</time>
      </trkpt>
      <trkpt lat="49.04489" lon="2.03468">
        <ele>104.1</ele>
        <time>2022-03-04T17:55:46Z</time>
      </trkpt>
      <trkpt lat="49.04495" lon="2.03463">
        <ele>104.3</ele>
        <time>2022-03-04T17:55:51Z</time>
      </trkpt>
      <trkpt lat="49.04501" lon="2.03458">
        <ele>104.5</ele>
        <time>2022-03-04T17:55:57Z</time>
      </trkpt>
      <trkpt lat="49.04506" lon="2.03453">
        <ele>104.8</ele>
        <time>2022-03-04T17:56:02Z</time>
      </trkpt>
      <trkpt lat="49.04514" lon="2.03446">
        <ele>105</ele>
        <time>2022-03-04T17:56:08Z</time>
      </trkpt>
      <trkpt lat="49.0452" lon="2.03441">
        <ele>105.1</ele>
        <time>2022-03-04T17:56:13Z</time>
      </trkpt>
      <trkpt lat="49.04527" lon="2.03434">
        <ele>105.4</ele>
        <time>2022-03-04T17:56:19Z</time>
      </trkpt>
      <trkpt lat="49.04532" lon="2.03427">
        <ele>105.8</ele>
        <time>2022-03-04T17:56:24Z</time>
      </trkpt>
      <trkpt lat="49.04537" lon="2.03421">
        <ele>106.2</ele>
        <time>2022-03-04T17:56:30Z</time>
      </trkpt>
      <trkpt lat="49.04541" lon="2.03416">
        <ele>106.4</ele>
        <time>2022-03-04T17:56:35Z</time>
      </trkpt>
      <trkpt lat="49.04543" lon="2.03414">
        <ele>106.5</ele>
        <time>2022-03-04T17:56:41Z</time>
      </trkpt>
      <trkpt lat="49.04549" lon="2.0341">
        <ele>106.6</ele>
        <time>2022-03-04T17:56:47Z</time>
      </trkpt>
      <trkpt lat="49.04554" lon="2.03403">
        <ele>106.5</ele>
        <time>2022-03-04T17:56:53Z</time>
      </trkpt>
      <trkpt lat="49.04558" lon="2.03397">
        <ele>106.2</ele>
        <time>2022-03-04T17:56:58Z</time>
      </trkpt>
      <trkpt lat="49.04563" lon="2.0339">
        <ele>105.8</ele>
        <time>2022-03-04T17:57:04Z</time>
      </trkpt>
      <trkpt lat="49.04567" lon="2.03384">
        <ele>105.6</ele>
        <time>2022-03-04T17:57:09Z</time>
      </trkpt>
      <trkpt lat="49.04571" lon="2.03378">
        <ele>105.4</ele>
        <time>2022-03-04T17:57:15Z</time>
      </trkpt>
      <trkpt lat="49.04574" lon="2.03373">
        <ele>105.3</ele>
        <time>2022-03-04T17:57:20Z</time>
      </trkpt>
      <trkpt lat="49.04579" lon="2.03366">
        <ele>105.2</ele>
        <time>2022-03-04T17:57:26Z</time>
      </trkpt>
      <trkpt lat="49.04583" lon="2.03358">
        <ele>105</ele>
        <time>2022-03-04T17:57:32Z</time>
      </trkpt>
      <trkpt lat="49.04585" lon="2.03349">
        <ele>105</ele>
        <time>2022-03-04T17:57:38Z</time>
      </trkpt>
      <trkpt lat="49.04587" lon="2.0334">
        <ele>105</ele>
        <time>2022-03-04T17:57:44Z</time>
      </trkpt>
      <trkpt lat="49.04589" lon="2.03331">
        <ele>105</ele>
        <time>2022-03-04T17:57:50Z</time>
      </trkpt>
      <trkpt lat="49.04591" lon="2.03322">
        <ele>105</ele>
        <time>2022-03-04T17:57:55Z</time>
      </trkpt>
      <trkpt lat="49.04591" lon="2.03315">
        <ele>105</ele>
        <time>2022-03-04T17:58:01Z</time>
      </trkpt>
      <trkpt lat="49.04591" lon="2.03312">
        <ele>105</ele>
        <time>2022-03-04T17:58:06Z</time>
      </trkpt>
      <trkpt lat="49.0459" lon="2.03312">
        <ele>105</ele>
        <time>2022-03-04T17:58:12Z</time>
      </trkpt>
      <trkpt lat="49.0459" lon="2.03313">
        <ele>105</ele>
        <time>2022-03-04T17:58:17Z</time>
      </trkpt>
      <trkpt lat="49.04589" lon="2.03313">
        <ele>105</ele>
        <time>2022-03-04T17:58:23Z</time>
      </trkpt>
      <trkpt lat="49.04588" lon="2.03314">
        <ele>105</ele>
        <time>2022-03-04T17:58:28Z</time>
      </trkpt>
      <trkpt lat="49.04588" lon="2.03313">
        <ele>105</ele>
        <time>2022-03-04T17:58:34Z</time>
      </trkpt>
      <trkpt lat="49.04587" lon="2.03313">
        <ele>105</ele>
        <time>2022-03-04T17:58:39Z</time>
      </trkpt>
      <trkpt lat="49.04587" lon="2.03314">
        <ele>105</ele>
        <time>2022-03-04T17:58:45Z</time>
      </trkpt>
      <trkpt lat="49.04587" lon="2.03314">
        <ele>105</ele>
        <time>2022-03-04T17:58:50Z</time>
      </trkpt>
      <trkpt lat="49.04587" lon="2.03315">
        <ele>105</ele>
        <time>2022-03-04T17:58:55Z</time>
      </trkpt>
      <trkpt lat="49.04587" lon="2.03315">
        <ele>105</ele>
        <time>2022-03-04T17:59:01Z</time>
      </trkpt>
      <trkpt lat="49.04587" lon="2.03316">
        <ele>105</ele>
        <time>2022-03-04T17:59:07Z</time>
      </trkpt>
      <trkpt lat="49.04587" lon="2.03316">
        <ele>105</ele>
        <time>2022-03-04T17:59:12Z</time>
      </trkpt>
      <trkpt lat="49.04587" lon="2.03316">
        <ele>105</ele>
        <time>2022-03-04T17:59:18Z</time>
      </trkpt>
      <trkpt lat="49.04587" lon="2.03316">
        <ele>105</ele>
        <time>2022-03-04T17:59:23Z</time>
      </trkpt>
      <trkpt lat="49.04587" lon="2.03316">
        <ele>105</ele>
        <time>2022-03-04T17:59:29Z</time>
      </trkpt>
      <trkpt lat="49.04587" lon="2.03316">
        <ele>105</ele>
        <time>2022-03-04T17:59:35Z</time>
      </trkpt>
      <trkpt lat="49.04587" lon="2.03316">
        <ele>105</ele>
        <time>2022-03-04T17:59:40Z</time>
      </trkpt>
      <trkpt lat="49.04587" lon="2.03316">
        <ele>105</ele>
        <time>2022-03-04T17:59:46Z</time>
      </trkpt>
      <trkpt lat="49.04587" lon="2.03316">
        <ele>105</ele>
        <time>2022-03-04T17:59:51Z</time>
      </trkpt>
      <trkpt lat="49.04587" lon="2.03316">
        <ele>105</ele>
        <time>2022-03-04T17:59:56Z</time>
      </trkpt>
      <trkpt lat="49.04587" lon="2.03316">
        <ele>105</ele>
        <time>2022-03-04T18:00:01Z</time>
      </trkpt>
      <trkpt lat="49.04587" lon="2.03316">
        <ele>105</ele>
        <time>2022-03-04T18:00:07Z</time>
      </trkpt>
      <trkpt lat="49.04587" lon="2.03316">
        <ele>105</ele>
        <time>2022-03-04T18:00:13Z</time>
      </trkpt>
      <trkpt lat="49.04587" lon="2.03315">
        <ele>105</ele>
        <time>2022-03-04T18:00:18Z</time>
      </trkpt>
      <trkpt lat="49.04587" lon="2.03314">
        <ele>105</ele>
        <time>2022-03-04T18:00:24Z</time>
      </trkpt>
      <trkpt lat="49.04587" lon="2.03314">
        <ele>105</ele>
        <time>2022-03-04T18:00:29Z</time>
      </trkpt>
      <trkpt lat="49.04586" lon="2.03313">
        <ele>105</ele>
        <time>2022-03-04T18:00:35Z</time>
      </trkpt>
      <trkpt lat="49.04585" lon="2.03312">
        <ele>105</ele>
        <time>2022-03-04T18:00:41Z</time>
      </trkpt>
      <trkpt lat="49.04585" lon="2.03312">
        <ele>105</ele>
        <time>2022-03-04T18:00:46Z</time>
      </trkpt>
      <trkpt lat="49.04584" lon="2.03312">
        <ele>105</ele>
        <time>2022-03-04T18:00:52Z</time>
      </trkpt>
      <trkpt lat="49.04584" lon="2.03312">
        <ele>105</ele>
        <time>2022-03-04T18:00:57Z</time>
      </trkpt>
      <trkpt lat="49.04584" lon="2.03311">
        <ele>105</ele>
        <time>2022-03-04T18:01:03Z</time>
      </trkpt>
      <trkpt lat="49.04583" lon="2.03311">
        <ele>105</ele>
        <time>2022-03-04T18:01:09Z</time>
      </trkpt>
      <trkpt lat="49.04583" lon="2.03311">
        <ele>105</ele>
        <time>2022-03-04T18:01:15Z</time>
      </trkpt>
      <trkpt lat="49.04583" lon="2.03311">
        <ele>105</ele>
        <time>2022-03-04T18:01:20Z</time>
      </trkpt>
      <trkpt lat="49.04582" lon="2.03311">
        <ele>105</ele>
        <time>2022-03-04T18:01:26Z</time>
      </trkpt>
      <trkpt lat="49.04582" lon="2.03311">
        <ele>105.1</ele>
        <time>2022-03-04T18:01:32Z</time>
      </trkpt>
      <trkpt lat="49.04581" lon="2.03311">
        <ele>105.1</ele>
        <time>2022-03-04T18:01:37Z</time>
      </trkpt>
      <trkpt lat="49.04581" lon="2.03311">
        <ele>105.1</ele>
        <time>2022-03-04T18:01:43Z</time>
      </trkpt>
      <trkpt lat="49.04582" lon="2.03311">
        <ele>105.1</ele>
        <time>2022-03-04T18:01:48Z</time>
      </trkpt>
      <trkpt lat="49.04581" lon="2.03312">
        <ele>105.1</ele>
        <time>2022-03-04T18:01:54Z</time>
      </trkpt>
      <trkpt lat="49.0458" lon="2.03315">
        <ele>105.1</ele>
        <time>2022-03-04T18:02:00Z</time>
      </trkpt>
      <trkpt lat="49.04578" lon="2.03322">
        <ele>105.2</ele>
        <time>2022-03-04T18:02:05Z</time>
      </trkpt>
      <trkpt lat="49.04576" lon="2.03332">
        <ele>105.3</ele>
        <time>2022-03-04T18:02:11Z</time>
      </trkpt>
      <trkpt lat="49.04576" lon="2.03339">
        <ele>105.3</ele>
        <time>2022-03-04T18:02:16Z</time>
      </trkpt>
      <trkpt lat="49.04575" lon="2.03349">
        <ele>105.3</ele>
        <time>2022-03-04T18:02:22Z</time>
      </trkpt>
      <trkpt lat="49.04574" lon="2.03358">
        <ele>105.3</ele>
        <time>2022-03-04T18:02:27Z</time>
      </trkpt>
      <trkpt lat="49.04574" lon="2.03367">
        <ele>105.3</ele>
        <time>2022-03-04T18:02:32Z</time>
      </trkpt>
      <trkpt lat="49.04572" lon="2.03376">
        <ele>105.4</ele>
        <time>2022-03-04T18:02:38Z</time>
      </trkpt>
      <trkpt lat="49.04571" lon="2.0338">
        <ele>105.4</ele>
        <time>2022-03-04T18:02:43Z</time>
      </trkpt>
      <trkpt lat="49.04568" lon="2.03384">
        <ele>105.6</ele>
        <time>2022-03-04T18:02:48Z</time>
      </trkpt>
      <trkpt lat="49.04562" lon="2.03389">
        <ele>105.8</ele>
        <time>2022-03-04T18:02:54Z</time>
      </trkpt>
      <trkpt lat="49.04558" lon="2.03391">
        <ele>106</ele>
        <time>2022-03-04T18:02:59Z</time>
      </trkpt>
      <trkpt lat="49.04552" lon="2.03395">
        <ele>106.2</ele>
        <time>2022-03-04T18:03:05Z</time>
      </trkpt>
      <trkpt lat="49.04549" lon="2.03398">
        <ele>106.3</ele>
        <time>2022-03-04T18:03:10Z</time>
      </trkpt>
      <trkpt lat="49.04544" lon="2.03404">
        <ele>106.3</ele>
        <time>2022-03-04T18:03:16Z</time>
      </trkpt>
      <trkpt lat="49.04539" lon="2.0341">
        <ele>106.3</ele>
        <time>2022-03-04T18:03:21Z</time>
      </trkpt>
      <trkpt lat="49.04533" lon="2.03418">
        <ele>106.1</ele>
        <time>2022-03-04T18:03:27Z</time>
      </trkpt>
      <trkpt lat="49.04527" lon="2.03425">
        <ele>105.7</ele>
        <time>2022-03-04T18:03:32Z</time>
      </trkpt>
      <trkpt lat="49.0452" lon="2.03434">
        <ele>105.3</ele>
        <time>2022-03-04T18:03:38Z</time>
      </trkpt>
      <trkpt lat="49.04514" lon="2.03441">
        <ele>105.1</ele>
        <time>2022-03-04T18:03:43Z</time>
      </trkpt>
      <trkpt lat="49.04507" lon="2.03449">
        <ele>104.9</ele>
        <time>2022-03-04T18:03:49Z</time>
      </trkpt>
      <trkpt lat="49.04502" lon="2.03455">
        <ele>104.6</ele>
        <time>2022-03-04T18:03:54Z</time>
      </trkpt>
      <trkpt lat="49.04497" lon="2.03461">
        <ele>104.3</ele>
        <time>2022-03-04T18:03:59Z</time>
      </trkpt>
      <trkpt lat="49.0449" lon="2.03469">
        <ele>104.1</ele>
        <time>2022-03-04T18:04:05Z</time>
      </trkpt>
      <trkpt lat="49.04484" lon="2.03478">
        <ele>103.9</ele>
        <time>2022-03-04T18:04:11Z</time>
      </trkpt>
      <trkpt lat="49.04478" lon="2.03485">
        <ele>103.6</ele>
        <time>2022-03-04T18:04:16Z</time>
      </trkpt>
      <trkpt lat="49.04471" lon="2.03493">
        <ele>103.2</ele>
        <time>2022-03-04T18:04:22Z</time>
      </trkpt>
      <trkpt lat="49.04465" lon="2.035">
        <ele>102.8</ele>
        <time>2022-03-04T18:04:27Z</time>
      </trkpt>
      <trkpt lat="49.04459" lon="2.03508">
        <ele>102.3</ele>
        <time>2022-03-04T18:04:33Z</time>
      </trkpt>
      <trkpt lat="49.04453" lon="2.03515">
        <ele>101.8</ele>
        <time>2022-03-04T18:04:39Z</time>
      </trkpt>
      <trkpt lat="49.04447" lon="2.03523">
        <ele>101.3</ele>
        <time>2022-03-04T18:04:45Z</time>
      </trkpt>
      <trkpt lat="49.04441" lon="2.03529">
        <ele>100.7</ele>
        <time>2022-03-04T18:04:50Z</time>
      </trkpt>
      <trkpt lat="49.04435" lon="2.03536">
        <ele>100.1</ele>
        <time>2022-03-04T18:04:56Z</time>
      </trkpt>
      <trkpt lat="49.04429" lon="2.03544">
        <ele>99.3</ele>
        <time>2022-03-04T18:05:02Z</time>
      </trkpt>
      <trkpt lat="49.04423" lon="2.0355">
        <ele>98.7</ele>
        <time>2022-03-04T18:05:07Z</time>
      </trkpt>
      <trkpt lat="49.04417" lon="2.03557">
        <ele>98</ele>
        <time>2022-03-04T18:05:13Z</time>
      </trkpt>
      <trkpt lat="49.04413" lon="2.03562">
        <ele>97.9</ele>
        <time>2022-03-04T18:05:18Z</time>
      </trkpt>
      <trkpt lat="49.04409" lon="2.03566">
        <ele>97.7</ele>
        <time>2022-03-04T18:05:23Z</time>
      </trkpt>
      <trkpt lat="49.04404" lon="2.03571">
        <ele>97.5</ele>
        <time>2022-03-04T18:05:28Z</time>
      </trkpt>
      <trkpt lat="49.04399" lon="2.03577">
        <ele>97.4</ele>
        <time>2022-03-04T18:05:34Z</time>
      </trkpt>
      <trkpt lat="49.04393" lon="2.03585">
        <ele>97.2</ele>
        <time>2022-03-04T18:05:40Z</time>
      </trkpt>
      <trkpt lat="49.04388" lon="2.0359">
        <ele>97.2</ele>
        <time>2022-03-04T18:05:46Z</time>
      </trkpt>
      <trkpt lat="49.04384" lon="2.03595">
        <ele>97.3</ele>
        <time>2022-03-04T18:05:51Z</time>
      </trkpt>
      <trkpt lat="49.04375" lon="2.03601">
        <ele>97.3</ele>
        <time>2022-03-04T18:05:57Z</time>
      </trkpt>
      <trkpt lat="49.0437" lon="2.03609">
        <ele>97.3</ele>
        <time>2022-03-04T18:06:02Z</time>
      </trkpt>
      <trkpt lat="49.04364" lon="2.03621">
        <ele>96.8</ele>
        <time>2022-03-04T18:06:08Z</time>
      </trkpt>
      <trkpt lat="49.04359" lon="2.03628">
        <ele>96.4</ele>
        <time>2022-03-04T18:06:13Z</time>
      </trkpt>
      <trkpt lat="49.04353" lon="2.03633">
        <ele>96.1</ele>
        <time>2022-03-04T18:06:19Z</time>
      </trkpt>
      <trkpt lat="49.04348" lon="2.03639">
        <ele>96</ele>
        <time>2022-03-04T18:06:24Z</time>
      </trkpt>
      <trkpt lat="49.04342" lon="2.03648">
        <ele>95.8</ele>
        <time>2022-03-04T18:06:30Z</time>
      </trkpt>
      <trkpt lat="49.04337" lon="2.03654">
        <ele>95.5</ele>
        <time>2022-03-04T18:06:35Z</time>
      </trkpt>
      <trkpt lat="49.04331" lon="2.03661">
        <ele>95.2</ele>
        <time>2022-03-04T18:06:40Z</time>
      </trkpt>
      <trkpt lat="49.04324" lon="2.03666">
        <ele>95</ele>
        <time>2022-03-04T18:06:46Z</time>
      </trkpt>
      <trkpt lat="49.04318" lon="2.03672">
        <ele>94.9</ele>
        <time>2022-03-04T18:06:52Z</time>
      </trkpt>
      <trkpt lat="49.04313" lon="2.03678">
        <ele>94.7</ele>
        <time>2022-03-04T18:06:57Z</time>
      </trkpt>
      <trkpt lat="49.04306" lon="2.03686">
        <ele>94.3</ele>
        <time>2022-03-04T18:07:03Z</time>
      </trkpt>
      <trkpt lat="49.04299" lon="2.03694">
        <ele>94</ele>
        <time>2022-03-04T18:07:09Z</time>
      </trkpt>
      <trkpt lat="49.04293" lon="2.03699">
        <ele>93.9</ele>
        <time>2022-03-04T18:07:14Z</time>
      </trkpt>
      <trkpt lat="49.04288" lon="2.03704">
        <ele>93.8</ele>
        <time>2022-03-04T18:07:20Z</time>
      </trkpt>
      <trkpt lat="49.04282" lon="2.0371">
        <ele>93.5</ele>
        <time>2022-03-04T18:07:26Z</time>
      </trkpt>
      <trkpt lat="49.04276" lon="2.03718">
        <ele>93.1</ele>
        <time>2022-03-04T18:07:32Z</time>
      </trkpt>
      <trkpt lat="49.0427" lon="2.03726">
        <ele>92.7</ele>
        <time>2022-03-04T18:07:38Z</time>
      </trkpt>
      <trkpt lat="49.04265" lon="2.03731">
        <ele>92.5</ele>
        <time>2022-03-04T18:07:44Z</time>
      </trkpt>
      <trkpt lat="49.04261" lon="2.03739">
        <ele>92.4</ele>
        <time>2022-03-04T18:07:50Z</time>
      </trkpt>
      <trkpt lat="49.04255" lon="2.03749">
        <ele>92.2</ele>
        <time>2022-03-04T18:07:56Z</time>
      </trkpt>
      <trkpt lat="49.0425" lon="2.03756">
        <ele>92</ele>
        <time>2022-03-04T18:08:01Z</time>
      </trkpt>
      <trkpt lat="49.04246" lon="2.03761">
        <ele>91.8</ele>
        <time>2022-03-04T18:08:06Z</time>
      </trkpt>
      <trkpt lat="49.04241" lon="2.03768">
        <ele>91.7</ele>
        <time>2022-03-04T18:08:12Z</time>
      </trkpt>
      <trkpt lat="49.04236" lon="2.03771">
        <ele>91.5</ele>
        <time>2022-03-04T18:08:17Z</time>
      </trkpt>
      <trkpt lat="49.04231" lon="2.03779">
        <ele>91.3</ele>
        <time>2022-03-04T18:08:23Z</time>
      </trkpt>
      <trkpt lat="49.04229" lon="2.03787">
        <ele>90.9</ele>
        <time>2022-03-04T18:08:28Z</time>
      </trkpt>
      <trkpt lat="49.04229" lon="2.0379">
        <ele>90.8</ele>
        <time>2022-03-04T18:08:34Z</time>
      </trkpt>
      <trkpt lat="49.04229" lon="2.0379">
        <ele>90.8</ele>
        <time>2022-03-04T18:08:39Z</time>
      </trkpt>
      <trkpt lat="49.0423" lon="2.03788">
        <ele>90.9</ele>
        <time>2022-03-04T18:08:45Z</time>
      </trkpt>
      <trkpt lat="49.04231" lon="2.03786">
        <ele>91</ele>
        <time>2022-03-04T18:08:51Z</time>
      </trkpt>
      <trkpt lat="49.04231" lon="2.03784">
        <ele>91.1</ele>
        <time>2022-03-04T18:08:56Z</time>
      </trkpt>
      <trkpt lat="49.04231" lon="2.03784">
        <ele>91.1</ele>
        <time>2022-03-04T18:09:02Z</time>
      </trkpt>
      <trkpt lat="49.04231" lon="2.03784">
        <ele>91.1</ele>
        <time>2022-03-04T18:09:07Z</time>
      </trkpt>
      <trkpt lat="49.04231" lon="2.03785">
        <ele>91.1</ele>
        <time>2022-03-04T18:09:13Z</time>
      </trkpt>
      <trkpt lat="49.04231" lon="2.03785">
        <ele>91</ele>
        <time>2022-03-04T18:09:19Z</time>
      </trkpt>
      <trkpt lat="49.04231" lon="2.03785">
        <ele>91.1</ele>
        <time>2022-03-04T18:09:24Z</time>
      </trkpt>
      <trkpt lat="49.04231" lon="2.03785">
        <ele>91.1</ele>
        <time>2022-03-04T18:09:30Z</time>
      </trkpt>
      <trkpt lat="49.04231" lon="2.03785">
        <ele>91.1</ele>
        <time>2022-03-04T18:09:36Z</time>
      </trkpt>
      <trkpt lat="49.04231" lon="2.03785">
        <ele>91.1</ele>
        <time>2022-03-04T18:09:42Z</time>
      </trkpt>
      <trkpt lat="49.04231" lon="2.03785">
        <ele>91</ele>
        <time>2022-03-04T18:09:47Z</time>
      </trkpt>
      <trkpt lat="49.04231" lon="2.03785">
        <ele>91.1</ele>
        <time>2022-03-04T18:09:53Z</time>
      </trkpt>
      <trkpt lat="49.04231" lon="2.03785">
        <ele>91.1</ele>
        <time>2022-03-04T18:09:58Z</time>
      </trkpt>
      <trkpt lat="49.04231" lon="2.03785">
        <ele>91.1</ele>
        <time>2022-03-04T18:10:04Z</time>
      </trkpt>
      <trkpt lat="49.04232" lon="2.03785">
        <ele>91.1</ele>
        <time>2022-03-04T18:10:09Z</time>
      </trkpt>
      <trkpt lat="49.04232" lon="2.03784">
        <ele>91.1</ele>
        <time>2022-03-04T18:10:15Z</time>
      </trkpt>
      <trkpt lat="49.04232" lon="2.03783">
        <ele>91.2</ele>
        <time>2022-03-04T18:10:21Z</time>
      </trkpt>
      <trkpt lat="49.04231" lon="2.03783">
        <ele>91.1</ele>
        <time>2022-03-04T18:10:26Z</time>
      </trkpt>
      <trkpt lat="49.04231" lon="2.03783">
        <ele>91.1</ele>
        <time>2022-03-04T18:10:32Z</time>
      </trkpt>
      <trkpt lat="49.04231" lon="2.03783">
        <ele>91.1</ele>
        <time>2022-03-04T18:10:38Z</time>
      </trkpt>
      <trkpt lat="49.04231" lon="2.03783">
        <ele>91.1</ele>
        <time>2022-03-04T18:10:43Z</time>
      </trkpt>
      <trkpt lat="49.0423" lon="2.03784">
        <ele>91</ele>
        <time>2022-03-04T18:10:49Z</time>
      </trkpt>
      <trkpt lat="49.0423" lon="2.03784">
        <ele>91</ele>
        <time>2022-03-04T18:10:55Z</time>
      </trkpt>
      <trkpt lat="49.0423" lon="2.03784">
        <ele>91</ele>
        <time>2022-03-04T18:11:00Z</time>
      </trkpt>
      <trkpt lat="49.0423" lon="2.03785">
        <ele>91</ele>
        <time>2022-03-04T18:11:06Z</time>
      </trkpt>
      <trkpt lat="49.0423" lon="2.03784">
        <ele>91</ele>
        <time>2022-03-04T18:11:12Z</time>
      </trkpt>
      <trkpt lat="49.04229" lon="2.03784">
        <ele>91</ele>
        <time>2022-03-04T18:11:17Z</time>
      </trkpt>
      <trkpt lat="49.04224" lon="2.03785">
        <ele>90.8</ele>
        <time>2022-03-04T18:11:23Z</time>
      </trkpt>
      <trkpt lat="49.0422" lon="2.03786">
        <ele>90.1</ele>
        <time>2022-03-04T18:11:28Z</time>
      </trkpt>
      <trkpt lat="49.04215" lon="2.0379">
        <ele>89</ele>
        <time>2022-03-04T18:11:34Z</time>
      </trkpt>
      <trkpt lat="49.04213" lon="2.03793">
        <ele>88.5</ele>
        <time>2022-03-04T18:11:39Z</time>
      </trkpt>
      <trkpt lat="49.04211" lon="2.03796">
        <ele>88</ele>
        <time>2022-03-04T18:11:45Z</time>
      </trkpt>
      <trkpt lat="49.04209" lon="2.038">
        <ele>87.4</ele>
        <time>2022-03-04T18:11:50Z</time>
      </trkpt>
      <trkpt lat="49.04207" lon="2.03803">
        <ele>86.9</ele>
        <time>2022-03-04T18:11:56Z</time>
      </trkpt>
      <trkpt lat="49.04204" lon="2.03807">
        <ele>85.7</ele>
        <time>2022-03-04T18:12:01Z</time>
      </trkpt>
      <trkpt lat="49.04199" lon="2.03814">
        <ele>83.4</ele>
        <time>2022-03-04T18:12:07Z</time>
      </trkpt>
      <trkpt lat="49.04196" lon="2.03818">
        <ele>82.2</ele>
        <time>2022-03-04T18:12:12Z</time>
      </trkpt>
      <trkpt lat="49.04193" lon="2.03824">
        <ele>80.3</ele>
        <time>2022-03-04T18:12:18Z</time>
      </trkpt>
      <trkpt lat="49.04191" lon="2.03831">
        <ele>78.5</ele>
        <time>2022-03-04T18:12:23Z</time>
      </trkpt>
      <trkpt lat="49.04188" lon="2.03833">
        <ele>77.4</ele>
        <time>2022-03-04T18:12:29Z</time>
      </trkpt>
      <trkpt lat="49.04185" lon="2.03836">
        <ele>76.2</ele>
        <time>2022-03-04T18:12:35Z</time>
      </trkpt>
      <trkpt lat="49.04183" lon="2.03838">
        <ele>75.5</ele>
        <time>2022-03-04T18:12:40Z</time>
      </trkpt>
      <trkpt lat="49.04181" lon="2.0384">
        <ele>74.5</ele>
        <time>2022-03-04T18:12:46Z</time>
      </trkpt>
      <trkpt lat="49.04177" lon="2.03843">
        <ele>73</ele>
        <time>2022-03-04T18:12:51Z</time>
      </trkpt>
      <trkpt lat="49.04174" lon="2.03846">
        <ele>71.8</ele>
        <time>2022-03-04T18:12:57Z</time>
      </trkpt>
      <trkpt lat="49.0417" lon="2.03851">
        <ele>70.3</ele>
        <time>2022-03-04T18:13:02Z</time>
      </trkpt>
      <trkpt lat="49.04167" lon="2.03855">
        <ele>68.9</ele>
        <time>2022-03-04T18:13:08Z</time>
      </trkpt>
      <trkpt lat="49.04164" lon="2.03861">
        <ele>67.3</ele>
        <time>2022-03-04T18:13:14Z</time>
      </trkpt>
      <trkpt lat="49.04161" lon="2.03864">
        <ele>66.1</ele>
        <time>2022-03-04T18:13:19Z</time>
      </trkpt>
      <trkpt lat="49.04157" lon="2.03866">
        <ele>64.6</ele>
        <time>2022-03-04T18:13:25Z</time>
      </trkpt>
      <trkpt lat="49.04154" lon="2.03868">
        <ele>63.5</ele>
        <time>2022-03-04T18:13:30Z</time>
      </trkpt>
      <trkpt lat="49.04152" lon="2.03869">
        <ele>62.9</ele>
        <time>2022-03-04T18:13:36Z</time>
      </trkpt>
      <trkpt lat="49.0415" lon="2.03875">
        <ele>61.4</ele>
        <time>2022-03-04T18:13:42Z</time>
      </trkpt>
      <trkpt lat="49.04146" lon="2.0388">
        <ele>59.4</ele>
        <time>2022-03-04T18:13:47Z</time>
      </trkpt>
      <trkpt lat="49.04142" lon="2.0388">
        <ele>58.3</ele>
        <time>2022-03-04T18:13:53Z</time>
      </trkpt>
      <trkpt lat="49.0414" lon="2.03881">
        <ele>57.5</ele>
        <time>2022-03-04T18:13:58Z</time>
      </trkpt>
      <trkpt lat="49.04138" lon="2.03884">
        <ele>56.6</ele>
        <time>2022-03-04T18:14:04Z</time>
      </trkpt>
      <trkpt lat="49.04136" lon="2.03885">
        <ele>56.1</ele>
        <time>2022-03-04T18:14:09Z</time>
      </trkpt>
      <trkpt lat="49.04135" lon="2.03884">
        <ele>56.1</ele>
        <time>2022-03-04T18:14:15Z</time>
      </trkpt>
      <trkpt lat="49.04131" lon="2.03888">
        <ele>55.1</ele>
        <time>2022-03-04T18:14:21Z</time>
      </trkpt>
      <trkpt lat="49.04127" lon="2.03891">
        <ele>54.2</ele>
        <time>2022-03-04T18:14:27Z</time>
      </trkpt>
      <trkpt lat="49.04123" lon="2.03896">
        <ele>53.4</ele>
        <time>2022-03-04T18:14:32Z</time>
      </trkpt>
      <trkpt lat="49.04119" lon="2.03902">
        <ele>52.6</ele>
        <time>2022-03-04T18:14:38Z</time>
      </trkpt>
      <trkpt lat="49.04114" lon="2.03907">
        <ele>51.7</ele>
        <time>2022-03-04T18:14:44Z</time>
      </trkpt>
      <trkpt lat="49.04109" lon="2.03914">
        <ele>50.8</ele>
        <time>2022-03-04T18:14:49Z</time>
      </trkpt>
      <trkpt lat="49.04104" lon="2.03921">
        <ele>49.7</ele>
        <time>2022-03-04T18:14:55Z</time>
      </trkpt>
      <trkpt lat="49.041" lon="2.03926">
        <ele>48.7</ele>
        <time>2022-03-04T18:15:00Z</time>
      </trkpt>
      <trkpt lat="49.04095" lon="2.03932">
        <ele>47.6</ele>
        <time>2022-03-04T18:15:06Z</time>
      </trkpt>
      <trkpt lat="49.04093" lon="2.03936">
        <ele>46.9</ele>
        <time>2022-03-04T18:15:11Z</time>
      </trkpt>
      <trkpt lat="49.0409" lon="2.03938">
        <ele>46.4</ele>
        <time>2022-03-04T18:15:17Z</time>
      </trkpt>
      <trkpt lat="49.04086" lon="2.03941">
        <ele>45.7</ele>
        <time>2022-03-04T18:15:22Z</time>
      </trkpt>
      <trkpt lat="49.0408" lon="2.03948">
        <ele>44.7</ele>
        <time>2022-03-04T18:15:28Z</time>
      </trkpt>
      <trkpt lat="49.04074" lon="2.03954">
        <ele>44.2</ele>
        <time>2022-03-04T18:15:33Z</time>
      </trkpt>
      <trkpt lat="49.04067" lon="2.03964">
        <ele>43.4</ele>
        <time>2022-03-04T18:15:39Z</time>
      </trkpt>
      <trkpt lat="49.04062" lon="2.0397">
        <ele>42.7</ele>
        <time>2022-03-04T18:15:44Z</time>
      </trkpt>
      <trkpt lat="49.04057" lon="2.03975">
        <ele>42</ele>
        <time>2022-03-04T18:15:50Z</time>
      </trkpt>
      <trkpt lat="49.04054" lon="2.03979">
        <ele>41.6</ele>
        <time>2022-03-04T18:15:55Z</time>
      </trkpt>
      <trkpt lat="49.04048" lon="2.03983">
        <ele>40.9</ele>
        <time>2022-03-04T18:16:01Z</time>
      </trkpt>
      <trkpt lat="49.04043" lon="2.03988">
        <ele>40.3</ele>
        <time>2022-03-04T18:16:06Z</time>
      </trkpt>
      <trkpt lat="49.04038" lon="2.03992">
        <ele>39.8</ele>
        <time>2022-03-04T18:16:12Z</time>
      </trkpt>
      <trkpt lat="49.04033" lon="2.03998">
        <ele>39.4</ele>
        <time>2022-03-04T18:16:17Z</time>
      </trkpt>
      <trkpt lat="49.04027" lon="2.04005">
        <ele>38.5</ele>
        <time>2022-03-04T18:16:23Z</time>
      </trkpt>
      <trkpt lat="49.04021" lon="2.04012">
        <ele>37.6</ele>
        <time>2022-03-04T18:16:29Z</time>
      </trkpt>
      <trkpt lat="49.04019" lon="2.04014">
        <ele>37.3</ele>
        <time>2022-03-04T18:16:34Z</time>
      </trkpt>
      <trkpt lat="49.04013" lon="2.04021">
        <ele>36.7</ele>
        <time>2022-03-04T18:16:40Z</time>
      </trkpt>
      <trkpt lat="49.04009" lon="2.04027">
        <ele>36.3</ele>
        <time>2022-03-04T18:16:45Z</time>
      </trkpt>
      <trkpt lat="49.04003" lon="2.04034">
        <ele>35.9</ele>
        <time>2022-03-04T18:16:51Z</time>
      </trkpt>
      <trkpt lat="49.03999" lon="2.04042">
        <ele>35.4</ele>
        <time>2022-03-04T18:16:57Z</time>
      </trkpt>
      <trkpt lat="49.03993" lon="2.04046">
        <ele>34.8</ele>
        <time>2022-03-04T18:17:02Z</time>
      </trkpt>
      <trkpt lat="49.03986" lon="2.04051">
        <ele>34.2</ele>
        <time>2022-03-04T18:17:08Z</time>
      </trkpt>
      <trkpt lat="49.03982" lon="2.04058">
        <ele>33.7</ele>
        <time>2022-03-04T18:17:13Z</time>
      </trkpt>
      <trkpt lat="49.03977" lon="2.04062">
        <ele>33.4</ele>
        <time>2022-03-04T18:17:19Z</time>
      </trkpt>
      <trkpt lat="49.03975" lon="2.04065">
        <ele>33.2</ele>
        <time>2022-03-04T18:17:24Z</time>
      </trkpt>
      <trkpt lat="49.03968" lon="2.04078">
        <ele>32.1</ele>
        <time>2022-03-04T18:17:30Z</time>
      </trkpt>
      <trkpt lat="49.03966" lon="2.04085">
        <ele>31.5</ele>
        <time>2022-03-04T18:17:35Z</time>
      </trkpt>
      <trkpt lat="49.03969" lon="2.04091">
        <ele>31.9</ele>
        <time>2022-03-04T18:17:41Z</time>
      </trkpt>
      <trkpt lat="49.0397" lon="2.04094">
        <ele>32</ele>
        <time>2022-03-04T18:17:46Z</time>
      </trkpt>
      <trkpt lat="49.0397" lon="2.04095">
        <ele>32</ele>
        <time>2022-03-04T18:17:51Z</time>
      </trkpt>
      <trkpt lat="49.0397" lon="2.04096">
        <ele>31.9</ele>
        <time>2022-03-04T18:17:56Z</time>
      </trkpt>
      <trkpt lat="49.0397" lon="2.04095">
        <ele>31.9</ele>
        <time>2022-03-04T18:18:02Z</time>
      </trkpt>
      <trkpt lat="49.0397" lon="2.04094">
        <ele>31.9</ele>
        <time>2022-03-04T18:18:07Z</time>
      </trkpt>
      <trkpt lat="49.0397" lon="2.04093">
        <ele>31.9</ele>
        <time>2022-03-04T18:18:13Z</time>
      </trkpt>
      <trkpt lat="49.0397" lon="2.04092">
        <ele>31.9</ele>
        <time>2022-03-04T18:18:18Z</time>
      </trkpt>
      <trkpt lat="49.0397" lon="2.04091">
        <ele>32</ele>
        <time>2022-03-04T18:18:23Z</time>
      </trkpt>
      <trkpt lat="49.0397" lon="2.0409">
        <ele>32</ele>
        <time>2022-03-04T18:18:29Z</time>
      </trkpt>
      <trkpt lat="49.0397" lon="2.0409">
        <ele>32</ele>
        <time>2022-03-04T18:18:35Z</time>
      </trkpt>
      <trkpt lat="49.0397" lon="2.0409">
        <ele>32.1</ele>
        <time>2022-03-04T18:18:40Z</time>
      </trkpt>
      <trkpt lat="49.0397" lon="2.04089">
        <ele>32.1</ele>
        <time>2022-03-04T18:18:45Z</time>
      </trkpt>
      <trkpt lat="49.0397" lon="2.04089">
        <ele>32.2</ele>
        <time>2022-03-04T18:18:50Z</time>
      </trkpt>
      <trkpt lat="49.0397" lon="2.04089">
        <ele>32.3</ele>
        <time>2022-03-04T18:18:55Z</time>
      </trkpt>
      <trkpt lat="49.03971" lon="2.04089">
        <ele>32.3</ele>
        <time>2022-03-04T18:19:01Z</time>
      </trkpt>
      <trkpt lat="49.03971" lon="2.04089">
        <ele>32.4</ele>
        <time>2022-03-04T18:19:07Z</time>
      </trkpt>
      <trkpt lat="49.03971" lon="2.04089">
        <ele>32.4</ele>
        <time>2022-03-04T18:19:13Z</time>
      </trkpt>
      <trkpt lat="49.03971" lon="2.04088">
        <ele>32.4</ele>
        <time>2022-03-04T18:19:19Z</time>
      </trkpt>
      <trkpt lat="49.03971" lon="2.04088">
        <ele>32.4</ele>
        <time>2022-03-04T18:19:25Z</time>
      </trkpt>
      <trkpt lat="49.0397" lon="2.04088">
        <ele>32.3</ele>
        <time>2022-03-04T18:19:30Z</time>
      </trkpt>
      <trkpt lat="49.0397" lon="2.04088">
        <ele>32.3</ele>
        <time>2022-03-04T18:19:36Z</time>
      </trkpt>
      <trkpt lat="49.0397" lon="2.04088">
        <ele>32.3</ele>
        <time>2022-03-04T18:19:41Z</time>
      </trkpt>
      <trkpt lat="49.0397" lon="2.04087">
        <ele>32.3</ele>
        <time>2022-03-04T18:19:47Z</time>
      </trkpt>
      <trkpt lat="49.0397" lon="2.04087">
        <ele>32.3</ele>
        <time>2022-03-04T18:19:52Z</time>
      </trkpt>
      <trkpt lat="49.0397" lon="2.04086">
        <ele>32.3</ele>
        <time>2022-03-04T18:19:58Z</time>
      </trkpt>
      <trkpt lat="49.0397" lon="2.04086">
        <ele>32.3</ele>
        <time>2022-03-04T18:20:03Z</time>
      </trkpt>
      <trkpt lat="49.0397" lon="2.04085">
        <ele>32.3</ele>
        <time>2022-03-04T18:20:09Z</time>
      </trkpt>
      <trkpt lat="49.0397" lon="2.04085">
        <ele>32.2</ele>
        <time>2022-03-04T18:20:15Z</time>
      </trkpt>
      <trkpt lat="49.03969" lon="2.04085">
        <ele>32.2</ele>
        <time>2022-03-04T18:20:20Z</time>
      </trkpt>
      <trkpt lat="49.03969" lon="2.04085">
        <ele>32.2</ele>
        <time>2022-03-04T18:20:25Z</time>
      </trkpt>
      <trkpt lat="49.0397" lon="2.04085">
        <ele>32.2</ele>
        <time>2022-03-04T18:20:31Z</time>
      </trkpt>
      <trkpt lat="49.0397" lon="2.04085">
        <ele>32.2</ele>
        <time>2022-03-04T18:20:37Z</time>
      </trkpt>
      <trkpt lat="49.0397" lon="2.04085">
        <ele>32.3</ele>
        <time>2022-03-04T18:20:43Z</time>
      </trkpt>
      <trkpt lat="49.0397" lon="2.04085">
        <ele>32.3</ele>
        <time>2022-03-04T18:20:49Z</time>
      </trkpt>
      <trkpt lat="49.0397" lon="2.04084">
        <ele>32.3</ele>
        <time>2022-03-04T18:20:54Z</time>
      </trkpt>
      <trkpt lat="49.0397" lon="2.04082">
        <ele>32.4</ele>
        <time>2022-03-04T18:21:00Z</time>
      </trkpt>
      <trkpt lat="49.03969" lon="2.04081">
        <ele>32.3</ele>
        <time>2022-03-04T18:21:06Z</time>
      </trkpt>
      <trkpt lat="49.03969" lon="2.04079">
        <ele>32.2</ele>
        <time>2022-03-04T18:21:11Z</time>
      </trkpt>
      <trkpt lat="49.03968" lon="2.04079">
        <ele>32.1</ele>
        <time>2022-03-04T18:21:17Z</time>
      </trkpt>
      <trkpt lat="49.03967" lon="2.04078">
        <ele>32</ele>
        <time>2022-03-04T18:21:22Z</time>
      </trkpt>
      <trkpt lat="49.03967" lon="2.04077">
        <ele>32</ele>
        <time>2022-03-04T18:21:27Z</time>
      </trkpt>
      <trkpt lat="49.03967" lon="2.04077">
        <ele>31.9</ele>
        <time>2022-03-04T18:21:32Z</time>
      </trkpt>
      <trkpt lat="49.03967" lon="2.04077">
        <ele>31.9</ele>
        <time>2022-03-04T18:21:38Z</time>
      </trkpt>
      <trkpt lat="49.03967" lon="2.04077">
        <ele>31.9</ele>
        <time>2022-03-04T18:21:43Z</time>
      </trkpt>
      <trkpt lat="49.03966" lon="2.04078">
        <ele>31.7</ele>
        <time>2022-03-04T18:21:49Z</time>
      </trkpt>
      <trkpt lat="49.03964" lon="2.0408">
        <ele>31.1</ele>
        <time>2022-03-04T18:21:54Z</time>
      </trkpt>
      <trkpt lat="49.03957" lon="2.04086">
        <ele>29</ele>
        <time>2022-03-04T18:22:00Z</time>
      </trkpt>
      <trkpt lat="49.0395" lon="2.04094">
        <ele>26.2</ele>
        <time>2022-03-04T18:22:06Z</time>
      </trkpt>
      <trkpt lat="49.03943" lon="2.04102">
        <ele>23.2</ele>
        <time>2022-03-04T18:22:12Z</time>
      </trkpt>
      <trkpt lat="49.03938" lon="2.04109">
        <ele>22</ele>
        <time>2022-03-04T18:22:17Z</time>
      </trkpt>
      <trkpt lat="49.0393" lon="2.04118">
        <ele>21.5</ele>
        <time>2022-03-04T18:22:23Z</time>
      </trkpt>
      <trkpt lat="49.03923" lon="2.04126">
        <ele>21.2</ele>
        <time>2022-03-04T18:22:29Z</time>
      </trkpt>
      <trkpt lat="49.03917" lon="2.04132">
        <ele>21</ele>
        <time>2022-03-04T18:22:35Z</time>
      </trkpt>
      <trkpt lat="49.03912" lon="2.04138">
        <ele>21</ele>
        <time>2022-03-04T18:22:40Z</time>
      </trkpt>
      <trkpt lat="49.03907" lon="2.04144">
        <ele>21</ele>
        <time>2022-03-04T18:22:46Z</time>
      </trkpt>
      <trkpt lat="49.03903" lon="2.04149">
        <ele>21</ele>
        <time>2022-03-04T18:22:51Z</time>
      </trkpt>
      <trkpt lat="49.03897" lon="2.04155">
        <ele>21</ele>
        <time>2022-03-04T18:22:57Z</time>
      </trkpt>
      <trkpt lat="49.03892" lon="2.0416">
        <ele>21</ele>
        <time>2022-03-04T18:23:02Z</time>
      </trkpt>
      <trkpt lat="49.03886" lon="2.04169">
        <ele>21</ele>
        <time>2022-03-04T18:23:08Z</time>
      </trkpt>
      <trkpt lat="49.03882" lon="2.04175">
        <ele>21</ele>
        <time>2022-03-04T18:23:13Z</time>
      </trkpt>
      <trkpt lat="49.03877" lon="2.04183">
        <ele>21</ele>
        <time>2022-03-04T18:23:19Z</time>
      </trkpt>
      <trkpt lat="49.03872" lon="2.04188">
        <ele>21</ele>
        <time>2022-03-04T18:23:24Z</time>
      </trkpt>
      <trkpt lat="49.03865" lon="2.04194">
        <ele>21</ele>
        <time>2022-03-04T18:23:30Z</time>
      </trkpt>
      <trkpt lat="49.03858" lon="2.04201">
        <ele>21</ele>
        <time>2022-03-04T18:23:36Z</time>
      </trkpt>
      <trkpt lat="49.03851" lon="2.04209">
        <ele>21.2</ele>
        <time>2022-03-04T18:23:42Z</time>
      </trkpt>
      <trkpt lat="49.03847" lon="2.04216">
        <ele>21.4</ele>
        <time>2022-03-04T18:23:47Z</time>
      </trkpt>
      <trkpt lat="49.03841" lon="2.04224">
        <ele>21.7</ele>
        <time>2022-03-04T18:23:53Z</time>
      </trkpt>
      <trkpt lat="49.03835" lon="2.04227">
        <ele>21.8</ele>
        <time>2022-03-04T18:23:58Z</time>
      </trkpt>
      <trkpt lat="49.03829" lon="2.04232">
        <ele>21.6</ele>
        <time>2022-03-04T18:24:03Z</time>
      </trkpt>
      <trkpt lat="49.03824" lon="2.04239">
        <ele>21.3</ele>
        <time>2022-03-04T18:24:09Z</time>
      </trkpt>
      <trkpt lat="49.03819" lon="2.04246">
        <ele>21.1</ele>
        <time>2022-03-04T18:24:15Z</time>
      </trkpt>
      <trkpt lat="49.03814" lon="2.04252">
        <ele>21</ele>
        <time>2022-03-04T18:24:20Z</time>
      </trkpt>
      <trkpt lat="49.03808" lon="2.04257">
        <ele>21</ele>
        <time>2022-03-04T18:24:26Z</time>
      </trkpt>
      <trkpt lat="49.03802" lon="2.04264">
        <ele>21</ele>
        <time>2022-03-04T18:24:31Z</time>
      </trkpt>
      <trkpt lat="49.03795" lon="2.04273">
        <ele>21</ele>
        <time>2022-03-04T18:24:37Z</time>
      </trkpt>
      <trkpt lat="49.03789" lon="2.0428">
        <ele>21.1</ele>
        <time>2022-03-04T18:24:42Z</time>
      </trkpt>
      <trkpt lat="49.03782" lon="2.04287">
        <ele>21.5</ele>
        <time>2022-03-04T18:24:48Z</time>
      </trkpt>
      <trkpt lat="49.03776" lon="2.04294">
        <ele>22.4</ele>
        <time>2022-03-04T18:24:54Z</time>
      </trkpt>
      <trkpt lat="49.03769" lon="2.04303">
        <ele>23.7</ele>
        <time>2022-03-04T18:25:00Z</time>
      </trkpt>
      <trkpt lat="49.03764" lon="2.04309">
        <ele>24.7</ele>
        <time>2022-03-04T18:25:05Z</time>
      </trkpt>
      <trkpt lat="49.03759" lon="2.04314">
        <ele>25.6</ele>
        <time>2022-03-04T18:25:10Z</time>
      </trkpt>
      <trkpt lat="49.03753" lon="2.0432">
        <ele>26.6</ele>
        <time>2022-03-04T18:25:16Z</time>
      </trkpt>
      <trkpt lat="49.03747" lon="2.04329">
        <ele>28.1</ele>
        <time>2022-03-04T18:25:22Z</time>
      </trkpt>
      <trkpt lat="49.03741" lon="2.04336">
        <ele>29.3</ele>
        <time>2022-03-04T18:25:28Z</time>
      </trkpt>
      <trkpt lat="49.03734" lon="2.04343">
        <ele>30</ele>
        <time>2022-03-04T18:25:34Z</time>
      </trkpt>
      <trkpt lat="49.03729" lon="2.04349">
        <ele>30</ele>
        <time>2022-03-04T18:25:40Z</time>
      </trkpt>
      <trkpt lat="49.03728" lon="2.04351">
        <ele>29.9</ele>
        <time>2022-03-04T18:25:45Z</time>
      </trkpt>
      <trkpt lat="49.03728" lon="2.04351">
        <ele>29.9</ele>
        <time>2022-03-04T18:25:51Z</time>
      </trkpt>
      <trkpt lat="49.03728" lon="2.04352">
        <ele>29.9</ele>
        <time>2022-03-04T18:25:56Z</time>
      </trkpt>
      <trkpt lat="49.03728" lon="2.04352">
        <ele>29.8</ele>
        <time>2022-03-04T18:26:02Z</time>
      </trkpt>
      <trkpt lat="49.03728" lon="2.04352">
        <ele>29.9</ele>
        <time>2022-03-04T18:26:08Z</time>
      </trkpt>
      <trkpt lat="49.03728" lon="2.04354">
        <ele>29.7</ele>
        <time>2022-03-04T18:26:14Z</time>
      </trkpt>
      <trkpt lat="49.03728" lon="2.04354">
        <ele>29.7</ele>
        <time>2022-03-04T18:26:19Z</time>
      </trkpt>
      <trkpt lat="49.03728" lon="2.04354">
        <ele>29.7</ele>
        <time>2022-03-04T18:26:25Z</time>
      </trkpt>
      <trkpt lat="49.03729" lon="2.04354">
        <ele>29.7</ele>
        <time>2022-03-04T18:26:30Z</time>
      </trkpt>
      <trkpt lat="49.03734" lon="2.04363">
        <ele>29.3</ele>
        <time>2022-03-04T18:26:36Z</time>
      </trkpt>
      <trkpt lat="49.03734" lon="2.04368">
        <ele>29</ele>
        <time>2022-03-04T18:26:41Z</time>
      </trkpt>
      <trkpt lat="49.03733" lon="2.04372">
        <ele>28.7</ele>
        <time>2022-03-04T18:26:47Z</time>
      </trkpt>
      <trkpt lat="49.03731" lon="2.04374">
        <ele>28.3</ele>
        <time>2022-03-04T18:26:52Z</time>
      </trkpt>
      <trkpt lat="49.0373" lon="2.04377">
        <ele>28.1</ele>
        <time>2022-03-04T18:26:58Z</time>
      </trkpt>
      <trkpt lat="49.03728" lon="2.04382">
        <ele>27.4</ele>
        <time>2022-03-04T18:27:04Z</time>
      </trkpt>
      <trkpt lat="49.03725" lon="2.04391">
        <ele>26.3</ele>
        <time>2022-03-04T18:27:10Z</time>
      </trkpt>
      <trkpt lat="49.03725" lon="2.04398">
        <ele>26</ele>
        <time>2022-03-04T18:27:16Z</time>
      </trkpt>
      <trkpt lat="49.03722" lon="2.04407">
        <ele>25.3</ele>
        <time>2022-03-04T18:27:21Z</time>
      </trkpt>
      <trkpt lat="49.03726" lon="2.04406">
        <ele>25.8</ele>
        <time>2022-03-04T18:27:27Z</time>
      </trkpt>
      <trkpt lat="49.0373" lon="2.0441">
        <ele>25.9</ele>
        <time>2022-03-04T18:27:33Z</time>
      </trkpt>
      <trkpt lat="49.03735" lon="2.04415">
        <ele>26</ele>
        <time>2022-03-04T18:27:38Z</time>
      </trkpt>
      <trkpt lat="49.03742" lon="2.04421">
        <ele>26</ele>
        <time>2022-03-04T18:27:44Z</time>
      </trkpt>
      <trkpt lat="49.03747" lon="2.04428">
        <ele>25.5</ele>
        <time>2022-03-04T18:27:50Z</time>
      </trkpt>
      <trkpt lat="49.0375" lon="2.04436">
        <ele>24.8</ele>
        <time>2022-03-04T18:27:56Z</time>
      </trkpt>
      <trkpt lat="49.0375" lon="2.04441">
        <ele>24.3</ele>
        <time>2022-03-04T18:28:02Z</time>
      </trkpt>
      <trkpt lat="49.03753" lon="2.04448">
        <ele>23.8</ele>
        <time>2022-03-04T18:28:07Z</time>
      </trkpt>
      <trkpt lat="49.03754" lon="2.04455">
        <ele>23</ele>
        <time>2022-03-04T18:28:12Z</time>
      </trkpt>
      <trkpt lat="49.03759" lon="2.04464">
        <ele>22.4</ele>
        <time>2022-03-04T18:28:18Z</time>
      </trkpt>
      <trkpt lat="49.03765" lon="2.04472">
        <ele>22.1</ele>
        <time>2022-03-04T18:28:24Z</time>
      </trkpt>
      <trkpt lat="49.0377" lon="2.04478">
        <ele>22.1</ele>
        <time>2022-03-04T18:28:29Z</time>
      </trkpt>
      <trkpt lat="49.03775" lon="2.04486">
        <ele>21.9</ele>
        <time>2022-03-04T18:28:35Z</time>
      </trkpt>
      <trkpt lat="49.0378" lon="2.04493">
        <ele>21.7</ele>
        <time>2022-03-04T18:28:40Z</time>
      </trkpt>
      <trkpt lat="49.03786" lon="2.04502">
        <ele>21.8</ele>
        <time>2022-03-04T18:28:46Z</time>
      </trkpt>
      <trkpt lat="49.03794" lon="2.0451">
        <ele>22.3</ele>
        <time>2022-03-04T18:28:52Z</time>
      </trkpt>
      <trkpt lat="49.03799" lon="2.04515">
        <ele>22.5</ele>
        <time>2022-03-04T18:28:57Z</time>
      </trkpt>
      <trkpt lat="49.03802" lon="2.04523">
        <ele>22.2</ele>
        <time>2022-03-04T18:29:02Z</time>
      </trkpt>
      <trkpt lat="49.03807" lon="2.04535">
        <ele>21.9</ele>
        <time>2022-03-04T18:29:08Z</time>
      </trkpt>
      <trkpt lat="49.03812" lon="2.04544">
        <ele>22</ele>
        <time>2022-03-04T18:29:14Z</time>
      </trkpt>
      <trkpt lat="49.03813" lon="2.04553">
        <ele>22</ele>
        <time>2022-03-04T18:29:20Z</time>
      </trkpt>
      <trkpt lat="49.03815" lon="2.04561">
        <ele>22.1</ele>
        <time>2022-03-04T18:29:25Z</time>
      </trkpt>
      <trkpt lat="49.03818" lon="2.04572">
        <ele>22.3</ele>
        <time>2022-03-04T18:29:31Z</time>
      </trkpt>
      <trkpt lat="49.0382" lon="2.04584">
        <ele>22.6</ele>
        <time>2022-03-04T18:29:37Z</time>
      </trkpt>
      <trkpt lat="49.03823" lon="2.04595">
        <ele>22.6</ele>
        <time>2022-03-04T18:29:43Z</time>
      </trkpt>
      <trkpt lat="49.03825" lon="2.04606">
        <ele>22.5</ele>
        <time>2022-03-04T18:29:48Z</time>
      </trkpt>
      <trkpt lat="49.03827" lon="2.04618">
        <ele>22.5</ele>
        <time>2022-03-04T18:29:54Z</time>
      </trkpt>
      <trkpt lat="49.03829" lon="2.0463">
        <ele>22.7</ele>
        <time>2022-03-04T18:30:00Z</time>
      </trkpt>
      <trkpt lat="49.03831" lon="2.04642">
        <ele>22.7</ele>
        <time>2022-03-04T18:30:06Z</time>
      </trkpt>
      <trkpt lat="49.03832" lon="2.04653">
        <ele>22.4</ele>
        <time>2022-03-04T18:30:11Z</time>
      </trkpt>
      <trkpt lat="49.03834" lon="2.04663">
        <ele>22.2</ele>
        <time>2022-03-04T18:30:16Z</time>
      </trkpt>
      <trkpt lat="49.03837" lon="2.04677">
        <ele>22.5</ele>
        <time>2022-03-04T18:30:22Z</time>
      </trkpt>
      <trkpt lat="49.03838" lon="2.0469">
        <ele>22.6</ele>
        <time>2022-03-04T18:30:28Z</time>
      </trkpt>
      <trkpt lat="49.0384" lon="2.04699">
        <ele>22.6</ele>
        <time>2022-03-04T18:30:33Z</time>
      </trkpt>
      <trkpt lat="49.03844" lon="2.0471">
        <ele>22.6</ele>
        <time>2022-03-04T18:30:39Z</time>
      </trkpt>
      <trkpt lat="49.03846" lon="2.04719">
        <ele>22.5</ele>
        <time>2022-03-04T18:30:44Z</time>
      </trkpt>
      <trkpt lat="49.03849" lon="2.04731">
        <ele>22.3</ele>
        <time>2022-03-04T18:30:50Z</time>
      </trkpt>
      <trkpt lat="49.03852" lon="2.04742">
        <ele>22.1</ele>
        <time>2022-03-04T18:30:56Z</time>
      </trkpt>
      <trkpt lat="49.03856" lon="2.04754">
        <ele>21.7</ele>
        <time>2022-03-04T18:31:02Z</time>
      </trkpt>
      <trkpt lat="49.03859" lon="2.04763">
        <ele>21.5</ele>
        <time>2022-03-04T18:31:07Z</time>
      </trkpt>
      <trkpt lat="49.03864" lon="2.04773">
        <ele>21.4</ele>
        <time>2022-03-04T18:31:13Z</time>
      </trkpt>
      <trkpt lat="49.03869" lon="2.04784">
        <ele>21.5</ele>
        <time>2022-03-04T18:31:19Z</time>
      </trkpt>
      <trkpt lat="49.03873" lon="2.04793">
        <ele>21.6</ele>
        <time>2022-03-04T18:31:24Z</time>
      </trkpt>
      <trkpt lat="49.03877" lon="2.04802">
        <ele>21.7</ele>
        <time>2022-03-04T18:31:30Z</time>
      </trkpt>
      <trkpt lat="49.03881" lon="2.04811">
        <ele>21.7</ele>
        <time>2022-03-04T18:31:35Z</time>
      </trkpt>
      <trkpt lat="49.03886" lon="2.04824">
        <ele>21.9</ele>
        <time>2022-03-04T18:31:41Z</time>
      </trkpt>
      <trkpt lat="49.03887" lon="2.04834">
        <ele>21.9</ele>
        <time>2022-03-04T18:31:46Z</time>
      </trkpt>
      <trkpt lat="49.03889" lon="2.04841">
        <ele>21.7</ele>
        <time>2022-03-04T18:31:51Z</time>
      </trkpt>
      <trkpt lat="49.03892" lon="2.04853">
        <ele>21.5</ele>
        <time>2022-03-04T18:31:57Z</time>
      </trkpt>
      <trkpt lat="49.03895" lon="2.04861">
        <ele>21.4</ele>
        <time>2022-03-04T18:32:02Z</time>
      </trkpt>
      <trkpt lat="49.03898" lon="2.04874">
        <ele>21.5</ele>
        <time>2022-03-04T18:32:08Z</time>
      </trkpt>
      <trkpt lat="49.039" lon="2.04887">
        <ele>21.4</ele>
        <time>2022-03-04T18:32:14Z</time>
      </trkpt>
      <trkpt lat="49.03902" lon="2.04899">
        <ele>21.6</ele>
        <time>2022-03-04T18:32:19Z</time>
      </trkpt>
      <trkpt lat="49.03905" lon="2.04909">
        <ele>22</ele>
        <time>2022-03-04T18:32:25Z</time>
      </trkpt>
      <trkpt lat="49.03908" lon="2.04917">
        <ele>22.4</ele>
        <time>2022-03-04T18:32:30Z</time>
      </trkpt>
      <trkpt lat="49.03912" lon="2.04925">
        <ele>22.6</ele>
        <time>2022-03-04T18:32:36Z</time>
      </trkpt>
      <trkpt lat="49.03918" lon="2.04932">
        <ele>23</ele>
        <time>2022-03-04T18:32:42Z</time>
      </trkpt>
      <trkpt lat="49.0392" lon="2.04944">
        <ele>23.1</ele>
        <time>2022-03-04T18:32:48Z</time>
      </trkpt>
      <trkpt lat="49.03927" lon="2.04952">
        <ele>22.7</ele>
        <time>2022-03-04T18:32:54Z</time>
      </trkpt>
      <trkpt lat="49.03937" lon="2.04958">
        <ele>22.4</ele>
        <time>2022-03-04T18:33:00Z</time>
      </trkpt>
      <trkpt lat="49.03942" lon="2.04961">
        <ele>22.1</ele>
        <time>2022-03-04T18:33:05Z</time>
      </trkpt>
      <trkpt lat="49.03947" lon="2.04963">
        <ele>22.1</ele>
        <time>2022-03-04T18:33:11Z</time>
      </trkpt>
      <trkpt lat="49.03952" lon="2.04965">
        <ele>22.2</ele>
        <time>2022-03-04T18:33:16Z</time>
      </trkpt>
      <trkpt lat="49.03958" lon="2.04971">
        <ele>22.1</ele>
        <time>2022-03-04T18:33:22Z</time>
      </trkpt>
      <trkpt lat="49.03962" lon="2.04979">
        <ele>22.3</ele>
        <time>2022-03-04T18:33:27Z</time>
      </trkpt>
      <trkpt lat="49.03965" lon="2.04992">
        <ele>22.4</ele>
        <time>2022-03-04T18:33:33Z</time>
      </trkpt>
      <trkpt lat="49.03965" lon="2.05003">
        <ele>22.5</ele>
        <time>2022-03-04T18:33:38Z</time>
      </trkpt>
      <trkpt lat="49.03965" lon="2.05015">
        <ele>22.4</ele>
        <time>2022-03-04T18:33:44Z</time>
      </trkpt>
      <trkpt lat="49.03963" lon="2.05023">
        <ele>22.3</ele>
        <time>2022-03-04T18:33:49Z</time>
      </trkpt>
      <trkpt lat="49.03959" lon="2.05035">
        <ele>22.2</ele>
        <time>2022-03-04T18:33:55Z</time>
      </trkpt>
      <trkpt lat="49.03955" lon="2.05041">
        <ele>21.9</ele>
        <time>2022-03-04T18:34:01Z</time>
      </trkpt>
      <trkpt lat="49.03951" lon="2.05046">
        <ele>21.7</ele>
        <time>2022-03-04T18:34:06Z</time>
      </trkpt>
      <trkpt lat="49.0395" lon="2.05062">
        <ele>21.6</ele>
        <time>2022-03-04T18:34:12Z</time>
      </trkpt>
      <trkpt lat="49.03953" lon="2.05073">
        <ele>22</ele>
        <time>2022-03-04T18:34:17Z</time>
      </trkpt>
      <trkpt lat="49.03956" lon="2.05085">
        <ele>22.3</ele>
        <time>2022-03-04T18:34:23Z</time>
      </trkpt>
      <trkpt lat="49.03959" lon="2.05097">
        <ele>22.5</ele>
        <time>2022-03-04T18:34:29Z</time>
      </trkpt>
      <trkpt lat="49.03961" lon="2.05107">
        <ele>22.7</ele>
        <time>2022-03-04T18:34:34Z</time>
      </trkpt>
      <trkpt lat="49.03955" lon="2.05113">
        <ele>22.2</ele>
        <time>2022-03-04T18:34:40Z</time>
      </trkpt>
      <trkpt lat="49.03947" lon="2.05118">
        <ele>21.7</ele>
        <time>2022-03-04T18:34:46Z</time>
      </trkpt>
      <trkpt lat="49.03939" lon="2.05124">
        <ele>21.8</ele>
        <time>2022-03-04T18:34:52Z</time>
      </trkpt>
      <trkpt lat="49.03933" lon="2.05131">
        <ele>21.8</ele>
        <time>2022-03-04T18:34:58Z</time>
      </trkpt>
      <trkpt lat="49.03926" lon="2.0514">
        <ele>21.7</ele>
        <time>2022-03-04T18:35:04Z</time>
      </trkpt>
      <trkpt lat="49.0392" lon="2.05148">
        <ele>21.6</ele>
        <time>2022-03-04T18:35:09Z</time>
      </trkpt>
      <trkpt lat="49.03915" lon="2.05159">
        <ele>21.7</ele>
        <time>2022-03-04T18:35:15Z</time>
      </trkpt>
      <trkpt lat="49.03911" lon="2.05166">
        <ele>21.8</ele>
        <time>2022-03-04T18:35:20Z</time>
      </trkpt>
      <trkpt lat="49.03905" lon="2.05179">
        <ele>21.6</ele>
        <time>2022-03-04T18:35:26Z</time>
      </trkpt>
      <trkpt lat="49.039" lon="2.0519">
        <ele>21.4</ele>
        <time>2022-03-04T18:35:32Z</time>
      </trkpt>
      <trkpt lat="49.03896" lon="2.05199">
        <ele>21.4</ele>
        <time>2022-03-04T18:35:38Z</time>
      </trkpt>
      <trkpt lat="49.0389" lon="2.0521">
        <ele>21.6</ele>
        <time>2022-03-04T18:35:44Z</time>
      </trkpt>
      <trkpt lat="49.03883" lon="2.05217">
        <ele>21.7</ele>
        <time>2022-03-04T18:35:50Z</time>
      </trkpt>
      <trkpt lat="49.03878" lon="2.05226">
        <ele>21.6</ele>
        <time>2022-03-04T18:35:56Z</time>
      </trkpt>
      <trkpt lat="49.03873" lon="2.05238">
        <ele>21.4</ele>
        <time>2022-03-04T18:36:02Z</time>
      </trkpt>
      <trkpt lat="49.03869" lon="2.05246">
        <ele>21.3</ele>
        <time>2022-03-04T18:36:07Z</time>
      </trkpt>
      <trkpt lat="49.03863" lon="2.0526">
        <ele>21.4</ele>
        <time>2022-03-04T18:36:13Z</time>
      </trkpt>
      <trkpt lat="49.03858" lon="2.05271">
        <ele>21.7</ele>
        <time>2022-03-04T18:36:19Z</time>
      </trkpt>
      <trkpt lat="49.03855" lon="2.05278">
        <ele>21.8</ele>
        <time>2022-03-04T18:36:24Z</time>
      </trkpt>
      <trkpt lat="49.03849" lon="2.05289">
        <ele>21.6</ele>
        <time>2022-03-04T18:36:30Z</time>
      </trkpt>
      <trkpt lat="49.03847" lon="2.05296">
        <ele>21.5</ele>
        <time>2022-03-04T18:36:35Z</time>
      </trkpt>
      <trkpt lat="49.03846" lon="2.0531">
        <ele>21.5</ele>
        <time>2022-03-04T18:36:41Z</time>
      </trkpt>
      <trkpt lat="49.03844" lon="2.05327">
        <ele>21.4</ele>
        <time>2022-03-04T18:36:47Z</time>
      </trkpt>
      <trkpt lat="49.03845" lon="2.05339">
        <ele>21.5</ele>
        <time>2022-03-04T18:36:52Z</time>
      </trkpt>
      <trkpt lat="49.03844" lon="2.0535">
        <ele>21.6</ele>
        <time>2022-03-04T18:36:58Z</time>
      </trkpt>
      <trkpt lat="49.03843" lon="2.05359">
        <ele>21.6</ele>
        <time>2022-03-04T18:37:03Z</time>
      </trkpt>
      <trkpt lat="49.0384" lon="2.05372">
        <ele>21.8</ele>
        <time>2022-03-04T18:37:09Z</time>
      </trkpt>
      <trkpt lat="49.03834" lon="2.0538">
        <ele>21.7</ele>
        <time>2022-03-04T18:37:14Z</time>
      </trkpt>
      <trkpt lat="49.03828" lon="2.05384">
        <ele>21.7</ele>
        <time>2022-03-04T18:37:19Z</time>
      </trkpt>
      <trkpt lat="49.0382" lon="2.0539">
        <ele>21.5</ele>
        <time>2022-03-04T18:37:25Z</time>
      </trkpt>
      <trkpt lat="49.03814" lon="2.05395">
        <ele>21.5</ele>
        <time>2022-03-04T18:37:30Z</time>
      </trkpt>
      <trkpt lat="49.03809" lon="2.054">
        <ele>21.5</ele>
        <time>2022-03-04T18:37:35Z</time>
      </trkpt>
      <trkpt lat="49.03803" lon="2.05408">
        <ele>21.6</ele>
        <time>2022-03-04T18:37:40Z</time>
      </trkpt>
      <trkpt lat="49.03795" lon="2.05416">
        <ele>21.6</ele>
        <time>2022-03-04T18:37:46Z</time>
      </trkpt>
      <trkpt lat="49.03787" lon="2.05421">
        <ele>21.5</ele>
        <time>2022-03-04T18:37:51Z</time>
      </trkpt>
      <trkpt lat="49.0378" lon="2.05427">
        <ele>21.4</ele>
        <time>2022-03-04T18:37:57Z</time>
      </trkpt>
      <trkpt lat="49.03775" lon="2.05431">
        <ele>21.5</ele>
        <time>2022-03-04T18:38:03Z</time>
      </trkpt>
      <trkpt lat="49.03767" lon="2.05436">
        <ele>21.7</ele>
        <time>2022-03-04T18:38:08Z</time>
      </trkpt>
      <trkpt lat="49.0376" lon="2.0544">
        <ele>21.8</ele>
        <time>2022-03-04T18:38:14Z</time>
      </trkpt>
      <trkpt lat="49.03752" lon="2.05442">
        <ele>21.9</ele>
        <time>2022-03-04T18:38:19Z</time>
      </trkpt>
      <trkpt lat="49.03744" lon="2.05441">
        <ele>21.9</ele>
        <time>2022-03-04T18:38:24Z</time>
      </trkpt>
      <trkpt lat="49.03735" lon="2.05438">
        <ele>21.8</ele>
        <time>2022-03-04T18:38:30Z</time>
      </trkpt>
      <trkpt lat="49.03728" lon="2.05436">
        <ele>21.7</ele>
        <time>2022-03-04T18:38:35Z</time>
      </trkpt>
      <trkpt lat="49.0372" lon="2.05435">
        <ele>21.7</ele>
        <time>2022-03-04T18:38:40Z</time>
      </trkpt>
      <trkpt lat="49.03712" lon="2.05434">
        <ele>21.6</ele>
        <time>2022-03-04T18:38:46Z</time>
      </trkpt>
      <trkpt lat="49.03702" lon="2.05435">
        <ele>21.7</ele>
        <time>2022-03-04T18:38:52Z</time>
      </trkpt>
      <trkpt lat="49.03696" lon="2.05437">
        <ele>21.7</ele>
        <time>2022-03-04T18:38:57Z</time>
      </trkpt>
      <trkpt lat="49.03687" lon="2.05443">
        <ele>21.7</ele>
        <time>2022-03-04T18:39:03Z</time>
      </trkpt>
      <trkpt lat="49.03676" lon="2.05447">
        <ele>21.5</ele>
        <time>2022-03-04T18:39:09Z</time>
      </trkpt>
      <trkpt lat="49.03668" lon="2.05451">
        <ele>21.3</ele>
        <time>2022-03-04T18:39:15Z</time>
      </trkpt>
      <trkpt lat="49.03662" lon="2.05452">
        <ele>21.3</ele>
        <time>2022-03-04T18:39:20Z</time>
      </trkpt>
      <trkpt lat="49.03655" lon="2.05452">
        <ele>21.3</ele>
        <time>2022-03-04T18:39:25Z</time>
      </trkpt>
      <trkpt lat="49.03647" lon="2.05452">
        <ele>21.3</ele>
        <time>2022-03-04T18:39:31Z</time>
      </trkpt>
      <trkpt lat="49.0364" lon="2.0545">
        <ele>21.2</ele>
        <time>2022-03-04T18:39:36Z</time>
      </trkpt>
      <trkpt lat="49.03633" lon="2.05448">
        <ele>21.3</ele>
        <time>2022-03-04T18:39:42Z</time>
      </trkpt>
      <trkpt lat="49.03625" lon="2.05444">
        <ele>21.5</ele>
        <time>2022-03-04T18:39:48Z</time>
      </trkpt>
      <trkpt lat="49.03618" lon="2.05439">
        <ele>21.6</ele>
        <time>2022-03-04T18:39:54Z</time>
      </trkpt>
      <trkpt lat="49.03609" lon="2.05436">
        <ele>21.7</ele>
        <time>2022-03-04T18:40:00Z</time>
      </trkpt>
      <trkpt lat="49.03601" lon="2.05433">
        <ele>21.8</ele>
        <time>2022-03-04T18:40:06Z</time>
      </trkpt>
      <trkpt lat="49.03593" lon="2.05426">
        <ele>21.6</ele>
        <time>2022-03-04T18:40:12Z</time>
      </trkpt>
      <trkpt lat="49.03586" lon="2.05421">
        <ele>21.3</ele>
        <time>2022-03-04T18:40:18Z</time>
      </trkpt>
      <trkpt lat="49.0358" lon="2.05417">
        <ele>21.3</ele>
        <time>2022-03-04T18:40:23Z</time>
      </trkpt>
      <trkpt lat="49.0357" lon="2.05411">
        <ele>21.8</ele>
        <time>2022-03-04T18:40:29Z</time>
      </trkpt>
      <trkpt lat="49.03562" lon="2.05405">
        <ele>21.9</ele>
        <time>2022-03-04T18:40:35Z</time>
      </trkpt>
      <trkpt lat="49.03556" lon="2.05402">
        <ele>21.9</ele>
        <time>2022-03-04T18:40:40Z</time>
      </trkpt>
      <trkpt lat="49.03549" lon="2.05399">
        <ele>21.9</ele>
        <time>2022-03-04T18:40:46Z</time>
      </trkpt>
      <trkpt lat="49.0354" lon="2.05399">
        <ele>22.1</ele>
        <time>2022-03-04T18:40:52Z</time>
      </trkpt>
      <trkpt lat="49.03533" lon="2.05396">
        <ele>22.1</ele>
        <time>2022-03-04T18:40:57Z</time>
      </trkpt>
      <trkpt lat="49.03528" lon="2.0539">
        <ele>22</ele>
        <time>2022-03-04T18:41:02Z</time>
      </trkpt>
      <trkpt lat="49.03524" lon="2.05382">
        <ele>22.1</ele>
        <time>2022-03-04T18:41:07Z</time>
      </trkpt>
      <trkpt lat="49.03519" lon="2.05373">
        <ele>22.1</ele>
        <time>2022-03-04T18:41:13Z</time>
      </trkpt>
      <trkpt lat="49.03514" lon="2.05362">
        <ele>22</ele>
        <time>2022-03-04T18:41:19Z</time>
      </trkpt>
      <trkpt lat="49.03514" lon="2.05361">
        <ele>22</ele>
        <time>2022-03-04T18:41:24Z</time>
      </trkpt>
      <trkpt lat="49.03515" lon="2.05362">
        <ele>22</ele>
        <time>2022-03-04T18:41:30Z</time>
      </trkpt>
      <trkpt lat="49.03516" lon="2.05363">
        <ele>22</ele>
        <time>2022-03-04T18:41:35Z</time>
      </trkpt>
      <trkpt lat="49.03517" lon="2.05363">
        <ele>22</ele>
        <time>2022-03-04T18:41:41Z</time>
      </trkpt>
      <trkpt lat="49.03517" lon="2.05363">
        <ele>22</ele>
        <time>2022-03-04T18:41:46Z</time>
      </trkpt>
      <trkpt lat="49.03517" lon="2.05364">
        <ele>22</ele>
        <time>2022-03-04T18:41:52Z</time>
      </trkpt>
      <trkpt lat="49.03517" lon="2.05364">
        <ele>22</ele>
        <time>2022-03-04T18:41:57Z</time>
      </trkpt>
      <trkpt lat="49.03518" lon="2.05364">
        <ele>22</ele>
        <time>2022-03-04T18:42:03Z</time>
      </trkpt>
      <trkpt lat="49.03518" lon="2.05364">
        <ele>22</ele>
        <time>2022-03-04T18:42:08Z</time>
      </trkpt>
      <trkpt lat="49.03518" lon="2.05364">
        <ele>22</ele>
        <time>2022-03-04T18:42:14Z</time>
      </trkpt>
      <trkpt lat="49.03518" lon="2.05363">
        <ele>22</ele>
        <time>2022-03-04T18:42:19Z</time>
      </trkpt>
      <trkpt lat="49.03519" lon="2.05363">
        <ele>22</ele>
        <time>2022-03-04T18:42:25Z</time>
      </trkpt>
      <trkpt lat="49.03519" lon="2.05363">
        <ele>22</ele>
        <time>2022-03-04T18:42:30Z</time>
      </trkpt>
      <trkpt lat="49.03519" lon="2.05364">
        <ele>22</ele>
        <time>2022-03-04T18:42:36Z</time>
      </trkpt>
      <trkpt lat="49.03519" lon="2.05364">
        <ele>22</ele>
        <time>2022-03-04T18:42:41Z</time>
      </trkpt>
      <trkpt lat="49.03519" lon="2.05365">
        <ele>22</ele>
        <time>2022-03-04T18:42:47Z</time>
      </trkpt>
      <trkpt lat="49.03519" lon="2.05366">
        <ele>22.1</ele>
        <time>2022-03-04T18:42:52Z</time>
      </trkpt>
      <trkpt lat="49.03519" lon="2.05366">
        <ele>22.1</ele>
        <time>2022-03-04T18:42:58Z</time>
      </trkpt>
      <trkpt lat="49.03519" lon="2.05366">
        <ele>22.1</ele>
        <time>2022-03-04T18:43:03Z</time>
      </trkpt>
      <trkpt lat="49.03519" lon="2.05366">
        <ele>22.1</ele>
        <time>2022-03-04T18:43:09Z</time>
      </trkpt>
      <trkpt lat="49.03519" lon="2.05367">
        <ele>22.1</ele>
        <time>2022-03-04T18:43:14Z</time>
      </trkpt>
      <trkpt lat="49.0352" lon="2.05368">
        <ele>22.1</ele>
        <time>2022-03-04T18:43:20Z</time>
      </trkpt>
      <trkpt lat="49.03518" lon="2.05365">
        <ele>22</ele>
        <time>2022-03-04T18:43:26Z</time>
      </trkpt>
      <trkpt lat="49.03512" lon="2.05353">
        <ele>21.9</ele>
        <time>2022-03-04T18:43:32Z</time>
      </trkpt>
      <trkpt lat="49.03508" lon="2.05345">
        <ele>21.8</ele>
        <time>2022-03-04T18:43:38Z</time>
      </trkpt>
      <trkpt lat="49.035" lon="2.05342">
        <ele>22</ele>
        <time>2022-03-04T18:43:44Z</time>
      </trkpt>
      <trkpt lat="49.03493" lon="2.05345">
        <ele>22.1</ele>
        <time>2022-03-04T18:43:49Z</time>
      </trkpt>
      <trkpt lat="49.03485" lon="2.05349">
        <ele>22.3</ele>
        <time>2022-03-04T18:43:55Z</time>
      </trkpt>
      <trkpt lat="49.03478" lon="2.05354">
        <ele>22.6</ele>
        <time>2022-03-04T18:44:01Z</time>
      </trkpt>
      <trkpt lat="49.03472" lon="2.05359">
        <ele>22.9</ele>
        <time>2022-03-04T18:44:06Z</time>
      </trkpt>
      <trkpt lat="49.03464" lon="2.05368">
        <ele>23.1</ele>
        <time>2022-03-04T18:44:12Z</time>
      </trkpt>
      <trkpt lat="49.03456" lon="2.05372">
        <ele>23.2</ele>
        <time>2022-03-04T18:44:17Z</time>
      </trkpt>
      <trkpt lat="49.03448" lon="2.05379">
        <ele>23.6</ele>
        <time>2022-03-04T18:44:23Z</time>
      </trkpt>
      <trkpt lat="49.03441" lon="2.05384">
        <ele>23.7</ele>
        <time>2022-03-04T18:44:28Z</time>
      </trkpt>
      <trkpt lat="49.03433" lon="2.05388">
        <ele>23.6</ele>
        <time>2022-03-04T18:44:34Z</time>
      </trkpt>
      <trkpt lat="49.03424" lon="2.05396">
        <ele>23.4</ele>
        <time>2022-03-04T18:44:40Z</time>
      </trkpt>
      <trkpt lat="49.03416" lon="2.05402">
        <ele>23</ele>
        <time>2022-03-04T18:44:46Z</time>
      </trkpt>
      <trkpt lat="49.0341" lon="2.0541">
        <ele>22.7</ele>
        <time>2022-03-04T18:44:51Z</time>
      </trkpt>
      <trkpt lat="49.03404" lon="2.05418">
        <ele>22.6</ele>
        <time>2022-03-04T18:44:57Z</time>
      </trkpt>
      <trkpt lat="49.03401" lon="2.05428">
        <ele>22.6</ele>
        <time>2022-03-04T18:45:02Z</time>
      </trkpt>
      <trkpt lat="49.03399" lon="2.05441">
        <ele>22.7</ele>
        <time>2022-03-04T18:45:08Z</time>
      </trkpt>
      <trkpt lat="49.03397" lon="2.05449">
        <ele>22.7</ele>
        <time>2022-03-04T18:45:13Z</time>
      </trkpt>
      <trkpt lat="49.03392" lon="2.05461">
        <ele>22.8</ele>
        <time>2022-03-04T18:45:19Z</time>
      </trkpt>
      <trkpt lat="49.03389" lon="2.0547">
        <ele>22.9</ele>
        <time>2022-03-04T18:45:24Z</time>
      </trkpt>
      <trkpt lat="49.03387" lon="2.05481">
        <ele>23.2</ele>
        <time>2022-03-04T18:45:29Z</time>
      </trkpt>
      <trkpt lat="49.03385" lon="2.05492">
        <ele>23.4</ele>
        <time>2022-03-04T18:45:34Z</time>
      </trkpt>
      <trkpt lat="49.03382" lon="2.05502">
        <ele>23.3</ele>
        <time>2022-03-04T18:45:40Z</time>
      </trkpt>
      <trkpt lat="49.03376" lon="2.05513">
        <ele>23.1</ele>
        <time>2022-03-04T18:45:46Z</time>
      </trkpt>
      <trkpt lat="49.0337" lon="2.05521">
        <ele>23</ele>
        <time>2022-03-04T18:45:51Z</time>
      </trkpt>
      <trkpt lat="49.03365" lon="2.05531">
        <ele>23.2</ele>
        <time>2022-03-04T18:45:57Z</time>
      </trkpt>
      <trkpt lat="49.03358" lon="2.05539">
        <ele>23.2</ele>
        <time>2022-03-04T18:46:03Z</time>
      </trkpt>
      <trkpt lat="49.03351" lon="2.05547">
        <ele>23.2</ele>
        <time>2022-03-04T18:46:09Z</time>
      </trkpt>
      <trkpt lat="49.03346" lon="2.05553">
        <ele>23.3</ele>
        <time>2022-03-04T18:46:14Z</time>
      </trkpt>
      <trkpt lat="49.0334" lon="2.05558">
        <ele>23.3</ele>
        <time>2022-03-04T18:46:19Z</time>
      </trkpt>
      <trkpt lat="49.03331" lon="2.05561">
        <ele>23.1</ele>
        <time>2022-03-04T18:46:25Z</time>
      </trkpt>
      <trkpt lat="49.03325" lon="2.05561">
        <ele>23</ele>
        <time>2022-03-04T18:46:30Z</time>
      </trkpt>
      <trkpt lat="49.03317" lon="2.05561">
        <ele>22.7</ele>
        <time>2022-03-04T18:46:36Z</time>
      </trkpt>
      <trkpt lat="49.03308" lon="2.05558">
        <ele>22.2</ele>
        <time>2022-03-04T18:46:42Z</time>
      </trkpt>
      <trkpt lat="49.03302" lon="2.0555">
        <ele>22.3</ele>
        <time>2022-03-04T18:46:47Z</time>
      </trkpt>
      <trkpt lat="49.03295" lon="2.05543">
        <ele>22.7</ele>
        <time>2022-03-04T18:46:53Z</time>
      </trkpt>
      <trkpt lat="49.0329" lon="2.05533">
        <ele>22.5</ele>
        <time>2022-03-04T18:46:59Z</time>
      </trkpt>
      <trkpt lat="49.03285" lon="2.05525">
        <ele>22.3</ele>
        <time>2022-03-04T18:47:04Z</time>
      </trkpt>
      <trkpt lat="49.03278" lon="2.05518">
        <ele>22.3</ele>
        <time>2022-03-04T18:47:10Z</time>
      </trkpt>
      <trkpt lat="49.03273" lon="2.05516">
        <ele>22.7</ele>
        <time>2022-03-04T18:47:15Z</time>
      </trkpt>
      <trkpt lat="49.03266" lon="2.05507">
        <ele>22.9</ele>
        <time>2022-03-04T18:47:21Z</time>
      </trkpt>
      <trkpt lat="49.03258" lon="2.05497">
        <ele>22.9</ele>
        <time>2022-03-04T18:47:27Z</time>
      </trkpt>
      <trkpt lat="49.03252" lon="2.0549">
        <ele>22.8</ele>
        <time>2022-03-04T18:47:32Z</time>
      </trkpt>
      <trkpt lat="49.03242" lon="2.05485">
        <ele>22.4</ele>
        <time>2022-03-04T18:47:38Z</time>
      </trkpt>
      <trkpt lat="49.03236" lon="2.05483">
        <ele>22.1</ele>
        <time>2022-03-04T18:47:43Z</time>
      </trkpt>
      <trkpt lat="49.03229" lon="2.05482">
        <ele>22</ele>
        <time>2022-03-04T18:47:49Z</time>
      </trkpt>
      <trkpt lat="49.03222" lon="2.05484">
        <ele>22.3</ele>
        <time>2022-03-04T18:47:54Z</time>
      </trkpt>
      <trkpt lat="49.03214" lon="2.0549">
        <ele>22.6</ele>
        <time>2022-03-04T18:48:00Z</time>
      </trkpt>
      <trkpt lat="49.03207" lon="2.05497">
        <ele>22.7</ele>
        <time>2022-03-04T18:48:06Z</time>
      </trkpt>
      <trkpt lat="49.03202" lon="2.05503">
        <ele>22.9</ele>
        <time>2022-03-04T18:48:11Z</time>
      </trkpt>
      <trkpt lat="49.03193" lon="2.05512">
        <ele>23.3</ele>
        <time>2022-03-04T18:48:17Z</time>
      </trkpt>
      <trkpt lat="49.03187" lon="2.05517">
        <ele>23.2</ele>
        <time>2022-03-04T18:48:22Z</time>
      </trkpt>
      <trkpt lat="49.03181" lon="2.05523">
        <ele>23.2</ele>
        <time>2022-03-04T18:48:28Z</time>
      </trkpt>
      <trkpt lat="49.03171" lon="2.05529">
        <ele>22.6</ele>
        <time>2022-03-04T18:48:34Z</time>
      </trkpt>
      <trkpt lat="49.03164" lon="2.05537">
        <ele>22.5</ele>
        <time>2022-03-04T18:48:40Z</time>
      </trkpt>
      <trkpt lat="49.03159" lon="2.05549">
        <ele>22.8</ele>
        <time>2022-03-04T18:48:46Z</time>
      </trkpt>
      <trkpt lat="49.03155" lon="2.05556">
        <ele>22.8</ele>
        <time>2022-03-04T18:48:51Z</time>
      </trkpt>
      <trkpt lat="49.03151" lon="2.05564">
        <ele>22.7</ele>
        <time>2022-03-04T18:48:57Z</time>
      </trkpt>
      <trkpt lat="49.03147" lon="2.05573">
        <ele>22.7</ele>
        <time>2022-03-04T18:49:03Z</time>
      </trkpt>
      <trkpt lat="49.03145" lon="2.05583">
        <ele>22.8</ele>
        <time>2022-03-04T18:49:08Z</time>
      </trkpt>
      <trkpt lat="49.03142" lon="2.05593">
        <ele>22.5</ele>
        <time>2022-03-04T18:49:13Z</time>
      </trkpt>
      <trkpt lat="49.0314" lon="2.05603">
        <ele>22.2</ele>
        <time>2022-03-04T18:49:18Z</time>
      </trkpt>
      <trkpt lat="49.03135" lon="2.05618">
        <ele>22.3</ele>
        <time>2022-03-04T18:49:24Z</time>
      </trkpt>
      <trkpt lat="49.03131" lon="2.05631">
        <ele>22.7</ele>
        <time>2022-03-04T18:49:30Z</time>
      </trkpt>
      <trkpt lat="49.03124" lon="2.0564">
        <ele>22.5</ele>
        <time>2022-03-04T18:49:36Z</time>
      </trkpt>
      <trkpt lat="49.0312" lon="2.05648">
        <ele>22.1</ele>
        <time>2022-03-04T18:49:41Z</time>
      </trkpt>
      <trkpt lat="49.03113" lon="2.05657">
        <ele>21.9</ele>
        <time>2022-03-04T18:49:47Z</time>
      </trkpt>
      <trkpt lat="49.03109" lon="2.05665">
        <ele>21.9</ele>
        <time>2022-03-04T18:49:53Z</time>
      </trkpt>
      <trkpt lat="49.03103" lon="2.05676">
        <ele>21.9</ele>
        <time>2022-03-04T18:49:59Z</time>
      </trkpt>
      <trkpt lat="49.03099" lon="2.05687">
        <ele>22</ele>
        <time>2022-03-04T18:50:05Z</time>
      </trkpt>
      <trkpt lat="49.03095" lon="2.05697">
        <ele>21.9</ele>
        <time>2022-03-04T18:50:10Z</time>
      </trkpt>
      <trkpt lat="49.03088" lon="2.05706">
        <ele>21.8</ele>
        <time>2022-03-04T18:50:16Z</time>
      </trkpt>
      <trkpt lat="49.03082" lon="2.05714">
        <ele>21.7</ele>
        <time>2022-03-04T18:50:21Z</time>
      </trkpt>
      <trkpt lat="49.03074" lon="2.0572">
        <ele>21.9</ele>
        <time>2022-03-04T18:50:27Z</time>
      </trkpt>
      <trkpt lat="49.03065" lon="2.05726">
        <ele>22.2</ele>
        <time>2022-03-04T18:50:32Z</time>
      </trkpt>
      <trkpt lat="49.03056" lon="2.05725">
        <ele>22.1</ele>
        <time>2022-03-04T18:50:38Z</time>
      </trkpt>
      <trkpt lat="49.03054" lon="2.05729">
        <ele>22.3</ele>
        <time>2022-03-04T18:50:44Z</time>
      </trkpt>
      <trkpt lat="49.03055" lon="2.05737">
        <ele>22.6</ele>
        <time>2022-03-04T18:50:49Z</time>
      </trkpt>
      <trkpt lat="49.03052" lon="2.05743">
        <ele>22.9</ele>
        <time>2022-03-04T18:50:55Z</time>
      </trkpt>
      <trkpt lat="49.03051" lon="2.05754">
        <ele>23.3</ele>
        <time>2022-03-04T18:51:01Z</time>
      </trkpt>
      <trkpt lat="49.03052" lon="2.05759">
        <ele>23.4</ele>
        <time>2022-03-04T18:51:07Z</time>
      </trkpt>
      <trkpt lat="49.03053" lon="2.0576">
        <ele>23.4</ele>
        <time>2022-03-04T18:51:12Z</time>
      </trkpt>
      <trkpt lat="49.03053" lon="2.05761">
        <ele>23.4</ele>
        <time>2022-03-04T18:51:18Z</time>
      </trkpt>
      <trkpt lat="49.03053" lon="2.0576">
        <ele>23.4</ele>
        <time>2022-03-04T18:51:24Z</time>
      </trkpt>
      <trkpt lat="49.03054" lon="2.0576">
        <ele>23.4</ele>
        <time>2022-03-04T18:51:29Z</time>
      </trkpt>
      <trkpt lat="49.03054" lon="2.05759">
        <ele>23.4</ele>
        <time>2022-03-04T18:51:35Z</time>
      </trkpt>
      <trkpt lat="49.03054" lon="2.05758">
        <ele>23.3</ele>
        <time>2022-03-04T18:51:41Z</time>
      </trkpt>
      <trkpt lat="49.03054" lon="2.05757">
        <ele>23.3</ele>
        <time>2022-03-04T18:51:46Z</time>
      </trkpt>
      <trkpt lat="49.03054" lon="2.05756">
        <ele>23.3</ele>
        <time>2022-03-04T18:51:51Z</time>
      </trkpt>
      <trkpt lat="49.03054" lon="2.05754">
        <ele>23.2</ele>
        <time>2022-03-04T18:51:57Z</time>
      </trkpt>
      <trkpt lat="49.03053" lon="2.05756">
        <ele>23.3</ele>
        <time>2022-03-04T18:52:02Z</time>
      </trkpt>
      <trkpt lat="49.03052" lon="2.05762">
        <ele>23.5</ele>
        <time>2022-03-04T18:52:07Z</time>
      </trkpt>
      <trkpt lat="49.03049" lon="2.0577">
        <ele>23.8</ele>
        <time>2022-03-04T18:52:13Z</time>
      </trkpt>
      <trkpt lat="49.03046" lon="2.05775">
        <ele>23.9</ele>
        <time>2022-03-04T18:52:18Z</time>
      </trkpt>
      <trkpt lat="49.03042" lon="2.05779">
        <ele>24</ele>
        <time>2022-03-04T18:52:24Z</time>
      </trkpt>
      <trkpt lat="49.03034" lon="2.05783">
        <ele>23.8</ele>
        <time>2022-03-04T18:52:30Z</time>
      </trkpt>
      <trkpt lat="49.03027" lon="2.05787">
        <ele>23.7</ele>
        <time>2022-03-04T18:52:35Z</time>
      </trkpt>
      <trkpt lat="49.03019" lon="2.05791">
        <ele>23.7</ele>
        <time>2022-03-04T18:52:41Z</time>
      </trkpt>
      <trkpt lat="49.0301" lon="2.05796">
        <ele>23.8</ele>
        <time>2022-03-04T18:52:47Z</time>
      </trkpt>
      <trkpt lat="49.03003" lon="2.05801">
        <ele>23.9</ele>
        <time>2022-03-04T18:52:52Z</time>
      </trkpt>
      <trkpt lat="49.02994" lon="2.05805">
        <ele>24</ele>
        <time>2022-03-04T18:52:58Z</time>
      </trkpt>
      <trkpt lat="49.02986" lon="2.05806">
        <ele>24</ele>
        <time>2022-03-04T18:53:03Z</time>
      </trkpt>
      <trkpt lat="49.02976" lon="2.05804">
        <ele>24.1</ele>
        <time>2022-03-04T18:53:09Z</time>
      </trkpt>
      <trkpt lat="49.02968" lon="2.058">
        <ele>24.2</ele>
        <time>2022-03-04T18:53:15Z</time>
      </trkpt>
      <trkpt lat="49.02959" lon="2.05796">
        <ele>24.2</ele>
        <time>2022-03-04T18:53:21Z</time>
      </trkpt>
      <trkpt lat="49.02951" lon="2.05792">
        <ele>24.1</ele>
        <time>2022-03-04T18:53:26Z</time>
      </trkpt>
      <trkpt lat="49.02944" lon="2.05788">
        <ele>24</ele>
        <time>2022-03-04T18:53:32Z</time>
      </trkpt>
      <trkpt lat="49.02937" lon="2.05785">
        <ele>23.9</ele>
        <time>2022-03-04T18:53:37Z</time>
      </trkpt>
      <trkpt lat="49.02931" lon="2.05781">
        <ele>23.9</ele>
        <time>2022-03-04T18:53:43Z</time>
      </trkpt>
      <trkpt lat="49.0293" lon="2.05775">
        <ele>23.9</ele>
        <time>2022-03-04T18:53:49Z</time>
      </trkpt>
      <trkpt lat="49.02929" lon="2.05767">
        <ele>23.8</ele>
        <time>2022-03-04T18:53:55Z</time>
      </trkpt>
      <trkpt lat="49.02929" lon="2.05761">
        <ele>23.7</ele>
        <time>2022-03-04T18:54:00Z</time>
      </trkpt>
      <trkpt lat="49.02928" lon="2.05751">
        <ele>23.4</ele>
        <time>2022-03-04T18:54:06Z</time>
      </trkpt>
      <trkpt lat="49.02927" lon="2.05741">
        <ele>23.6</ele>
        <time>2022-03-04T18:54:11Z</time>
      </trkpt>
      <trkpt lat="49.02924" lon="2.05724">
        <ele>23.9</ele>
        <time>2022-03-04T18:54:17Z</time>
      </trkpt>
      <trkpt lat="49.02921" lon="2.05704">
        <ele>23.9</ele>
        <time>2022-03-04T18:54:23Z</time>
      </trkpt>
      <trkpt lat="49.02919" lon="2.05688">
        <ele>23.9</ele>
        <time>2022-03-04T18:54:28Z</time>
      </trkpt>
      <trkpt lat="49.02916" lon="2.05671">
        <ele>24</ele>
        <time>2022-03-04T18:54:34Z</time>
      </trkpt>
      <trkpt lat="49.02913" lon="2.05659">
        <ele>24</ele>
        <time>2022-03-04T18:54:39Z</time>
      </trkpt>
      <trkpt lat="49.02908" lon="2.05646">
        <ele>24</ele>
        <time>2022-03-04T18:54:45Z</time>
      </trkpt>
      <trkpt lat="49.02903" lon="2.05635">
        <ele>23.9</ele>
        <time>2022-03-04T18:54:51Z</time>
      </trkpt>
      <trkpt lat="49.02896" lon="2.05626">
        <ele>23.9</ele>
        <time>2022-03-04T18:54:57Z</time>
      </trkpt>
      <trkpt lat="49.0289" lon="2.05618">
        <ele>24</ele>
        <time>2022-03-04T18:55:03Z</time>
      </trkpt>
      <trkpt lat="49.02885" lon="2.05612">
        <ele>24.1</ele>
        <time>2022-03-04T18:55:08Z</time>
      </trkpt>
      <trkpt lat="49.0288" lon="2.05605">
        <ele>24.2</ele>
        <time>2022-03-04T18:55:14Z</time>
      </trkpt>
      <trkpt lat="49.02875" lon="2.05598">
        <ele>24.3</ele>
        <time>2022-03-04T18:55:19Z</time>
      </trkpt>
      <trkpt lat="49.02869" lon="2.05587">
        <ele>24.4</ele>
        <time>2022-03-04T18:55:25Z</time>
      </trkpt>
      <trkpt lat="49.02867" lon="2.05576">
        <ele>24.6</ele>
        <time>2022-03-04T18:55:30Z</time>
      </trkpt>
      <trkpt lat="49.02868" lon="2.05565">
        <ele>24.7</ele>
        <time>2022-03-04T18:55:35Z</time>
      </trkpt>
      <trkpt lat="49.02869" lon="2.05555">
        <ele>24.7</ele>
        <time>2022-03-04T18:55:40Z</time>
      </trkpt>
      <trkpt lat="49.02872" lon="2.05543">
        <ele>24.6</ele>
        <time>2022-03-04T18:55:46Z</time>
      </trkpt>
      <trkpt lat="49.02875" lon="2.0553">
        <ele>24.5</ele>
        <time>2022-03-04T18:55:52Z</time>
      </trkpt>
      <trkpt lat="49.02876" lon="2.0552">
        <ele>24.1</ele>
        <time>2022-03-04T18:55:58Z</time>
      </trkpt>
      <trkpt lat="49.02876" lon="2.05517">
        <ele>23.8</ele>
        <time>2022-03-04T18:56:04Z</time>
      </trkpt>
      <trkpt lat="49.02877" lon="2.05514">
        <ele>23.6</ele>
        <time>2022-03-04T18:56:10Z</time>
      </trkpt>
      <trkpt lat="49.02877" lon="2.05511">
        <ele>23.4</ele>
        <time>2022-03-04T18:56:15Z</time>
      </trkpt>
      <trkpt lat="49.02875" lon="2.05505">
        <ele>23.3</ele>
        <time>2022-03-04T18:56:21Z</time>
      </trkpt>
      <trkpt lat="49.02872" lon="2.05498">
        <ele>23.4</ele>
        <time>2022-03-04T18:56:27Z</time>
      </trkpt>
      <trkpt lat="49.02869" lon="2.05493">
        <ele>23.7</ele>
        <time>2022-03-04T18:56:33Z</time>
      </trkpt>
      <trkpt lat="49.02866" lon="2.05489">
        <ele>24</ele>
        <time>2022-03-04T18:56:38Z</time>
      </trkpt>
      <trkpt lat="49.02862" lon="2.05483">
        <ele>24.2</ele>
        <time>2022-03-04T18:56:44Z</time>
      </trkpt>
      <trkpt lat="49.02859" lon="2.05475">
        <ele>24.2</ele>
        <time>2022-03-04T18:56:50Z</time>
      </trkpt>
      <trkpt lat="49.02855" lon="2.05467">
        <ele>23.8</ele>
        <time>2022-03-04T18:56:56Z</time>
      </trkpt>
      <trkpt lat="49.02852" lon="2.0546">
        <ele>23.2</ele>
        <time>2022-03-04T18:57:02Z</time>
      </trkpt>
      <trkpt lat="49.02847" lon="2.05452">
        <ele>22.4</ele>
        <time>2022-03-04T18:57:08Z</time>
      </trkpt>
      <trkpt lat="49.02844" lon="2.05443">
        <ele>21.7</ele>
        <time>2022-03-04T18:57:14Z</time>
      </trkpt>
      <trkpt lat="49.0284" lon="2.05434">
        <ele>22</ele>
        <time>2022-03-04T18:57:20Z</time>
      </trkpt>
      <trkpt lat="49.02838" lon="2.05424">
        <ele>22.4</ele>
        <time>2022-03-04T18:57:26Z</time>
      </trkpt>
      <trkpt lat="49.02837" lon="2.05415">
        <ele>22.7</ele>
        <time>2022-03-04T18:57:31Z</time>
      </trkpt>
      <trkpt lat="49.02837" lon="2.05403">
        <ele>22.8</ele>
        <time>2022-03-04T18:57:37Z</time>
      </trkpt>
      <trkpt lat="49.02837" lon="2.05393">
        <ele>22.8</ele>
        <time>2022-03-04T18:57:42Z</time>
      </trkpt>
      <trkpt lat="49.02837" lon="2.05381">
        <ele>22.5</ele>
        <time>2022-03-04T18:57:48Z</time>
      </trkpt>
      <trkpt lat="49.02837" lon="2.05372">
        <ele>22.2</ele>
        <time>2022-03-04T18:57:53Z</time>
      </trkpt>
      <trkpt lat="49.02837" lon="2.05367">
        <ele>22</ele>
        <time>2022-03-04T18:57:58Z</time>
      </trkpt>
      <trkpt lat="49.02837" lon="2.05364">
        <ele>21.9</ele>
        <time>2022-03-04T18:58:04Z</time>
      </trkpt>
      <trkpt lat="49.02837" lon="2.05363">
        <ele>21.9</ele>
        <time>2022-03-04T18:58:09Z</time>
      </trkpt>
      <trkpt lat="49.02838" lon="2.05364">
        <ele>21.9</ele>
        <time>2022-03-04T18:58:15Z</time>
      </trkpt>
      <trkpt lat="49.02838" lon="2.05365">
        <ele>22</ele>
        <time>2022-03-04T18:58:20Z</time>
      </trkpt>
      <trkpt lat="49.02838" lon="2.05366">
        <ele>22</ele>
        <time>2022-03-04T18:58:25Z</time>
      </trkpt>
      <trkpt lat="49.02838" lon="2.05367">
        <ele>22</ele>
        <time>2022-03-04T18:58:31Z</time>
      </trkpt>
      <trkpt lat="49.02838" lon="2.05368">
        <ele>22</ele>
        <time>2022-03-04T18:58:37Z</time>
      </trkpt>
      <trkpt lat="49.02838" lon="2.05368">
        <ele>22</ele>
        <time>2022-03-04T18:58:43Z</time>
      </trkpt>
      <trkpt lat="49.02838" lon="2.05367">
        <ele>22</ele>
        <time>2022-03-04T18:58:49Z</time>
      </trkpt>
      <trkpt lat="49.02838" lon="2.05361">
        <ele>21.8</ele>
        <time>2022-03-04T18:58:54Z</time>
      </trkpt>
      <trkpt lat="49.02838" lon="2.05351">
        <ele>22.1</ele>
        <time>2022-03-04T18:59:00Z</time>
      </trkpt>
      <trkpt lat="49.02839" lon="2.0534">
        <ele>22.4</ele>
        <time>2022-03-04T18:59:06Z</time>
      </trkpt>
      <trkpt lat="49.02838" lon="2.0533">
        <ele>22.6</ele>
        <time>2022-03-04T18:59:11Z</time>
      </trkpt>
      <trkpt lat="49.02834" lon="2.05319">
        <ele>22.4</ele>
        <time>2022-03-04T18:59:17Z</time>
      </trkpt>
      <trkpt lat="49.0283" lon="2.05312">
        <ele>22.6</ele>
        <time>2022-03-04T18:59:22Z</time>
      </trkpt>
      <trkpt lat="49.02823" lon="2.05304">
        <ele>23</ele>
        <time>2022-03-04T18:59:28Z</time>
      </trkpt>
      <trkpt lat="49.02818" lon="2.05298">
        <ele>22.9</ele>
        <time>2022-03-04T18:59:33Z</time>
      </trkpt>
      <trkpt lat="49.02812" lon="2.05291">
        <ele>22.6</ele>
        <time>2022-03-04T18:59:39Z</time>
      </trkpt>
      <trkpt lat="49.02805" lon="2.05286">
        <ele>22.3</ele>
        <time>2022-03-04T18:59:45Z</time>
      </trkpt>
      <trkpt lat="49.02799" lon="2.05282">
        <ele>22.4</ele>
        <time>2022-03-04T18:59:51Z</time>
      </trkpt>
      <trkpt lat="49.02792" lon="2.05276">
        <ele>22.8</ele>
        <time>2022-03-04T18:59:57Z</time>
      </trkpt>
      <trkpt lat="49.02785" lon="2.0527">
        <ele>23.1</ele>
        <time>2022-03-04T19:00:03Z</time>
      </trkpt>
      <trkpt lat="49.02777" lon="2.05263">
        <ele>22.9</ele>
        <time>2022-03-04T19:00:09Z</time>
      </trkpt>
      <trkpt lat="49.0277" lon="2.05256">
        <ele>22.6</ele>
        <time>2022-03-04T19:00:14Z</time>
      </trkpt>
      <trkpt lat="49.02763" lon="2.05249">
        <ele>22.6</ele>
        <time>2022-03-04T19:00:20Z</time>
      </trkpt>
      <trkpt lat="49.02756" lon="2.05242">
        <ele>22.7</ele>
        <time>2022-03-04T19:00:26Z</time>
      </trkpt>
      <trkpt lat="49.0275" lon="2.05236">
        <ele>22.5</ele>
        <time>2022-03-04T19:00:32Z</time>
      </trkpt>
      <trkpt lat="49.02745" lon="2.05232">
        <ele>22.7</ele>
        <time>2022-03-04T19:00:37Z</time>
      </trkpt>
      <trkpt lat="49.0274" lon="2.05228">
        <ele>23</ele>
        <time>2022-03-04T19:00:42Z</time>
      </trkpt>
      <trkpt lat="49.02731" lon="2.05217">
        <ele>23.3</ele>
        <time>2022-03-04T19:00:48Z</time>
      </trkpt>
      <trkpt lat="49.02726" lon="2.0521">
        <ele>23.4</ele>
        <time>2022-03-04T19:00:53Z</time>
      </trkpt>
      <trkpt lat="49.02719" lon="2.05201">
        <ele>23.1</ele>
        <time>2022-03-04T19:00:58Z</time>
      </trkpt>
      <trkpt lat="49.02716" lon="2.05189">
        <ele>22.7</ele>
        <time>2022-03-04T19:01:04Z</time>
      </trkpt>
      <trkpt lat="49.02712" lon="2.05179">
        <ele>22.9</ele>
        <time>2022-03-04T19:01:10Z</time>
      </trkpt>
      <trkpt lat="49.02709" lon="2.05168">
        <ele>22.9</ele>
        <time>2022-03-04T19:01:15Z</time>
      </trkpt>
      <trkpt lat="49.02705" lon="2.05155">
        <ele>22.7</ele>
        <time>2022-03-04T19:01:21Z</time>
      </trkpt>
      <trkpt lat="49.02702" lon="2.05146">
        <ele>22.3</ele>
        <time>2022-03-04T19:01:26Z</time>
      </trkpt>
      <trkpt lat="49.02697" lon="2.05137">
        <ele>21.8</ele>
        <time>2022-03-04T19:01:32Z</time>
      </trkpt>
      <trkpt lat="49.0269" lon="2.05125">
        <ele>22.1</ele>
        <time>2022-03-04T19:01:38Z</time>
      </trkpt>
      <trkpt lat="49.02685" lon="2.05114">
        <ele>22.4</ele>
        <time>2022-03-04T19:01:43Z</time>
      </trkpt>
      <trkpt lat="49.02679" lon="2.05105">
        <ele>23</ele>
        <time>2022-03-04T19:01:49Z</time>
      </trkpt>
      <trkpt lat="49.02674" lon="2.05098">
        <ele>23.3</ele>
        <time>2022-03-04T19:01:54Z</time>
      </trkpt>
      <trkpt lat="49.0267" lon="2.05092">
        <ele>23.3</ele>
        <time>2022-03-04T19:01:59Z</time>
      </trkpt>
      <trkpt lat="49.02665" lon="2.05085">
        <ele>23.3</ele>
        <time>2022-03-04T19:02:05Z</time>
      </trkpt>
      <trkpt lat="49.02661" lon="2.05078">
        <ele>23.8</ele>
        <time>2022-03-04T19:02:10Z</time>
      </trkpt>
      <trkpt lat="49.02656" lon="2.05072">
        <ele>24.4</ele>
        <time>2022-03-04T19:02:15Z</time>
      </trkpt>
      <trkpt lat="49.02651" lon="2.05066">
        <ele>25</ele>
        <time>2022-03-04T19:02:21Z</time>
      </trkpt>
      <trkpt lat="49.02645" lon="2.05062">
        <ele>25.5</ele>
        <time>2022-03-04T19:02:26Z</time>
      </trkpt>
      <trkpt lat="49.02638" lon="2.05061">
        <ele>26</ele>
        <time>2022-03-04T19:02:32Z</time>
      </trkpt>
      <trkpt lat="49.02631" lon="2.05066">
        <ele>26.1</ele>
        <time>2022-03-04T19:02:38Z</time>
      </trkpt>
      <trkpt lat="49.02625" lon="2.05073">
        <ele>26.3</ele>
        <time>2022-03-04T19:02:44Z</time>
      </trkpt>
      <trkpt lat="49.02621" lon="2.05079">
        <ele>26.5</ele>
        <time>2022-03-04T19:02:49Z</time>
      </trkpt>
      <trkpt lat="49.02616" lon="2.05088">
        <ele>26.8</ele>
        <time>2022-03-04T19:02:55Z</time>
      </trkpt>
      <trkpt lat="49.02611" lon="2.05099">
        <ele>27</ele>
        <time>2022-03-04T19:03:01Z</time>
      </trkpt>
      <trkpt lat="49.02607" lon="2.05107">
        <ele>26.7</ele>
        <time>2022-03-04T19:03:06Z</time>
      </trkpt>
      <trkpt lat="49.02601" lon="2.05116">
        <ele>26.4</ele>
        <time>2022-03-04T19:03:11Z</time>
      </trkpt>
      <trkpt lat="49.02594" lon="2.05124">
        <ele>26.3</ele>
        <time>2022-03-04T19:03:17Z</time>
      </trkpt>
      <trkpt lat="49.02589" lon="2.05132">
        <ele>26.6</ele>
        <time>2022-03-04T19:03:23Z</time>
      </trkpt>
      <trkpt lat="49.02584" lon="2.05139">
        <ele>27</ele>
        <time>2022-03-04T19:03:28Z</time>
      </trkpt>
      <trkpt lat="49.02578" lon="2.05146">
        <ele>26.9</ele>
        <time>2022-03-04T19:03:33Z</time>
      </trkpt>
      <trkpt lat="49.02574" lon="2.05153">
        <ele>27</ele>
        <time>2022-03-04T19:03:38Z</time>
      </trkpt>
      <trkpt lat="49.02572" lon="2.05158">
        <ele>27.2</ele>
        <time>2022-03-04T19:03:43Z</time>
      </trkpt>
      <trkpt lat="49.02569" lon="2.05166">
        <ele>27.5</ele>
        <time>2022-03-04T19:03:49Z</time>
      </trkpt>
      <trkpt lat="49.02564" lon="2.05174">
        <ele>27.7</ele>
        <time>2022-03-04T19:03:55Z</time>
      </trkpt>
      <trkpt lat="49.02557" lon="2.05186">
        <ele>27.9</ele>
        <time>2022-03-04T19:04:01Z</time>
      </trkpt>
      <trkpt lat="49.02553" lon="2.05191">
        <ele>28</ele>
        <time>2022-03-04T19:04:06Z</time>
      </trkpt>
      <trkpt lat="49.02546" lon="2.05203">
        <ele>27.8</ele>
        <time>2022-03-04T19:04:12Z</time>
      </trkpt>
      <trkpt lat="49.0254" lon="2.05213">
        <ele>27.7</ele>
        <time>2022-03-04T19:04:18Z</time>
      </trkpt>
      <trkpt lat="49.02537" lon="2.0522">
        <ele>27.7</ele>
        <time>2022-03-04T19:04:23Z</time>
      </trkpt>
      <trkpt lat="49.02532" lon="2.0523">
        <ele>27.9</ele>
        <time>2022-03-04T19:04:29Z</time>
      </trkpt>
      <trkpt lat="49.02527" lon="2.05237">
        <ele>28</ele>
        <time>2022-03-04T19:04:34Z</time>
      </trkpt>
      <trkpt lat="49.02525" lon="2.05246">
        <ele>27.9</ele>
        <time>2022-03-04T19:04:39Z</time>
      </trkpt>
      <trkpt lat="49.02524" lon="2.05257">
        <ele>27.9</ele>
        <time>2022-03-04T19:04:45Z</time>
      </trkpt>
      <trkpt lat="49.02524" lon="2.05267">
        <ele>27.9</ele>
        <time>2022-03-04T19:04:51Z</time>
      </trkpt>
      <trkpt lat="49.02523" lon="2.05283">
        <ele>28</ele>
        <time>2022-03-04T19:04:57Z</time>
      </trkpt>
      <trkpt lat="49.02523" lon="2.05293">
        <ele>28</ele>
        <time>2022-03-04T19:05:02Z</time>
      </trkpt>
      <trkpt lat="49.02517" lon="2.05303">
        <ele>28</ele>
        <time>2022-03-04T19:05:08Z</time>
      </trkpt>
      <trkpt lat="49.02511" lon="2.05309">
        <ele>27.9</ele>
        <time>2022-03-04T19:05:13Z</time>
      </trkpt>
      <trkpt lat="49.02502" lon="2.05317">
        <ele>28</ele>
        <time>2022-03-04T19:05:19Z</time>
      </trkpt>
      <trkpt lat="49.02496" lon="2.05323">
        <ele>28</ele>
        <time>2022-03-04T19:05:24Z</time>
      </trkpt>
      <trkpt lat="49.02493" lon="2.05331">
        <ele>28</ele>
        <time>2022-03-04T19:05:29Z</time>
      </trkpt>
      <trkpt lat="49.02488" lon="2.05341">
        <ele>28.1</ele>
        <time>2022-03-04T19:05:35Z</time>
      </trkpt>
      <trkpt lat="49.02482" lon="2.0535">
        <ele>28.4</ele>
        <time>2022-03-04T19:05:41Z</time>
      </trkpt>
      <trkpt lat="49.02477" lon="2.05359">
        <ele>28.8</ele>
        <time>2022-03-04T19:05:47Z</time>
      </trkpt>
      <trkpt lat="49.02473" lon="2.05368">
        <ele>29</ele>
        <time>2022-03-04T19:05:53Z</time>
      </trkpt>
      <trkpt lat="49.02472" lon="2.05375">
        <ele>29</ele>
        <time>2022-03-04T19:05:59Z</time>
      </trkpt>
      <trkpt lat="49.0247" lon="2.05384">
        <ele>29</ele>
        <time>2022-03-04T19:06:04Z</time>
      </trkpt>
      <trkpt lat="49.02467" lon="2.05397">
        <ele>29</ele>
        <time>2022-03-04T19:06:10Z</time>
      </trkpt>
      <trkpt lat="49.02461" lon="2.05407">
        <ele>29</ele>
        <time>2022-03-04T19:06:15Z</time>
      </trkpt>
      <trkpt lat="49.02455" lon="2.05417">
        <ele>29</ele>
        <time>2022-03-04T19:06:21Z</time>
      </trkpt>
      <trkpt lat="49.0245" lon="2.05427">
        <ele>29</ele>
        <time>2022-03-04T19:06:26Z</time>
      </trkpt>
      <trkpt lat="49.02444" lon="2.05437">
        <ele>29</ele>
        <time>2022-03-04T19:06:32Z</time>
      </trkpt>
      <trkpt lat="49.02439" lon="2.05445">
        <ele>29</ele>
        <time>2022-03-04T19:06:37Z</time>
      </trkpt>
      <trkpt lat="49.02435" lon="2.05451">
        <ele>29.1</ele>
        <time>2022-03-04T19:06:43Z</time>
      </trkpt>
      <trkpt lat="49.02432" lon="2.05461">
        <ele>29.3</ele>
        <time>2022-03-04T19:06:48Z</time>
      </trkpt>
      <trkpt lat="49.02423" lon="2.05474">
        <ele>29.7</ele>
        <time>2022-03-04T19:06:54Z</time>
      </trkpt>
      <trkpt lat="49.02417" lon="2.05482">
        <ele>29.7</ele>
        <time>2022-03-04T19:06:59Z</time>
      </trkpt>
      <trkpt lat="49.02413" lon="2.05486">
        <ele>29.6</ele>
        <time>2022-03-04T19:07:05Z</time>
      </trkpt>
      <trkpt lat="49.0241" lon="2.05492">
        <ele>29.5</ele>
        <time>2022-03-04T19:07:10Z</time>
      </trkpt>
      <trkpt lat="49.02404" lon="2.05503">
        <ele>29.5</ele>
        <time>2022-03-04T19:07:16Z</time>
      </trkpt>
      <trkpt lat="49.02398" lon="2.05514">
        <ele>29.7</ele>
        <time>2022-03-04T19:07:22Z</time>
      </trkpt>
      <trkpt lat="49.02394" lon="2.0552">
        <ele>29.8</ele>
        <time>2022-03-04T19:07:27Z</time>
      </trkpt>
      <trkpt lat="49.0239" lon="2.0553">
        <ele>30</ele>
        <time>2022-03-04T19:07:32Z</time>
      </trkpt>
      <trkpt lat="49.02386" lon="2.05538">
        <ele>30</ele>
        <time>2022-03-04T19:07:38Z</time>
      </trkpt>
      <trkpt lat="49.02382" lon="2.05546">
        <ele>30.2</ele>
        <time>2022-03-04T19:07:44Z</time>
      </trkpt>
      <trkpt lat="49.02378" lon="2.05553">
        <ele>30.3</ele>
        <time>2022-03-04T19:07:49Z</time>
      </trkpt>
      <trkpt lat="49.02375" lon="2.05562">
        <ele>30.5</ele>
        <time>2022-03-04T19:07:55Z</time>
      </trkpt>
      <trkpt lat="49.02372" lon="2.05571">
        <ele>30.6</ele>
        <time>2022-03-04T19:08:00Z</time>
      </trkpt>
      <trkpt lat="49.02367" lon="2.0558">
        <ele>30.8</ele>
        <time>2022-03-04T19:08:06Z</time>
      </trkpt>
      <trkpt lat="49.02365" lon="2.05586">
        <ele>30.9</ele>
        <time>2022-03-04T19:08:11Z</time>
      </trkpt>
      <trkpt lat="49.02362" lon="2.05592">
        <ele>31</ele>
        <time>2022-03-04T19:08:16Z</time>
      </trkpt>
      <trkpt lat="49.0236" lon="2.056">
        <ele>31</ele>
        <time>2022-03-04T19:08:22Z</time>
      </trkpt>
      <trkpt lat="49.02358" lon="2.05607">
        <ele>31.1</ele>
        <time>2022-03-04T19:08:28Z</time>
      </trkpt>
      <trkpt lat="49.02357" lon="2.05611">
        <ele>31.2</ele>
        <time>2022-03-04T19:08:34Z</time>
      </trkpt>
      <trkpt lat="49.02356" lon="2.05612">
        <ele>31.2</ele>
        <time>2022-03-04T19:08:39Z</time>
      </trkpt>
      <trkpt lat="49.02355" lon="2.05613">
        <ele>31.2</ele>
        <time>2022-03-04T19:08:45Z</time>
      </trkpt>
      <trkpt lat="49.02355" lon="2.05613">
        <ele>31.2</ele>
        <time>2022-03-04T19:08:51Z</time>
      </trkpt>
      <trkpt lat="49.02354" lon="2.05614">
        <ele>31.3</ele>
        <time>2022-03-04T19:08:57Z</time>
      </trkpt>
      <trkpt lat="49.02354" lon="2.05614">
        <ele>31.3</ele>
        <time>2022-03-04T19:09:03Z</time>
      </trkpt>
      <trkpt lat="49.02353" lon="2.05615">
        <ele>31.3</ele>
        <time>2022-03-04T19:09:08Z</time>
      </trkpt>
      <trkpt lat="49.02353" lon="2.05615">
        <ele>31.3</ele>
        <time>2022-03-04T19:09:13Z</time>
      </trkpt>
      <trkpt lat="49.02352" lon="2.05616">
        <ele>31.3</ele>
        <time>2022-03-04T19:09:18Z</time>
      </trkpt>
      <trkpt lat="49.02352" lon="2.05617">
        <ele>31.3</ele>
        <time>2022-03-04T19:09:24Z</time>
      </trkpt>
      <trkpt lat="49.02351" lon="2.05618">
        <ele>31.4</ele>
        <time>2022-03-04T19:09:29Z</time>
      </trkpt>
      <trkpt lat="49.02351" lon="2.05618">
        <ele>31.4</ele>
        <time>2022-03-04T19:09:34Z</time>
      </trkpt>
      <trkpt lat="49.02351" lon="2.05619">
        <ele>31.4</ele>
        <time>2022-03-04T19:09:40Z</time>
      </trkpt>
      <trkpt lat="49.0235" lon="2.05619">
        <ele>31.4</ele>
        <time>2022-03-04T19:09:45Z</time>
      </trkpt>
      <trkpt lat="49.0235" lon="2.05619">
        <ele>31.4</ele>
        <time>2022-03-04T19:09:51Z</time>
      </trkpt>
      <trkpt lat="49.0235" lon="2.05619">
        <ele>31.4</ele>
        <time>2022-03-04T19:09:56Z</time>
      </trkpt>
      <trkpt lat="49.0235" lon="2.05619">
        <ele>31.4</ele>
        <time>2022-03-04T19:10:02Z</time>
      </trkpt>
      <trkpt lat="49.0235" lon="2.05619">
        <ele>31.4</ele>
        <time>2022-03-04T19:10:07Z</time>
      </trkpt>
      <trkpt lat="49.0235" lon="2.05618">
        <ele>31.4</ele>
        <time>2022-03-04T19:10:13Z</time>
      </trkpt>
      <trkpt lat="49.02349" lon="2.05621">
        <ele>31.4</ele>
        <time>2022-03-04T19:10:19Z</time>
      </trkpt>
      <trkpt lat="49.02348" lon="2.0563">
        <ele>31.5</ele>
        <time>2022-03-04T19:10:25Z</time>
      </trkpt>
      <trkpt lat="49.02347" lon="2.05639">
        <ele>31.5</ele>
        <time>2022-03-04T19:10:30Z</time>
      </trkpt>
      <trkpt lat="49.02344" lon="2.05648">
        <ele>31.6</ele>
        <time>2022-03-04T19:10:36Z</time>
      </trkpt>
      <trkpt lat="49.02342" lon="2.05656">
        <ele>31.7</ele>
        <time>2022-03-04T19:10:41Z</time>
      </trkpt>
      <trkpt lat="49.02339" lon="2.05665">
        <ele>31.8</ele>
        <time>2022-03-04T19:10:47Z</time>
      </trkpt>
      <trkpt lat="49.02335" lon="2.05676">
        <ele>31.9</ele>
        <time>2022-03-04T19:10:53Z</time>
      </trkpt>
      <trkpt lat="49.0233" lon="2.05688">
        <ele>32.2</ele>
        <time>2022-03-04T19:10:59Z</time>
      </trkpt>
      <trkpt lat="49.02325" lon="2.05699">
        <ele>32.8</ele>
        <time>2022-03-04T19:11:05Z</time>
      </trkpt>
      <trkpt lat="49.02323" lon="2.0571">
        <ele>33.5</ele>
        <time>2022-03-04T19:11:10Z</time>
      </trkpt>
      <trkpt lat="49.02322" lon="2.05721">
        <ele>33.9</ele>
        <time>2022-03-04T19:11:15Z</time>
      </trkpt>
      <trkpt lat="49.02322" lon="2.05732">
        <ele>34.4</ele>
        <time>2022-03-04T19:11:21Z</time>
      </trkpt>
      <trkpt lat="49.02322" lon="2.0574">
        <ele>34.6</ele>
        <time>2022-03-04T19:11:26Z</time>
      </trkpt>
      <trkpt lat="49.02324" lon="2.05746">
        <ele>34.8</ele>
        <time>2022-03-04T19:11:31Z</time>
      </trkpt>
      <trkpt lat="49.02325" lon="2.05752">
        <ele>35.1</ele>
        <time>2022-03-04T19:11:36Z</time>
      </trkpt>
      <trkpt lat="49.02328" lon="2.05759">
        <ele>35.6</ele>
        <time>2022-03-04T19:11:42Z</time>
      </trkpt>
      <trkpt lat="49.0233" lon="2.05767">
        <ele>36.2</ele>
        <time>2022-03-04T19:11:48Z</time>
      </trkpt>
      <trkpt lat="49.02333" lon="2.05776">
        <ele>36.9</ele>
        <time>2022-03-04T19:11:54Z</time>
      </trkpt>
      <trkpt lat="49.02337" lon="2.05785">
        <ele>37.4</ele>
        <time>2022-03-04T19:12:00Z</time>
      </trkpt>
      <trkpt lat="49.02341" lon="2.05792">
        <ele>38.4</ele>
        <time>2022-03-04T19:12:06Z</time>
      </trkpt>
      <trkpt lat="49.02344" lon="2.05797">
        <ele>39.4</ele>
        <time>2022-03-04T19:12:11Z</time>
      </trkpt>
      <trkpt lat="49.02346" lon="2.05801">
        <ele>40.6</ele>
        <time>2022-03-04T19:12:17Z</time>
      </trkpt>
      <trkpt lat="49.02347" lon="2.05802">
        <ele>40.9</ele>
        <time>2022-03-04T19:12:22Z</time>
      </trkpt>
      <trkpt lat="49.02349" lon="2.05802">
        <ele>41.3</ele>
        <time>2022-03-04T19:12:28Z</time>
      </trkpt>
      <trkpt lat="49.02352" lon="2.05805">
        <ele>42.6</ele>
        <time>2022-03-04T19:12:34Z</time>
      </trkpt>
      <trkpt lat="49.02354" lon="2.05808">
        <ele>43.2</ele>
        <time>2022-03-04T19:12:40Z</time>
      </trkpt>
      <trkpt lat="49.02358" lon="2.05814">
        <ele>44.1</ele>
        <time>2022-03-04T19:12:45Z</time>
      </trkpt>
      <trkpt lat="49.02364" lon="2.05821">
        <ele>45.1</ele>
        <time>2022-03-04T19:12:51Z</time>
      </trkpt>
      <trkpt lat="49.02368" lon="2.05827">
        <ele>45.4</ele>
        <time>2022-03-04T19:12:57Z</time>
      </trkpt>
      <trkpt lat="49.02372" lon="2.05835">
        <ele>45.7</ele>
        <time>2022-03-04T19:13:03Z</time>
      </trkpt>
      <trkpt lat="49.02377" lon="2.05841">
        <ele>45.9</ele>
        <time>2022-03-04T19:13:08Z</time>
      </trkpt>
      <trkpt lat="49.02381" lon="2.05849">
        <ele>45.9</ele>
        <time>2022-03-04T19:13:14Z</time>
      </trkpt>
      <trkpt lat="49.02386" lon="2.05856">
        <ele>45.9</ele>
        <time>2022-03-04T19:13:20Z</time>
      </trkpt>
      <trkpt lat="49.0239" lon="2.05864">
        <ele>46</ele>
        <time>2022-03-04T19:13:26Z</time>
      </trkpt>
      <trkpt lat="49.02395" lon="2.0587">
        <ele>46.2</ele>
        <time>2022-03-04T19:13:32Z</time>
      </trkpt>
      <trkpt lat="49.02398" lon="2.05875">
        <ele>46.2</ele>
        <time>2022-03-04T19:13:37Z</time>
      </trkpt>
      <trkpt lat="49.02398" lon="2.05876">
        <ele>46.2</ele>
        <time>2022-03-04T19:13:43Z</time>
      </trkpt>
      <trkpt lat="49.02399" lon="2.05876">
        <ele>46.2</ele>
        <time>2022-03-04T19:13:49Z</time>
      </trkpt>
      <trkpt lat="49.02399" lon="2.05875">
        <ele>46.2</ele>
        <time>2022-03-04T19:13:55Z</time>
      </trkpt>
      <trkpt lat="49.02399" lon="2.05876">
        <ele>46.2</ele>
        <time>2022-03-04T19:14:00Z</time>
      </trkpt>
      <trkpt lat="49.024" lon="2.05876">
        <ele>46.2</ele>
        <time>2022-03-04T19:14:06Z</time>
      </trkpt>
      <trkpt lat="49.024" lon="2.05876">
        <ele>46.2</ele>
        <time>2022-03-04T19:14:11Z</time>
      </trkpt>
      <trkpt lat="49.02401" lon="2.05877">
        <ele>46.2</ele>
        <time>2022-03-04T19:14:17Z</time>
      </trkpt>
      <trkpt lat="49.02401" lon="2.05877">
        <ele>46.2</ele>
        <time>2022-03-04T19:14:22Z</time>
      </trkpt>
      <trkpt lat="49.02401" lon="2.05877">
        <ele>46.2</ele>
        <time>2022-03-04T19:14:28Z</time>
      </trkpt>
      <trkpt lat="49.02401" lon="2.05877">
        <ele>46.2</ele>
        <time>2022-03-04T19:14:34Z</time>
      </trkpt>
      <trkpt lat="49.02401" lon="2.05877">
        <ele>46.2</ele>
        <time>2022-03-04T19:14:39Z</time>
      </trkpt>
      <trkpt lat="49.02401" lon="2.05878">
        <ele>46.2</ele>
        <time>2022-03-04T19:14:45Z</time>
      </trkpt>
      <trkpt lat="49.02401" lon="2.05878">
        <ele>46.2</ele>
        <time>2022-03-04T19:14:50Z</time>
      </trkpt>
      <trkpt lat="49.02403" lon="2.05877">
        <ele>46.2</ele>
        <time>2022-03-04T19:14:55Z</time>
      </trkpt>
      <trkpt lat="49.02403" lon="2.05876">
        <ele>46.2</ele>
        <time>2022-03-04T19:15:01Z</time>
      </trkpt>
      <trkpt lat="49.02403" lon="2.05876">
        <ele>46.2</ele>
        <time>2022-03-04T19:15:06Z</time>
      </trkpt>
      <trkpt lat="49.02403" lon="2.05876">
        <ele>46.2</ele>
        <time>2022-03-04T19:15:12Z</time>
      </trkpt>
      <trkpt lat="49.02403" lon="2.05877">
        <ele>46.2</ele>
        <time>2022-03-04T19:15:18Z</time>
      </trkpt>
      <trkpt lat="49.02403" lon="2.05877">
        <ele>46.2</ele>
        <time>2022-03-04T19:15:24Z</time>
      </trkpt>
      <trkpt lat="49.02403" lon="2.05878">
        <ele>46.2</ele>
        <time>2022-03-04T19:15:29Z</time>
      </trkpt>
      <trkpt lat="49.02403" lon="2.05878">
        <ele>46.2</ele>
        <time>2022-03-04T19:15:35Z</time>
      </trkpt>
      <trkpt lat="49.02404" lon="2.05877">
        <ele>46.2</ele>
        <time>2022-03-04T19:15:41Z</time>
      </trkpt>
      <trkpt lat="49.02404" lon="2.05876">
        <ele>46.3</ele>
        <time>2022-03-04T19:15:46Z</time>
      </trkpt>
      <trkpt lat="49.02404" lon="2.05876">
        <ele>46.3</ele>
        <time>2022-03-04T19:15:52Z</time>
      </trkpt>
      <trkpt lat="49.02404" lon="2.05876">
        <ele>46.3</ele>
        <time>2022-03-04T19:15:57Z</time>
      </trkpt>
      <trkpt lat="49.02402" lon="2.05875">
        <ele>46.2</ele>
        <time>2022-03-04T19:16:02Z</time>
      </trkpt>
      <trkpt lat="49.02396" lon="2.0587">
        <ele>46.2</ele>
        <time>2022-03-04T19:16:08Z</time>
      </trkpt>
      <trkpt lat="49.0239" lon="2.05862">
        <ele>46</ele>
        <time>2022-03-04T19:16:14Z</time>
      </trkpt>
      <trkpt lat="49.02385" lon="2.05856">
        <ele>45.9</ele>
        <time>2022-03-04T19:16:20Z</time>
      </trkpt>
      <trkpt lat="49.02379" lon="2.0585">
        <ele>45.6</ele>
        <time>2022-03-04T19:16:25Z</time>
      </trkpt>
      <trkpt lat="49.02373" lon="2.05845">
        <ele>45.4</ele>
        <time>2022-03-04T19:16:31Z</time>
      </trkpt>
      <trkpt lat="49.02367" lon="2.05838">
        <ele>45.3</ele>
        <time>2022-03-04T19:16:37Z</time>
      </trkpt>
      <trkpt lat="49.02361" lon="2.05831">
        <ele>45</ele>
        <time>2022-03-04T19:16:43Z</time>
      </trkpt>
      <trkpt lat="49.02359" lon="2.05824">
        <ele>44.4</ele>
        <time>2022-03-04T19:16:48Z</time>
      </trkpt>
      <trkpt lat="49.02355" lon="2.05815">
        <ele>43.4</ele>
        <time>2022-03-04T19:16:54Z</time>
      </trkpt>
      <trkpt lat="49.02351" lon="2.0581">
        <ele>42.4</ele>
        <time>2022-03-04T19:17:00Z</time>
      </trkpt>
      <trkpt lat="49.02349" lon="2.05806">
        <ele>41.9</ele>
        <time>2022-03-04T19:17:06Z</time>
      </trkpt>
      <trkpt lat="49.02347" lon="2.05802">
        <ele>40.8</ele>
        <time>2022-03-04T19:17:12Z</time>
      </trkpt>
      <trkpt lat="49.02344" lon="2.05796">
        <ele>39.4</ele>
        <time>2022-03-04T19:17:18Z</time>
      </trkpt>
      <trkpt lat="49.02341" lon="2.05792">
        <ele>38.4</ele>
        <time>2022-03-04T19:17:24Z</time>
      </trkpt>
      <trkpt lat="49.02336" lon="2.05788">
        <ele>37.6</ele>
        <time>2022-03-04T19:17:30Z</time>
      </trkpt>
      <trkpt lat="49.02331" lon="2.05778">
        <ele>36.9</ele>
        <time>2022-03-04T19:17:36Z</time>
      </trkpt>
      <trkpt lat="49.02328" lon="2.0577">
        <ele>36.3</ele>
        <time>2022-03-04T19:17:41Z</time>
      </trkpt>
      <trkpt lat="49.02327" lon="2.05763">
        <ele>35.8</ele>
        <time>2022-03-04T19:17:46Z</time>
      </trkpt>
      <trkpt lat="49.02326" lon="2.05753">
        <ele>35.2</ele>
        <time>2022-03-04T19:17:52Z</time>
      </trkpt>
      <trkpt lat="49.02324" lon="2.05749">
        <ele>35</ele>
        <time>2022-03-04T19:17:58Z</time>
      </trkpt>
      <trkpt lat="49.02322" lon="2.05744">
        <ele>34.8</ele>
        <time>2022-03-04T19:18:03Z</time>
      </trkpt>
      <trkpt lat="49.02321" lon="2.05735">
        <ele>34.5</ele>
        <time>2022-03-04T19:18:08Z</time>
      </trkpt>
      <trkpt lat="49.02321" lon="2.05723">
        <ele>34</ele>
        <time>2022-03-04T19:18:14Z</time>
      </trkpt>
      <trkpt lat="49.02321" lon="2.0572">
        <ele>33.9</ele>
        <time>2022-03-04T19:18:19Z</time>
      </trkpt>
      <trkpt lat="49.02321" lon="2.05714">
        <ele>33.7</ele>
        <time>2022-03-04T19:18:25Z</time>
      </trkpt>
      <trkpt lat="49.02317" lon="2.05701">
        <ele>33.3</ele>
        <time>2022-03-04T19:18:31Z</time>
      </trkpt>
      <trkpt lat="49.0232" lon="2.05692">
        <ele>32.9</ele>
        <time>2022-03-04T19:18:37Z</time>
      </trkpt>
      <trkpt lat="49.02324" lon="2.05684">
        <ele>32.5</ele>
        <time>2022-03-04T19:18:42Z</time>
      </trkpt>
      <trkpt lat="49.02328" lon="2.05672">
        <ele>32.2</ele>
        <time>2022-03-04T19:18:48Z</time>
      </trkpt>
      <trkpt lat="49.02331" lon="2.05661">
        <ele>32.1</ele>
        <time>2022-03-04T19:18:53Z</time>
      </trkpt>
      <trkpt lat="49.02334" lon="2.05651">
        <ele>32</ele>
        <time>2022-03-04T19:18:58Z</time>
      </trkpt>
      <trkpt lat="49.02332" lon="2.05642">
        <ele>32</ele>
        <time>2022-03-04T19:19:04Z</time>
      </trkpt>
      <trkpt lat="49.02327" lon="2.05639">
        <ele>32.2</ele>
        <time>2022-03-04T19:19:09Z</time>
      </trkpt>
      <trkpt lat="49.02324" lon="2.05636">
        <ele>32.3</ele>
        <time>2022-03-04T19:19:14Z</time>
      </trkpt>
      <trkpt lat="49.02318" lon="2.05632">
        <ele>32.3</ele>
        <time>2022-03-04T19:19:20Z</time>
      </trkpt>
      <trkpt lat="49.02316" lon="2.05625">
        <ele>32</ele>
        <time>2022-03-04T19:19:25Z</time>
      </trkpt>
      <trkpt lat="49.02311" lon="2.05617">
        <ele>31.5</ele>
        <time>2022-03-04T19:19:31Z</time>
      </trkpt>
      <trkpt lat="49.02304" lon="2.0561">
        <ele>31.1</ele>
        <time>2022-03-04T19:19:37Z</time>
      </trkpt>
      <trkpt lat="49.02298" lon="2.05604">
        <ele>31.1</ele>
        <time>2022-03-04T19:19:43Z</time>
      </trkpt>
      <trkpt lat="49.02291" lon="2.05598">
        <ele>30.9</ele>
        <time>2022-03-04T19:19:49Z</time>
      </trkpt>
      <trkpt lat="49.02284" lon="2.05593">
        <ele>30.4</ele>
        <time>2022-03-04T19:19:54Z</time>
      </trkpt>
      <trkpt lat="49.02276" lon="2.05589">
        <ele>29.7</ele>
        <time>2022-03-04T19:20:00Z</time>
      </trkpt>
      <trkpt lat="49.0227" lon="2.05587">
        <ele>29.4</ele>
        <time>2022-03-04T19:20:06Z</time>
      </trkpt>
      <trkpt lat="49.02263" lon="2.05587">
        <ele>29.5</ele>
        <time>2022-03-04T19:20:12Z</time>
      </trkpt>
      <trkpt lat="49.02258" lon="2.05589">
        <ele>29.6</ele>
        <time>2022-03-04T19:20:17Z</time>
      </trkpt>
      <trkpt lat="49.02253" lon="2.05591">
        <ele>29.8</ele>
        <time>2022-03-04T19:20:22Z</time>
      </trkpt>
      <trkpt lat="49.02249" lon="2.05595">
        <ele>30.2</ele>
        <time>2022-03-04T19:20:27Z</time>
      </trkpt>
      <trkpt lat="49.02248" lon="2.05601">
        <ele>30.9</ele>
        <time>2022-03-04T19:20:33Z</time>
      </trkpt>
      <trkpt lat="49.02248" lon="2.05608">
        <ele>31.6</ele>
        <time>2022-03-04T19:20:38Z</time>
      </trkpt>
      <trkpt lat="49.02251" lon="2.05616">
        <ele>31.9</ele>
        <time>2022-03-04T19:20:44Z</time>
      </trkpt>
      <trkpt lat="49.02255" lon="2.05623">
        <ele>31.9</ele>
        <time>2022-03-04T19:20:50Z</time>
      </trkpt>
      <trkpt lat="49.02259" lon="2.05631">
        <ele>32.1</ele>
        <time>2022-03-04T19:20:56Z</time>
      </trkpt>
      <trkpt lat="49.02261" lon="2.05637">
        <ele>32.2</ele>
        <time>2022-03-04T19:21:02Z</time>
      </trkpt>
      <trkpt lat="49.02263" lon="2.05646">
        <ele>32.5</ele>
        <time>2022-03-04T19:21:07Z</time>
      </trkpt>
      <trkpt lat="49.02265" lon="2.05658">
        <ele>33</ele>
        <time>2022-03-04T19:21:13Z</time>
      </trkpt>
      <trkpt lat="49.02267" lon="2.05667">
        <ele>33.3</ele>
        <time>2022-03-04T19:21:18Z</time>
      </trkpt>
      <trkpt lat="49.02268" lon="2.05676">
        <ele>33.8</ele>
        <time>2022-03-04T19:21:24Z</time>
      </trkpt>
      <trkpt lat="49.02271" lon="2.05687">
        <ele>34.4</ele>
        <time>2022-03-04T19:21:29Z</time>
      </trkpt>
      <trkpt lat="49.02274" lon="2.05696">
        <ele>34.9</ele>
        <time>2022-03-04T19:21:34Z</time>
      </trkpt>
      <trkpt lat="49.02277" lon="2.05709">
        <ele>35</ele>
        <time>2022-03-04T19:21:40Z</time>
      </trkpt>
      <trkpt lat="49.02277" lon="2.05719">
        <ele>35</ele>
        <time>2022-03-04T19:21:45Z</time>
      </trkpt>
      <trkpt lat="49.02278" lon="2.05731">
        <ele>35.3</ele>
        <time>2022-03-04T19:21:51Z</time>
      </trkpt>
      <trkpt lat="49.02277" lon="2.0574">
        <ele>35.7</ele>
        <time>2022-03-04T19:21:57Z</time>
      </trkpt>
      <trkpt lat="49.02275" lon="2.05749">
        <ele>36.1</ele>
        <time>2022-03-04T19:22:03Z</time>
      </trkpt>
      <trkpt lat="49.02274" lon="2.05758">
        <ele>36.7</ele>
        <time>2022-03-04T19:22:09Z</time>
      </trkpt>
      <trkpt lat="49.02275" lon="2.05766">
        <ele>37.2</ele>
        <time>2022-03-04T19:22:15Z</time>
      </trkpt>
      <trkpt lat="49.02276" lon="2.05773">
        <ele>37.7</ele>
        <time>2022-03-04T19:22:21Z</time>
      </trkpt>
      <trkpt lat="49.02276" lon="2.05779">
        <ele>38.2</ele>
        <time>2022-03-04T19:22:27Z</time>
      </trkpt>
      <trkpt lat="49.02275" lon="2.0578">
        <ele>38.3</ele>
        <time>2022-03-04T19:22:33Z</time>
      </trkpt>
      <trkpt lat="49.02275" lon="2.0578">
        <ele>38.3</ele>
        <time>2022-03-04T19:22:39Z</time>
      </trkpt>
      <trkpt lat="49.02275" lon="2.05785">
        <ele>38.6</ele>
        <time>2022-03-04T19:22:45Z</time>
      </trkpt>
      <trkpt lat="49.02278" lon="2.05793">
        <ele>39.1</ele>
        <time>2022-03-04T19:22:50Z</time>
      </trkpt>
      <trkpt lat="49.02278" lon="2.058">
        <ele>39.6</ele>
        <time>2022-03-04T19:22:55Z</time>
      </trkpt>
      <trkpt lat="49.02281" lon="2.05808">
        <ele>40.1</ele>
        <time>2022-03-04T19:23:00Z</time>
      </trkpt>
      <trkpt lat="49.02286" lon="2.05817">
        <ele>40.4</ele>
        <time>2022-03-04T19:23:06Z</time>
      </trkpt>
      <trkpt lat="49.02289" lon="2.0583">
        <ele>40.9</ele>
        <time>2022-03-04T19:23:12Z</time>
      </trkpt>
      <trkpt lat="49.02289" lon="2.05838">
        <ele>41.2</ele>
        <time>2022-03-04T19:23:17Z</time>
      </trkpt>
      <trkpt lat="49.02286" lon="2.0585">
        <ele>41.6</ele>
        <time>2022-03-04T19:23:23Z</time>
      </trkpt>
      <trkpt lat="49.02283" lon="2.05859">
        <ele>41.9</ele>
        <time>2022-03-04T19:23:28Z</time>
      </trkpt>
      <trkpt lat="49.02281" lon="2.05869">
        <ele>42.3</ele>
        <time>2022-03-04T19:23:34Z</time>
      </trkpt>
      <trkpt lat="49.02279" lon="2.05879">
        <ele>42.6</ele>
        <time>2022-03-04T19:23:40Z</time>
      </trkpt>
      <trkpt lat="49.02276" lon="2.05891">
        <ele>43</ele>
        <time>2022-03-04T19:23:46Z</time>
      </trkpt>
      <trkpt lat="49.02273" lon="2.05901">
        <ele>43</ele>
        <time>2022-03-04T19:23:51Z</time>
      </trkpt>
      <trkpt lat="49.02271" lon="2.05912">
        <ele>43</ele>
        <time>2022-03-04T19:23:57Z</time>
      </trkpt>
      <trkpt lat="49.02268" lon="2.05924">
        <ele>43.3</ele>
        <time>2022-03-04T19:24:03Z</time>
      </trkpt>
      <trkpt lat="49.02266" lon="2.05936">
        <ele>43.7</ele>
        <time>2022-03-04T19:24:08Z</time>
      </trkpt>
      <trkpt lat="49.02264" lon="2.05944">
        <ele>44</ele>
        <time>2022-03-04T19:24:13Z</time>
      </trkpt>
      <trkpt lat="49.02262" lon="2.05955">
        <ele>44.4</ele>
        <time>2022-03-04T19:24:19Z</time>
      </trkpt>
      <trkpt lat="49.02258" lon="2.05964">
        <ele>44.7</ele>
        <time>2022-03-04T19:24:25Z</time>
      </trkpt>
      <trkpt lat="49.02257" lon="2.05975">
        <ele>45</ele>
        <time>2022-03-04T19:24:31Z</time>
      </trkpt>
      <trkpt lat="49.02259" lon="2.05981">
        <ele>45</ele>
        <time>2022-03-04T19:24:36Z</time>
      </trkpt>
      <trkpt lat="49.02259" lon="2.05984">
        <ele>45</ele>
        <time>2022-03-04T19:24:42Z</time>
      </trkpt>
      <trkpt lat="49.02259" lon="2.05983">
        <ele>45</ele>
        <time>2022-03-04T19:24:47Z</time>
      </trkpt>
      <trkpt lat="49.02259" lon="2.05983">
        <ele>45</ele>
        <time>2022-03-04T19:24:53Z</time>
      </trkpt>
      <trkpt lat="49.02261" lon="2.05989">
        <ele>45</ele>
        <time>2022-03-04T19:24:59Z</time>
      </trkpt>
      <trkpt lat="49.02262" lon="2.05994">
        <ele>45</ele>
        <time>2022-03-04T19:25:04Z</time>
      </trkpt>
      <trkpt lat="49.02263" lon="2.05998">
        <ele>45</ele>
        <time>2022-03-04T19:25:10Z</time>
      </trkpt>
      <trkpt lat="49.02265" lon="2.06006">
        <ele>45.2</ele>
        <time>2022-03-04T19:25:16Z</time>
      </trkpt>
      <trkpt lat="49.02266" lon="2.0601">
        <ele>45.4</ele>
        <time>2022-03-04T19:25:21Z</time>
      </trkpt>
      <trkpt lat="49.02267" lon="2.06014">
        <ele>45.5</ele>
        <time>2022-03-04T19:25:26Z</time>
      </trkpt>
      <trkpt lat="49.02268" lon="2.0602">
        <ele>45.7</ele>
        <time>2022-03-04T19:25:32Z</time>
      </trkpt>
      <trkpt lat="49.02267" lon="2.06021">
        <ele>45.8</ele>
        <time>2022-03-04T19:25:38Z</time>
      </trkpt>
      <trkpt lat="49.02266" lon="2.06023">
        <ele>45.8</ele>
        <time>2022-03-04T19:25:43Z</time>
      </trkpt>
      <trkpt lat="49.02266" lon="2.06024">
        <ele>45.9</ele>
        <time>2022-03-04T19:25:48Z</time>
      </trkpt>
      <trkpt lat="49.02266" lon="2.06025">
        <ele>45.9</ele>
        <time>2022-03-04T19:25:53Z</time>
      </trkpt>
      <trkpt lat="49.02265" lon="2.06026">
        <ele>45.9</ele>
        <time>2022-03-04T19:25:59Z</time>
      </trkpt>
      <trkpt lat="49.02264" lon="2.06027">
        <ele>46</ele>
        <time>2022-03-04T19:26:05Z</time>
      </trkpt>
      <trkpt lat="49.02262" lon="2.06028">
        <ele>46</ele>
        <time>2022-03-04T19:26:10Z</time>
      </trkpt>
      <trkpt lat="49.02262" lon="2.06028">
        <ele>46</ele>
        <time>2022-03-04T19:26:15Z</time>
      </trkpt>
      <trkpt lat="49.02263" lon="2.06025">
        <ele>45.9</ele>
        <time>2022-03-04T19:26:21Z</time>
      </trkpt>
      <trkpt lat="49.02263" lon="2.06024">
        <ele>45.9</ele>
        <time>2022-03-04T19:26:26Z</time>
      </trkpt>
      <trkpt lat="49.02263" lon="2.06024">
        <ele>45.9</ele>
        <time>2022-03-04T19:26:32Z</time>
      </trkpt>
      <trkpt lat="49.02263" lon="2.06024">
        <ele>45.9</ele>
        <time>2022-03-04T19:26:37Z</time>
      </trkpt>
      <trkpt lat="49.02264" lon="2.06025">
        <ele>45.9</ele>
        <time>2022-03-04T19:26:43Z</time>
      </trkpt>
      <trkpt lat="49.02264" lon="2.06023">
        <ele>45.8</ele>
        <time>2022-03-04T19:26:48Z</time>
      </trkpt>
      <trkpt lat="49.02263" lon="2.06023">
        <ele>45.8</ele>
        <time>2022-03-04T19:26:54Z</time>
      </trkpt>
      <trkpt lat="49.02263" lon="2.06023">
        <ele>45.8</ele>
        <time>2022-03-04T19:26:59Z</time>
      </trkpt>
      <trkpt lat="49.02263" lon="2.06023">
        <ele>45.8</ele>
        <time>2022-03-04T19:27:05Z</time>
      </trkpt>
      <trkpt lat="49.02263" lon="2.06023">
        <ele>45.8</ele>
        <time>2022-03-04T19:27:10Z</time>
      </trkpt>
      <trkpt lat="49.02263" lon="2.06023">
        <ele>45.8</ele>
        <time>2022-03-04T19:27:16Z</time>
      </trkpt>
      <trkpt lat="49.02263" lon="2.06023">
        <ele>45.8</ele>
        <time>2022-03-04T19:27:21Z</time>
      </trkpt>
      <trkpt lat="49.02264" lon="2.06023">
        <ele>45.8</ele>
        <time>2022-03-04T19:27:27Z</time>
      </trkpt>
      <trkpt lat="49.02264" lon="2.06023">
        <ele>45.8</ele>
        <time>2022-03-04T19:27:32Z</time>
      </trkpt>
      <trkpt lat="49.02264" lon="2.06023">
        <ele>45.8</ele>
        <time>2022-03-04T19:27:38Z</time>
      </trkpt>
      <trkpt lat="49.02264" lon="2.06022">
        <ele>45.8</ele>
        <time>2022-03-04T19:27:43Z</time>
      </trkpt>
      <trkpt lat="49.02263" lon="2.06025">
        <ele>45.9</ele>
        <time>2022-03-04T19:27:48Z</time>
      </trkpt>
      <trkpt lat="49.02263" lon="2.06025">
        <ele>45.9</ele>
        <time>2022-03-04T19:27:54Z</time>
      </trkpt>
      <trkpt lat="49.02263" lon="2.06025">
        <ele>45.9</ele>
        <time>2022-03-04T19:27:59Z</time>
      </trkpt>
      <trkpt lat="49.02263" lon="2.06026">
        <ele>45.9</ele>
        <time>2022-03-04T19:28:05Z</time>
      </trkpt>
      <trkpt lat="49.02263" lon="2.06027">
        <ele>46</ele>
        <time>2022-03-04T19:28:10Z</time>
      </trkpt>
      <trkpt lat="49.02264" lon="2.06028">
        <ele>46</ele>
        <time>2022-03-04T19:28:16Z</time>
      </trkpt>
      <trkpt lat="49.02264" lon="2.06028">
        <ele>46</ele>
        <time>2022-03-04T19:28:21Z</time>
      </trkpt>
      <trkpt lat="49.02264" lon="2.06028">
        <ele>46</ele>
        <time>2022-03-04T19:28:26Z</time>
      </trkpt>
      <trkpt lat="49.02264" lon="2.06029">
        <ele>46</ele>
        <time>2022-03-04T19:28:31Z</time>
      </trkpt>
      <trkpt lat="49.02264" lon="2.06029">
        <ele>46</ele>
        <time>2022-03-04T19:28:37Z</time>
      </trkpt>
      <trkpt lat="49.02264" lon="2.06029">
        <ele>46</ele>
        <time>2022-03-04T19:28:43Z</time>
      </trkpt>
      <trkpt lat="49.02264" lon="2.06029">
        <ele>46</ele>
        <time>2022-03-04T19:28:48Z</time>
      </trkpt>
      <trkpt lat="49.02264" lon="2.06028">
        <ele>46</ele>
        <time>2022-03-04T19:28:54Z</time>
      </trkpt>
      <trkpt lat="49.02264" lon="2.06028">
        <ele>46</ele>
        <time>2022-03-04T19:28:59Z</time>
      </trkpt>
      <trkpt lat="49.02264" lon="2.06028">
        <ele>46</ele>
        <time>2022-03-04T19:29:05Z</time>
      </trkpt>
      <trkpt lat="49.02264" lon="2.06028">
        <ele>46</ele>
        <time>2022-03-04T19:29:11Z</time>
      </trkpt>
      <trkpt lat="49.02264" lon="2.06028">
        <ele>46</ele>
        <time>2022-03-04T19:29:16Z</time>
      </trkpt>
      <trkpt lat="49.02264" lon="2.06028">
        <ele>46</ele>
        <time>2022-03-04T19:29:22Z</time>
      </trkpt>
      <trkpt lat="49.02265" lon="2.06029">
        <ele>46</ele>
        <time>2022-03-04T19:29:27Z</time>
      </trkpt>
      <trkpt lat="49.02265" lon="2.06029">
        <ele>46</ele>
        <time>2022-03-04T19:29:32Z</time>
      </trkpt>
      <trkpt lat="49.02265" lon="2.06029">
        <ele>46</ele>
        <time>2022-03-04T19:29:37Z</time>
      </trkpt>
      <trkpt lat="49.02265" lon="2.06029">
        <ele>46</ele>
        <time>2022-03-04T19:29:43Z</time>
      </trkpt>
      <trkpt lat="49.02265" lon="2.06027">
        <ele>46</ele>
        <time>2022-03-04T19:29:49Z</time>
      </trkpt>
      <trkpt lat="49.02265" lon="2.06024">
        <ele>45.8</ele>
        <time>2022-03-04T19:29:55Z</time>
      </trkpt>
      <trkpt lat="49.02265" lon="2.06023">
        <ele>45.8</ele>
        <time>2022-03-04T19:30:01Z</time>
      </trkpt>
      <trkpt lat="49.02265" lon="2.06023">
        <ele>45.8</ele>
        <time>2022-03-04T19:30:07Z</time>
      </trkpt>
      <trkpt lat="49.02265" lon="2.06023">
        <ele>45.8</ele>
        <time>2022-03-04T19:30:12Z</time>
      </trkpt>
      <trkpt lat="49.02264" lon="2.06023">
        <ele>45.8</ele>
        <time>2022-03-04T19:30:17Z</time>
      </trkpt>
      <trkpt lat="49.02264" lon="2.06023">
        <ele>45.8</ele>
        <time>2022-03-04T19:30:22Z</time>
      </trkpt>
      <trkpt lat="49.02264" lon="2.06023">
        <ele>45.8</ele>
        <time>2022-03-04T19:30:28Z</time>
      </trkpt>
      <trkpt lat="49.02264" lon="2.06023">
        <ele>45.8</ele>
        <time>2022-03-04T19:30:34Z</time>
      </trkpt>
      <trkpt lat="49.02264" lon="2.06023">
        <ele>45.8</ele>
        <time>2022-03-04T19:30:39Z</time>
      </trkpt>
      <trkpt lat="49.02264" lon="2.06023">
        <ele>45.8</ele>
        <time>2022-03-04T19:30:44Z</time>
      </trkpt>
      <trkpt lat="49.02264" lon="2.06023">
        <ele>45.8</ele>
        <time>2022-03-04T19:30:49Z</time>
      </trkpt>
      <trkpt lat="49.02264" lon="2.06023">
        <ele>45.8</ele>
        <time>2022-03-04T19:30:55Z</time>
      </trkpt>
      <trkpt lat="49.02264" lon="2.06023">
        <ele>45.8</ele>
        <time>2022-03-04T19:31:01Z</time>
      </trkpt>
      <trkpt lat="49.02264" lon="2.06024">
        <ele>45.8</ele>
        <time>2022-03-04T19:31:07Z</time>
      </trkpt>
      <trkpt lat="49.02264" lon="2.06024">
        <ele>45.9</ele>
        <time>2022-03-04T19:31:13Z</time>
      </trkpt>
      <trkpt lat="49.02264" lon="2.06024">
        <ele>45.8</ele>
        <time>2022-03-04T19:31:18Z</time>
      </trkpt>
      <trkpt lat="49.02264" lon="2.06024">
        <ele>45.9</ele>
        <time>2022-03-04T19:31:24Z</time>
      </trkpt>
      <trkpt lat="49.02264" lon="2.06025">
        <ele>45.9</ele>
        <time>2022-03-04T19:31:30Z</time>
      </trkpt>
      <trkpt lat="49.02264" lon="2.06025">
        <ele>45.9</ele>
        <time>2022-03-04T19:31:35Z</time>
      </trkpt>
      <trkpt lat="49.02264" lon="2.06025">
        <ele>45.9</ele>
        <time>2022-03-04T19:31:40Z</time>
      </trkpt>
      <trkpt lat="49.02264" lon="2.06025">
        <ele>45.9</ele>
        <time>2022-03-04T19:31:46Z</time>
      </trkpt>
      <trkpt lat="49.02264" lon="2.06025">
        <ele>45.9</ele>
        <time>2022-03-04T19:31:52Z</time>
      </trkpt>
      <trkpt lat="49.02264" lon="2.06025">
        <ele>45.9</ele>
        <time>2022-03-04T19:31:58Z</time>
      </trkpt>
      <trkpt lat="49.02265" lon="2.06025">
        <ele>45.9</ele>
        <time>2022-03-04T19:32:03Z</time>
      </trkpt>
      <trkpt lat="49.02265" lon="2.06024">
        <ele>45.9</ele>
        <time>2022-03-04T19:32:09Z</time>
      </trkpt>
      <trkpt lat="49.02265" lon="2.06024">
        <ele>45.9</ele>
        <time>2022-03-04T19:32:14Z</time>
      </trkpt>
      <trkpt lat="49.02265" lon="2.06024">
        <ele>45.9</ele>
        <time>2022-03-04T19:32:19Z</time>
      </trkpt>
      <trkpt lat="49.02265" lon="2.06025">
        <ele>45.9</ele>
        <time>2022-03-04T19:32:25Z</time>
      </trkpt>
      <trkpt lat="49.02265" lon="2.06025">
        <ele>45.9</ele>
        <time>2022-03-04T19:32:30Z</time>
      </trkpt>
      <trkpt lat="49.02265" lon="2.06025">
        <ele>45.9</ele>
        <time>2022-03-04T19:32:36Z</time>
      </trkpt>
      <trkpt lat="49.02265" lon="2.06025">
        <ele>45.9</ele>
        <time>2022-03-04T19:32:42Z</time>
      </trkpt>
      <trkpt lat="49.02265" lon="2.06025">
        <ele>45.9</ele>
        <time>2022-03-04T19:32:48Z</time>
      </trkpt>
      <trkpt lat="49.02265" lon="2.06025">
        <ele>45.9</ele>
        <time>2022-03-04T19:32:54Z</time>
      </trkpt>
      <trkpt lat="49.02265" lon="2.06025">
        <ele>45.9</ele>
        <time>2022-03-04T19:33:00Z</time>
      </trkpt>
      <trkpt lat="49.02265" lon="2.06025">
        <ele>45.9</ele>
        <time>2022-03-04T19:33:06Z</time>
      </trkpt>
      <trkpt lat="49.02264" lon="2.06025">
        <ele>45.9</ele>
        <time>2022-03-04T19:33:11Z</time>
      </trkpt>
      <trkpt lat="49.02264" lon="2.06025">
        <ele>45.9</ele>
        <time>2022-03-04T19:33:17Z</time>
      </trkpt>
      <trkpt lat="49.02264" lon="2.06024">
        <ele>45.9</ele>
        <time>2022-03-04T19:33:23Z</time>
      </trkpt>
      <trkpt lat="49.02264" lon="2.06024">
        <ele>45.9</ele>
        <time>2022-03-04T19:33:28Z</time>
      </trkpt>
      <trkpt lat="49.02263" lon="2.06024">
        <ele>45.9</ele>
        <time>2022-03-04T19:33:34Z</time>
      </trkpt>
      <trkpt lat="49.02264" lon="2.06023">
        <ele>45.8</ele>
        <time>2022-03-04T19:33:39Z</time>
      </trkpt>
      <trkpt lat="49.02262" lon="2.06019">
        <ele>45.7</ele>
        <time>2022-03-04T19:33:45Z</time>
      </trkpt>
      <trkpt lat="49.02262" lon="2.06015">
        <ele>45.5</ele>
        <time>2022-03-04T19:33:50Z</time>
      </trkpt>
      <trkpt lat="49.02262" lon="2.0601">
        <ele>45.4</ele>
        <time>2022-03-04T19:33:56Z</time>
      </trkpt>
      <trkpt lat="49.02263" lon="2.06004">
        <ele>45.1</ele>
        <time>2022-03-04T19:34:02Z</time>
      </trkpt>
      <trkpt lat="49.02261" lon="2.05994">
        <ele>45</ele>
        <time>2022-03-04T19:34:07Z</time>
      </trkpt>
      <trkpt lat="49.02259" lon="2.05984">
        <ele>45</ele>
        <time>2022-03-04T19:34:13Z</time>
      </trkpt>
      <trkpt lat="49.02259" lon="2.05979">
        <ele>45</ele>
        <time>2022-03-04T19:34:19Z</time>
      </trkpt>
      <trkpt lat="49.02257" lon="2.05972">
        <ele>45</ele>
        <time>2022-03-04T19:34:24Z</time>
      </trkpt>
      <trkpt lat="49.02249" lon="2.05965">
        <ele>44.7</ele>
        <time>2022-03-04T19:34:30Z</time>
      </trkpt>
      <trkpt lat="49.0224" lon="2.05962">
        <ele>44.6</ele>
        <time>2022-03-04T19:34:36Z</time>
      </trkpt>
      <trkpt lat="49.02234" lon="2.05957">
        <ele>44.5</ele>
        <time>2022-03-04T19:34:41Z</time>
      </trkpt>
      <trkpt lat="49.02228" lon="2.05954">
        <ele>44.3</ele>
        <time>2022-03-04T19:34:47Z</time>
      </trkpt>
      <trkpt lat="49.02219" lon="2.05952">
        <ele>44.3</ele>
        <time>2022-03-04T19:34:53Z</time>
      </trkpt>
      <trkpt lat="49.0221" lon="2.05945">
        <ele>44.4</ele>
        <time>2022-03-04T19:34:58Z</time>
      </trkpt>
      <trkpt lat="49.02201" lon="2.05941">
        <ele>44.7</ele>
        <time>2022-03-04T19:35:04Z</time>
      </trkpt>
      <trkpt lat="49.02193" lon="2.05938">
        <ele>44.7</ele>
        <time>2022-03-04T19:35:09Z</time>
      </trkpt>
      <trkpt lat="49.02185" lon="2.05937">
        <ele>44.5</ele>
        <time>2022-03-04T19:35:15Z</time>
      </trkpt>
      <trkpt lat="49.02178" lon="2.05936">
        <ele>44.3</ele>
        <time>2022-03-04T19:35:21Z</time>
      </trkpt>
      <trkpt lat="49.0217" lon="2.05933">
        <ele>44.1</ele>
        <time>2022-03-04T19:35:27Z</time>
      </trkpt>
      <trkpt lat="49.02164" lon="2.05932">
        <ele>44</ele>
        <time>2022-03-04T19:35:32Z</time>
      </trkpt>
      <trkpt lat="49.02158" lon="2.05928">
        <ele>44</ele>
        <time>2022-03-04T19:35:38Z</time>
      </trkpt>
      <trkpt lat="49.02152" lon="2.05925">
        <ele>44</ele>
        <time>2022-03-04T19:35:43Z</time>
      </trkpt>
      <trkpt lat="49.02147" lon="2.05923">
        <ele>44</ele>
        <time>2022-03-04T19:35:48Z</time>
      </trkpt>
      <trkpt lat="49.02138" lon="2.0592">
        <ele>44</ele>
        <time>2022-03-04T19:35:54Z</time>
      </trkpt>
      <trkpt lat="49.02132" lon="2.05918">
        <ele>44</ele>
        <time>2022-03-04T19:35:59Z</time>
      </trkpt>
      <trkpt lat="49.02125" lon="2.05913">
        <ele>43.9</ele>
        <time>2022-03-04T19:36:05Z</time>
      </trkpt>
      <trkpt lat="49.02116" lon="2.05907">
        <ele>43.7</ele>
        <time>2022-03-04T19:36:10Z</time>
      </trkpt>
      <trkpt lat="49.02106" lon="2.05905">
        <ele>43.4</ele>
        <time>2022-03-04T19:36:16Z</time>
      </trkpt>
      <trkpt lat="49.02098" lon="2.05898">
        <ele>42.9</ele>
        <time>2022-03-04T19:36:22Z</time>
      </trkpt>
      <trkpt lat="49.02093" lon="2.05885">
        <ele>42.4</ele>
        <time>2022-03-04T19:36:28Z</time>
      </trkpt>
      <trkpt lat="49.0209" lon="2.05876">
        <ele>42.2</ele>
        <time>2022-03-04T19:36:33Z</time>
      </trkpt>
      <trkpt lat="49.02088" lon="2.05869">
        <ele>42.2</ele>
        <time>2022-03-04T19:36:39Z</time>
      </trkpt>
      <trkpt lat="49.02084" lon="2.05856">
        <ele>42</ele>
        <time>2022-03-04T19:36:45Z</time>
      </trkpt>
      <trkpt lat="49.02078" lon="2.05849">
        <ele>41.8</ele>
        <time>2022-03-04T19:36:50Z</time>
      </trkpt>
      <trkpt lat="49.02071" lon="2.05847">
        <ele>41.6</ele>
        <time>2022-03-04T19:36:55Z</time>
      </trkpt>
      <trkpt lat="49.02063" lon="2.05847">
        <ele>41.3</ele>
        <time>2022-03-04T19:37:01Z</time>
      </trkpt>
      <trkpt lat="49.02055" lon="2.0585">
        <ele>41</ele>
        <time>2022-03-04T19:37:07Z</time>
      </trkpt>
      <trkpt lat="49.02049" lon="2.05853">
        <ele>40.9</ele>
        <time>2022-03-04T19:37:12Z</time>
      </trkpt>
      <trkpt lat="49.02039" lon="2.05856">
        <ele>40.9</ele>
        <time>2022-03-04T19:37:18Z</time>
      </trkpt>
      <trkpt lat="49.02029" lon="2.0586">
        <ele>41</ele>
        <time>2022-03-04T19:37:24Z</time>
      </trkpt>
      <trkpt lat="49.02021" lon="2.05865">
        <ele>41</ele>
        <time>2022-03-04T19:37:29Z</time>
      </trkpt>
      <trkpt lat="49.02013" lon="2.0587">
        <ele>41</ele>
        <time>2022-03-04T19:37:34Z</time>
      </trkpt>
      <trkpt lat="49.02005" lon="2.05877">
        <ele>41.2</ele>
        <time>2022-03-04T19:37:40Z</time>
      </trkpt>
      <trkpt lat="49.01996" lon="2.05879">
        <ele>41.2</ele>
        <time>2022-03-04T19:37:46Z</time>
      </trkpt>
      <trkpt lat="49.01989" lon="2.05879">
        <ele>41.1</ele>
        <time>2022-03-04T19:37:52Z</time>
      </trkpt>
      <trkpt lat="49.01983" lon="2.05881">
        <ele>41</ele>
        <time>2022-03-04T19:37:57Z</time>
      </trkpt>
      <trkpt lat="49.01975" lon="2.05883">
        <ele>40.9</ele>
        <time>2022-03-04T19:38:02Z</time>
      </trkpt>
      <trkpt lat="49.01967" lon="2.05886">
        <ele>40.9</ele>
        <time>2022-03-04T19:38:08Z</time>
      </trkpt>
      <trkpt lat="49.01957" lon="2.05894">
        <ele>41.2</ele>
        <time>2022-03-04T19:38:14Z</time>
      </trkpt>
      <trkpt lat="49.01951" lon="2.05895">
        <ele>41.2</ele>
        <time>2022-03-04T19:38:19Z</time>
      </trkpt>
      <trkpt lat="49.01944" lon="2.05896">
        <ele>41.2</ele>
        <time>2022-03-04T19:38:25Z</time>
      </trkpt>
      <trkpt lat="49.01936" lon="2.059">
        <ele>41.2</ele>
        <time>2022-03-04T19:38:30Z</time>
      </trkpt>
      <trkpt lat="49.01928" lon="2.05903">
        <ele>41.2</ele>
        <time>2022-03-04T19:38:36Z</time>
      </trkpt>
      <trkpt lat="49.01922" lon="2.05905">
        <ele>41.2</ele>
        <time>2022-03-04T19:38:41Z</time>
      </trkpt>
      <trkpt lat="49.01914" lon="2.05907">
        <ele>41.2</ele>
        <time>2022-03-04T19:38:47Z</time>
      </trkpt>
      <trkpt lat="49.01907" lon="2.05911">
        <ele>41.3</ele>
        <time>2022-03-04T19:38:52Z</time>
      </trkpt>
      <trkpt lat="49.019" lon="2.05915">
        <ele>41.3</ele>
        <time>2022-03-04T19:38:58Z</time>
      </trkpt>
      <trkpt lat="49.01892" lon="2.05919">
        <ele>41.2</ele>
        <time>2022-03-04T19:39:04Z</time>
      </trkpt>
      <trkpt lat="49.01885" lon="2.05923">
        <ele>41.1</ele>
        <time>2022-03-04T19:39:09Z</time>
      </trkpt>
      <trkpt lat="49.01879" lon="2.05926">
        <ele>41</ele>
        <time>2022-03-04T19:39:14Z</time>
      </trkpt>
      <trkpt lat="49.01873" lon="2.05927">
        <ele>40.8</ele>
        <time>2022-03-04T19:39:19Z</time>
      </trkpt>
      <trkpt lat="49.01865" lon="2.0593">
        <ele>40.6</ele>
        <time>2022-03-04T19:39:25Z</time>
      </trkpt>
      <trkpt lat="49.01858" lon="2.05932">
        <ele>40.5</ele>
        <time>2022-03-04T19:39:31Z</time>
      </trkpt>
      <trkpt lat="49.0185" lon="2.05938">
        <ele>40.4</ele>
        <time>2022-03-04T19:39:37Z</time>
      </trkpt>
      <trkpt lat="49.01842" lon="2.05943">
        <ele>40.3</ele>
        <time>2022-03-04T19:39:43Z</time>
      </trkpt>
      <trkpt lat="49.01835" lon="2.05947">
        <ele>40.2</ele>
        <time>2022-03-04T19:39:48Z</time>
      </trkpt>
      <trkpt lat="49.01829" lon="2.0595">
        <ele>40.1</ele>
        <time>2022-03-04T19:39:53Z</time>
      </trkpt>
      <trkpt lat="49.01823" lon="2.0595">
        <ele>39.9</ele>
        <time>2022-03-04T19:39:59Z</time>
      </trkpt>
      <trkpt lat="49.01816" lon="2.05953">
        <ele>39.9</ele>
        <time>2022-03-04T19:40:04Z</time>
      </trkpt>
      <trkpt lat="49.0181" lon="2.05959">
        <ele>40.1</ele>
        <time>2022-03-04T19:40:09Z</time>
      </trkpt>
      <trkpt lat="49.01801" lon="2.05963">
        <ele>40.3</ele>
        <time>2022-03-04T19:40:15Z</time>
      </trkpt>
      <trkpt lat="49.01795" lon="2.05967">
        <ele>40.3</ele>
        <time>2022-03-04T19:40:20Z</time>
      </trkpt>
      <trkpt lat="49.01788" lon="2.05968">
        <ele>40.2</ele>
        <time>2022-03-04T19:40:26Z</time>
      </trkpt>
      <trkpt lat="49.0178" lon="2.0597">
        <ele>40</ele>
        <time>2022-03-04T19:40:32Z</time>
      </trkpt>
      <trkpt lat="49.01772" lon="2.05972">
        <ele>39.8</ele>
        <time>2022-03-04T19:40:38Z</time>
      </trkpt>
      <trkpt lat="49.01764" lon="2.05975">
        <ele>39.6</ele>
        <time>2022-03-04T19:40:44Z</time>
      </trkpt>
      <trkpt lat="49.01756" lon="2.05978">
        <ele>39.4</ele>
        <time>2022-03-04T19:40:50Z</time>
      </trkpt>
      <trkpt lat="49.01748" lon="2.05981">
        <ele>39.2</ele>
        <time>2022-03-04T19:40:56Z</time>
      </trkpt>
      <trkpt lat="49.01742" lon="2.05983">
        <ele>39.1</ele>
        <time>2022-03-04T19:41:01Z</time>
      </trkpt>
      <trkpt lat="49.01734" lon="2.05986">
        <ele>38.9</ele>
        <time>2022-03-04T19:41:06Z</time>
      </trkpt>
      <trkpt lat="49.01728" lon="2.0599">
        <ele>38.8</ele>
        <time>2022-03-04T19:41:11Z</time>
      </trkpt>
      <trkpt lat="49.01721" lon="2.05993">
        <ele>38.7</ele>
        <time>2022-03-04T19:41:17Z</time>
      </trkpt>
      <trkpt lat="49.01715" lon="2.05997">
        <ele>38.6</ele>
        <time>2022-03-04T19:41:23Z</time>
      </trkpt>
      <trkpt lat="49.01709" lon="2.06003">
        <ele>38.6</ele>
        <time>2022-03-04T19:41:28Z</time>
      </trkpt>
      <trkpt lat="49.01705" lon="2.06009">
        <ele>38.7</ele>
        <time>2022-03-04T19:41:33Z</time>
      </trkpt>
      <trkpt lat="49.017" lon="2.06014">
        <ele>38.7</ele>
        <time>2022-03-04T19:41:39Z</time>
      </trkpt>
      <trkpt lat="49.01694" lon="2.0602">
        <ele>38.7</ele>
        <time>2022-03-04T19:41:45Z</time>
      </trkpt>
      <trkpt lat="49.01691" lon="2.06023">
        <ele>38.7</ele>
        <time>2022-03-04T19:41:51Z</time>
      </trkpt>
      <trkpt lat="49.01686" lon="2.06026">
        <ele>38.6</ele>
        <time>2022-03-04T19:41:56Z</time>
      </trkpt>
      <trkpt lat="49.01681" lon="2.06031">
        <ele>38.6</ele>
        <time>2022-03-04T19:42:02Z</time>
      </trkpt>
      <trkpt lat="49.01675" lon="2.06038">
        <ele>38.7</ele>
        <time>2022-03-04T19:42:08Z</time>
      </trkpt>
      <trkpt lat="49.01667" lon="2.06046">
        <ele>38.7</ele>
        <time>2022-03-04T19:42:14Z</time>
      </trkpt>
      <trkpt lat="49.01659" lon="2.06057">
        <ele>38.5</ele>
        <time>2022-03-04T19:42:20Z</time>
      </trkpt>
      <trkpt lat="49.01653" lon="2.06066">
        <ele>38.2</ele>
        <time>2022-03-04T19:42:25Z</time>
      </trkpt>
      <trkpt lat="49.01646" lon="2.06076">
        <ele>38.1</ele>
        <time>2022-03-04T19:42:31Z</time>
      </trkpt>
      <trkpt lat="49.01639" lon="2.06082">
        <ele>38</ele>
        <time>2022-03-04T19:42:37Z</time>
      </trkpt>
      <trkpt lat="49.01633" lon="2.06084">
        <ele>37.8</ele>
        <time>2022-03-04T19:42:42Z</time>
      </trkpt>
      <trkpt lat="49.01627" lon="2.06083">
        <ele>37.6</ele>
        <time>2022-03-04T19:42:48Z</time>
      </trkpt>
      <trkpt lat="49.01623" lon="2.06079">
        <ele>37.3</ele>
        <time>2022-03-04T19:42:53Z</time>
      </trkpt>
      <trkpt lat="49.01619" lon="2.06073">
        <ele>36.9</ele>
        <time>2022-03-04T19:42:58Z</time>
      </trkpt>
      <trkpt lat="49.01614" lon="2.06064">
        <ele>36.4</ele>
        <time>2022-03-04T19:43:04Z</time>
      </trkpt>
      <trkpt lat="49.01609" lon="2.06056">
        <ele>35.9</ele>
        <time>2022-03-04T19:43:09Z</time>
      </trkpt>
      <trkpt lat="49.01604" lon="2.06045">
        <ele>35.4</ele>
        <time>2022-03-04T19:43:15Z</time>
      </trkpt>
      <trkpt lat="49.01599" lon="2.06036">
        <ele>34.8</ele>
        <time>2022-03-04T19:43:20Z</time>
      </trkpt>
      <trkpt lat="49.01593" lon="2.06025">
        <ele>34.2</ele>
        <time>2022-03-04T19:43:26Z</time>
      </trkpt>
      <trkpt lat="49.0159" lon="2.06017">
        <ele>33.5</ele>
        <time>2022-03-04T19:43:31Z</time>
      </trkpt>
      <trkpt lat="49.01586" lon="2.06007">
        <ele>32.6</ele>
        <time>2022-03-04T19:43:37Z</time>
      </trkpt>
      <trkpt lat="49.01582" lon="2.05999">
        <ele>31.9</ele>
        <time>2022-03-04T19:43:43Z</time>
      </trkpt>
      <trkpt lat="49.01578" lon="2.05992">
        <ele>31.5</ele>
        <time>2022-03-04T19:43:48Z</time>
      </trkpt>
      <trkpt lat="49.01574" lon="2.05984">
        <ele>30.8</ele>
        <time>2022-03-04T19:43:53Z</time>
      </trkpt>
      <trkpt lat="49.01569" lon="2.05975">
        <ele>30.1</ele>
        <time>2022-03-04T19:43:58Z</time>
      </trkpt>
      <trkpt lat="49.01565" lon="2.05967">
        <ele>29.5</ele>
        <time>2022-03-04T19:44:03Z</time>
      </trkpt>
      <trkpt lat="49.01561" lon="2.05958">
        <ele>28.8</ele>
        <time>2022-03-04T19:44:09Z</time>
      </trkpt>
      <trkpt lat="49.01556" lon="2.0595">
        <ele>28.2</ele>
        <time>2022-03-04T19:44:15Z</time>
      </trkpt>
      <trkpt lat="49.01552" lon="2.05944">
        <ele>28</ele>
        <time>2022-03-04T19:44:21Z</time>
      </trkpt>
      <trkpt lat="49.01547" lon="2.05936">
        <ele>27.8</ele>
        <time>2022-03-04T19:44:27Z</time>
      </trkpt>
      <trkpt lat="49.01543" lon="2.05928">
        <ele>27.5</ele>
        <time>2022-03-04T19:44:33Z</time>
      </trkpt>
      <trkpt lat="49.0154" lon="2.0592">
        <ele>27</ele>
        <time>2022-03-04T19:44:39Z</time>
      </trkpt>
      <trkpt lat="49.01537" lon="2.05907">
        <ele>26.6</ele>
        <time>2022-03-04T19:44:45Z</time>
      </trkpt>
      <trkpt lat="49.01532" lon="2.05896">
        <ele>26.2</ele>
        <time>2022-03-04T19:44:51Z</time>
      </trkpt>
      <trkpt lat="49.01527" lon="2.05887">
        <ele>25.9</ele>
        <time>2022-03-04T19:44:57Z</time>
      </trkpt>
      <trkpt lat="49.01524" lon="2.05883">
        <ele>25.7</ele>
        <time>2022-03-04T19:45:03Z</time>
      </trkpt>
      <trkpt lat="49.01522" lon="2.05876">
        <ele>25.4</ele>
        <time>2022-03-04T19:45:09Z</time>
      </trkpt>
      <trkpt lat="49.01517" lon="2.05873">
        <ele>25.3</ele>
        <time>2022-03-04T19:45:14Z</time>
      </trkpt>
      <trkpt lat="49.01509" lon="2.05868">
        <ele>25.1</ele>
        <time>2022-03-04T19:45:19Z</time>
      </trkpt>
      <trkpt lat="49.01501" lon="2.05865">
        <ele>25</ele>
        <time>2022-03-04T19:45:25Z</time>
      </trkpt>
      <trkpt lat="49.01496" lon="2.05861">
        <ele>25</ele>
        <time>2022-03-04T19:45:30Z</time>
      </trkpt>
      <trkpt lat="49.01489" lon="2.05854">
        <ele>25</ele>
        <time>2022-03-04T19:45:36Z</time>
      </trkpt>
      <trkpt lat="49.01483" lon="2.0585">
        <ele>25</ele>
        <time>2022-03-04T19:45:41Z</time>
      </trkpt>
      <trkpt lat="49.0148" lon="2.05851">
        <ele>25</ele>
        <time>2022-03-04T19:45:46Z</time>
      </trkpt>
      <trkpt lat="49.01477" lon="2.0585">
        <ele>25</ele>
        <time>2022-03-04T19:45:52Z</time>
      </trkpt>
      <trkpt lat="49.01474" lon="2.05846">
        <ele>25</ele>
        <time>2022-03-04T19:45:58Z</time>
      </trkpt>
      <trkpt lat="49.0147" lon="2.05839">
        <ele>25</ele>
        <time>2022-03-04T19:46:04Z</time>
      </trkpt>
      <trkpt lat="49.01466" lon="2.05831">
        <ele>25</ele>
        <time>2022-03-04T19:46:10Z</time>
      </trkpt>
      <trkpt lat="49.01459" lon="2.05829">
        <ele>25.1</ele>
        <time>2022-03-04T19:46:16Z</time>
      </trkpt>
      <trkpt lat="49.01451" lon="2.05829">
        <ele>25.1</ele>
        <time>2022-03-04T19:46:22Z</time>
      </trkpt>
      <trkpt lat="49.01445" lon="2.05831">
        <ele>25.1</ele>
        <time>2022-03-04T19:46:28Z</time>
      </trkpt>
      <trkpt lat="49.01442" lon="2.05832">
        <ele>25</ele>
        <time>2022-03-04T19:46:33Z</time>
      </trkpt>
      <trkpt lat="49.01441" lon="2.05833">
        <ele>25</ele>
        <time>2022-03-04T19:46:38Z</time>
      </trkpt>
    </trkseg>
  </trk>
</gpx>